     2              OBSERVATION DATA    GPS                 RINEX VERSION / TYPE
ASHTORIN MIT 05 - NOV - 96 18:09                            PGM / RUN BY / DATE
                                                            COMMENT
CHINA LAKE 1996 EXPT#2 P-Code Ashtech                       COMMENT
Original Marker Name: KMED                                  COMMENT
Campaign Name: China Lake Nov 1996                          COMMENT
4-Character Station Name: GS08                              COMMENT
6-Character Antenna Code: ASHP12                            COMMENT
Vertical Measurement Point: TGP                             COMMENT
Vertical Offset to Rinex Ref. Point: 0.0640                 COMMENT
Radial Measurement Point: OOH                               COMMENT
Radial Offset to Rinex Ref. Point: 0.1318                   COMMENT
Antenna Height from Field Measurement: 0.9210 m             COMMENT
Additional Antenna Identification Info.:                    COMMENT
Ashtech L1/L2 Revision B (700228DE)                         COMMENT
Original XYZ: -2428152.4000 -4572505.9100 3715143.6800      COMMENT
New XYZ position is based on association with SCEC monument COMMENT
E1F1W1J5+0011. Position of that monument is believed to be  COMMENT
valid to within 1 m horizontally; vertical accuracy         COMMENT
should be no worse than 3-times this value.                 COMMENT
                                                            COMMENT
Revised Rinex header created by UCSD GPS archive for        COMMENT
GSAC on 31-Jul-2000 (2000:213) 17:16:38 GMT                 COMMENT
For assistance contact dagnew@ucsd.edu                      COMMENT
or anderson@python.ucsd.edu                                 COMMENT
                                                            COMMENT
3187 S                                                      MARKER NAME
                                                            MARKER NUMBER
KEN US DEFENSE MAPPING AGENCY                               OBSERVER / AGENCY
456 ASHTECH Z-XII3 1G001C7                                  REC # / TYPE / VERS
443 ASHTECH GEODETIC P                                      ANT # / TYPE
 -2436056.5893 -4555502.9878  3731342.1307                  APPROX POSITION XYZ
        0.8475        0.0000        0.0000                  ANTENNA: DELTA H/E/N
     1     1     0                                          WAVELENGTH FACT L1/2
     7    L1    L2    C1    P1    P2    D1    D2            # / TYPES OF OBSERV
    30                                                      INTERVAL
  1996    10    28    16    26   30.000000                  TIME OF FIRST OBS
  1996    10    28    22    29   60.000000                  TIME OF LAST OBS
                                                            END OF HEADER
 96 10 28 16 26 30.0000000  0  8 26 23 21  3  1  9 17 28             0.001643597
     66759.08719     41938.92556  23617309.717           0.0005          0.0005
     -2047.855       -1595.731
    -12172.51919     -7451.27158  19880175.867    19880175.9485   19880182.0365
       298.360         232.488
    -75130.25519    -49477.04858  20074934.980           0.0005   20074941.8215
      2411.885        1879.391
    -96507.07219    -59044.00658  20645670.094           0.0005   20645679.6045
      2874.924        2240.200
   -153496.30719    -94810.49257  21545862.227           0.0005   21545869.2105
      4625.182        3604.038
    -43055.86118    -19368.86952  23222087.637           0.0005          0.0005
      3008.174        2344.032
      3219.68819      2065.97258  20054617.746           0.0005   20054623.4025
      -103.824         -80.902
      3749.15419      1914.96354  19672480.500           0.0005          0.0005
      -105.708         -82.370
 96 10 28 16 27 30.0000000  0  8 26 23 21  3  1  9 17 28             0.000452179
    189840.908 9    137846.85256  24839897.960    24839900.9375   24839907.2355
     -2055.850       -1601.961
    -29771.619 9    -21164.89158  21075997.965    21075996.6485   21076003.0055
       287.915         224.349
   -219442.582 9   -161928.21048  21246645.105    21246643.5595   21246650.1214
      2398.812        1869.204
   -268078.167 9   -192735.77448  21812195.355    21812194.5345   21812200.5374
      2844.262        2216.308
   -430607.683 9   -310741.43947  22692300.992    22692299.6855   22692306.5094
      4611.913        3593.698
   -223034.334 9   -159611.81056  24387013.927           0.0005   24387016.2615
      2991.449        2330.999
      9964.971 9      7321.97948  21255069.114    21255070.4625   21255077.0344
      -121.376         -94.579
     11087.119 9      6573.54314  20873045.224    20873047.5291          0.0001
      -139.047        -108.348
 96 10 28 16 28  0.0000000  0  8 26 23 21  3  1  9 17 28             0.000426968
    251590.946 9    185963.71456  24851647.465    24851651.6695   24851657.9735
     -2061.583       -1606.428
    -38331.302 9    -27834.78748  21074369.167    21074367.7734   21074374.1514
       281.857         219.629
   -291318.680 9   -217935.56058  21232966.474    21232965.9965   21232972.5155
      2392.067        1863.948
   -353178.610 9   -259047.81058  21795998.538    21796000.4815   21796006.5115
      2828.051        2203.676
   -568860.080 9   -418470.56157  22665985.992    22665991.0935   22665997.9735
      4604.166        3587.662
   -312652.340 9   -229443.98156  24369957.575    24369954.1585   24369959.7345
      2982.038        2323.666
     13739.826 9     10263.39658  21255791.887    21255788.8895   21255795.4525
      -131.305        -102.316
     15507.748 9      9474.85918  20873888.081    20873888.780           0.0001
      -156.593        -122.021
 96 10 28 16 28 30.0000000  0  8 26 23 21  3  1  9 17 28             0.000401849
    313517.959 9    234218.47846  24863431.584    24863435.9944   24863442.3514
     -2066.955       -1610.614
    -46699.634 9    -34355.59248  21072775.970    21072775.3464   21072781.7294
       276.016         215.077
   -362993.737 9   -273786.26048  21219326.485    21219326.6674   21219333.0924
      2386.131        1859.323
   -437777.895 9   -324969.33648  21779900.327    21779901.7734   21779907.8894
      2811.706        2190.940
   -706883.615 9   -526021.36847  22639723.709    22639726.0954   22639732.9864
      4597.389        3582.381
   -401969.240 9   -299041.50046  24352960.611    24352957.0205   24352964.4084
      2972.189        2315.991
     17828.375 9     13449.25448  21256567.842    21256567.0054   21256573.5444
      -141.320        -110.119
     20464.590 9     12791.35414  20874831.697    20874832.049           0.0001
      -173.903        -135.509
 96 10 28 16 29  0.0000000  0  8 26 23 21  3  1  9 17 28             0.000376666
    375590.371 9    282586.54346  24875244.656    24875248.0834   24875254.4224
     -2070.843       -1613.644
    -54922.474 9    -40763.02048  21071210.979    21071210.6354   21071216.9544
       272.521         212.354
   -434501.975 9   -329506.96848  21205719.109    21205719.1114   21205725.4894
      2381.368        1855.611
   -521900.172 9   -390519.17148  21763892.501    21763893.8494   21763900.0514
      2796.709        2179.254
   -844717.638 9   -633424.48647  22613495.140    22613497.1134   22613504.0634
      4591.911        3578.112
   -491006.666 9   -368421.21346  24336016.044    24336014.0384   24336021.9074
      2964.180        2309.751
     22197.053 9     16853.39948  21257398.981    21257398.3604   21257404.8434
      -149.400        -116.416
     25919.628 9     16450.20914  20875869.917    20875870.099           0.0001
      -189.361        -147.554
 96 10 28 16 29 30.0000000  0  8 26 23 21  3  1  9 17 28             0.000351455
    437811.461 9    331070.46646  24887086.318    24887088.4334   24887094.8114
     -2076.549       -1618.090
    -63000.090 9    -47057.28148  21069673.887    21069673.5734   21069679.8204
       266.704         207.821
   -505821.841 9   -385080.88248  21192147.289    21192147.3724   21192153.8004
      2373.923        1849.810
   -605531.105 9   -455686.13948  21747978.456    21747979.4364   21747985.6814
      2779.384        2165.754
   -982346.155 9   -740667.46547  22587305.808    22587307.2574   22587314.2504
      4583.991        3571.941
   -579769.772 9   -437587.29946  24319124.306    24319122.9554   24319130.5044
      2954.042        2301.851
     26845.723 9     20475.71348  21258283.297    21258282.9624   21258289.4084
      -159.819        -124.534
     31878.079 9     20470.08614  20877003.819    20877003.985           0.0001
      -207.237        -161.483
 96 10 28 16 30  0.0000000  0  8 26 23 21  3  1  9 17 28             0.000326227
    500195.907 9    379681.63946  24898959.142    24898959.7514   24898966.3114
     -2081.762       -1622.152
    -70906.708 9    -53218.30048  21068169.249    21068169.0324   21068175.2434
       260.784         203.208
   -576914.735 9   -440477.94848  21178618.703    21178618.8484   21178625.2674
      2366.019        1843.651
   -688636.629 9   -520443.69348  21732164.121    21732164.9634   21732171.1784
      2761.316        2151.675
  -1119738.423 9   -847726.35147  22561161.071    22561162.3504   22561169.4054
      4575.881        3565.622
   -668221.451 9   -506510.63446  24302291.951    24302290.8604   24302298.5674
      2943.108        2293.331
     31804.310 9     24339.52248  21259226.757    21259226.5954   21259233.0194
      -170.243        -132.657
     38376.195 9     24908.10814  20878240.427    20878240.537           0.0001
      -225.486        -175.703
 96 10 28 16 30 30.0000000  0  8 26 23 21  3  1  9 17 28             0.000300986
    562718.395 8    428400.37246  24910857.066    24910857.4664   24910864.1534
     -2085.451       -1625.027
    -78640.094 9    -59244.33048  21066697.616    21066697.4754   21066703.6744
       255.706         199.251
   -647774.502 9   -495693.35648  21165134.586    21165134.6924   21165141.0364
      2358.870        1838.081
   -771207.588 9   -584784.71148  21716451.516    21716452.2314   21716458.3414
      2744.431        2138.518
  -1256895.711 9   -954602.13147  22535061.146    22535062.1404   22535069.2794
      4568.756        3560.070
   -756350.649 9   -575182.71246  24285521.454    24285520.7614   24285528.3544
      2933.105        2285.536
     37061.323 9     28435.86448  21260227.237    21260227.0914   21260233.4294
      -179.140        -139.590
     45411.135 9       428.75711  20879579.087           0.0001          0.0001
      -242.538        -188.991
 96 10 28 16 31  0.0000000  0  9 26 23 31 21  3  1  9 17 28          0.000275728
    625375.799 8    477224.27546  24922779.669    24922780.7794   24922787.3864
     -2091.025       -1629.370
    -86196.743 9    -65132.64348  21065259.639    21065259.5484   21065265.7204
       248.593         193.709
   -316705.06419   -214465.27256  24585180.776           0.0005   24585185.6175
      4410.686        3436.898
   -718386.473 9   -550715.67248  21151697.678    21151697.6964   21151703.9854
      2349.430        1830.725
   -853252.400 9   -648715.74048  21700838.630    21700839.6374   21700845.7154
      2725.836        2124.028
  -1393801.330 9  -1061281.79347  22509009.040    22509009.7814   22509017.0074
      4558.940        3552.421
   -844157.007 9   -643603.30946  24268812.376    24268811.8524   24268819.0234
      2921.395        2276.412
     42605.062 9     32755.63148  21261282.270    21261282.0764   21261288.4554
      -189.717        -147.831
     52982.538 9      5773.45817  20881019.840    20881019.9861          0.0001
      -261.545        -203.801
 96 10 28 16 31 30.0000000  0  9 26 23 31 21  3  1  9 17 28          0.000250452
    688175.588 8    526159.12845  24934728.552    24934731.1784   24934737.5444
     -2095.563       -1632.906
    -93547.736 9    -70860.70348  21063860.756    21063860.7464   21063866.9094
       241.542         188.215
   -448892.068 9   -317468.13656  24560024.691    24560022.5785   24560030.5355
      4401.656        3429.862
   -788749.897 9   -605544.31948  21138307.909    21138308.0294   21138314.3154
      2341.491        1824.538
   -934765.839 9   -712232.71748  21685327.280    21685328.1034   21685334.2704
      2708.368        2110.417
  -1530445.124 9  -1167757.43847  22483006.601    22483007.2274   22483014.5204
      4550.630        3545.945
   -931635.650 9   -711768.46846  24252165.894    24252165.5894   24252172.6404
      2910.461        2267.892
     48441.194 9     37303.23548  21262392.713    21262392.6484   21262399.0144
      -199.482        -155.441
     61098.050 9     11484.10116  20882564.199    20882564.370           0.0001
      -279.457        -217.759
 96 10 28 16 32  0.0000000  0  9 26 23 31 21  3  1  9 17 28          0.000225124
    751131.850 8    575215.90045  24946707.963    24946711.4634   24946717.7764
     -2101.145       -1637.256
   -100668.443 9    -76409.31748  21062505.751    21062505.7664   21062511.8934
       233.405         181.874
   -580789.424 9   -420245.30346  24534924.495    24534924.0965   24534931.3954
      4391.815        3422.194
   -858863.054 9   -660177.95348  21124965.854    21124965.9914   21124972.2854
      2333.033        1817.948
  -1015728.927 9   -775320.84748  21669920.757    21669921.3374   21669927.6034
      2689.457        2095.681
  -1666825.296 9  -1274027.68047  22457054.271    22457054.8984   22457062.1714
      4541.626        3538.929
  -1018762.338 9   -779659.41846  24235585.890    24235585.6454   24235592.2414
      2898.248        2258.375
     54593.259 9     42097.02248  21263563.413    21263563.3584   21263569.6974
      -210.461        -163.996
     69768.930 9         0.000 1  20884214.178           0.000           0.000
      -298.321        -232.458
 96 10 28 16 32 30.0000000  0  9 26 23 31 21  3  1  9 17 28          0.000199827
    814242.762 8    624393.22045  24958718.024    24958721.0414   24958727.3564
     -2106.361       -1641.320
   -107558.599 9    -81778.28148  21061194.567    21061194.6374   21061200.7524
       226.081         176.167
   -712407.200 9   -522804.58746  24509877.711    24509878.3244   24509885.3464
      4382.572        3414.991
   -928731.164 9   -714620.63948  21111670.215    21111670.4614   21111676.9094
      2324.810        1811.540
  -1096138.800 9   -837977.90448  21654619.186    21654619.8834   21654626.1824
      2671.139        2081.407
  -1802946.177 9  -1380095.86247  22431151.285    22431151.9214   22431159.1914
      4533.079        3532.269
  -1105530.401 9   -847270.82647  24219074.615    24219074.5304   24219081.4684
      2886.346        2249.101
     61068.673 9     47142.76748  21264795.609    21264795.6004   21264801.9904
      -221.317        -172.455
     78991.723 9      6707.94114  20885969.242    20885969.5021          0.0001
      -316.568        -246.676
 96 10 28 16 33  0.0000000  0  9 26 23 31 21  3  1  9 17 28          0.000174546
    877529.525 8    673707.53945  24970761.208    24970764.1204   24970770.4864
     -2112.061       -1645.762
   -114226.738 9    -86974.24148  21059925.580    21059925.7464   21059931.8354
       219.315         170.895
   -843726.670 9   -625131.46746  24484888.147    24484889.3534   24484896.0354
      4372.806        3407.381
   -998332.792 9   -768855.67748  21098425.592    21098425.7234   21098432.1524
      2316.164        1804.803
  -1175972.344 9   -900185.86748  21639427.544    21639428.1354   21639434.3974
      2651.788        2066.328
  -1938790.485 9  -1485948.53148  22405301.345    22405301.5444   22405308.8454
      4523.930        3525.140
  -1191921.836 9   -914588.76546  24202634.321    24202634.4814   24202641.9654
      2873.982        2239.466
     67893.622 9     52460.88448  21266094.501    21266094.3904   21266100.8084
      -232.886        -181.470
     88778.685 9     13773.21216  20887831.634    20887831.930           0.0001
      -335.056        -261.083
 96 10 28 16 33 30.0000000  0  9 26 23 31 21  3  1  9 17 28          0.000149290
    941005.863 9    723169.54246  24982841.047    24982843.3584   24982849.8084
     -2118.976       -1651.150
   -120673.174 9    -91997.45248  21058698.856    21058699.0444   21058705.0894
       211.179         164.555
   -974734.042 8   -727215.11246  24459958.651    24459959.6674   24459966.5544
      4361.294        3398.411
  -1067657.961 9   -822875.29948  21085233.468    21085233.6484   21085240.0514
      2306.078        1796.944
  -1255197.278 9   -961919.59548  21624351.452    21624352.1524   21624358.3534
      2630.262        2049.555
  -2074334.807 9  -1591567.44748  22379508.141    22379508.2674   22379515.6274
      4512.819        3516.482
  -1277920.206 9   -981600.61046  24186269.352    24186269.7144   24186276.3834
      2859.783        2228.402
     75092.715 9     58070.53748  21267464.461    21267464.4094   21267470.7784
      -246.605        -192.160
     99140.053 9     21234.83514  20889803.308    20889803.643           0.0001
      -355.173        -276.758
 96 10 28 16 34  0.0000000  0  9 26 23 31 21  3  1  9 17 28          0.000124075
   1004663.701 8    772773.01946  24994954.783    24994957.1934   24994963.6054
     -2124.763       -1655.659
   -126912.725 9    -96859.45148  21057511.538    21057511.7384   21057517.7004
       204.819         159.599
  -1105414.816 8   -829044.31546  24435090.845    24435091.8644   24435098.8394
      4350.790        3390.226
  -1136701.856 9   -876675.73848  21072094.795    21072095.0594   21072101.4534
      2296.901        1789.793
  -1333788.229 9  -1023159.30648  21609395.914    21609396.7174   21609402.9514
      2609.293        2033.215
  -2209560.968 9  -1696938.46148  22353775.633    22353775.6054   22353782.9314
      4502.345        3508.321
  -1363509.038 9  -1048293.11046  24169982.127    24169982.4994   24169989.6724
      2846.379        2217.958
     82681.069 9     63983.50748  21268908.463    21268908.4794   21268914.8044
      -259.044        -201.852
    110084.202 9     29095.87914  20891885.816    20891886.253           0.0001
      -374.278        -291.645
 96 10 28 16 34 30.0000000  0  9 26 23 31 21  3  1  9 17 28          0.000098908
   1068499.033 8    822514.80945  25007101.731    25007104.5834   25007111.0854
     -2131.677       -1661.047
   -132956.970 9   -101569.25748  21056361.485    21056361.5764   21056367.5124
       197.578         153.957
  -1235764.650 9   -930615.61446  24410286.750    24410287.4484   24410294.2124
      4338.530        3380.673
  -1205461.102 9   -930254.36548  21059010.448    21059010.5704   21059016.9934
      2286.561        1781.736
  -1411746.402 9  -1083905.94848  21594561.124    21594561.7954   21594567.9814
      2587.414        2016.167
  -2344454.262 9  -1802050.07648  22328105.768    22328106.2154   22328113.6104
      4490.051        3498.741
  -1448698.002 9  -1114674.28746  24153771.708    24153771.9634   24153778.0594
      2832.366        2207.038
     90646.076 9     70189.98148  21270423.876    21270424.1704   21270430.5254
      -272.408        -212.266
    121602.385 9     37371.36317  20894077.887    20894078.100           0.0001
      -394.148        -307.128
 96 10 28 16 35  0.0000000  0  9 26 23 31 21  3  1  9 17 28          0.000073798
   1132533.16517    872411.49554  25019287.039    25019289.0845          0.0005
     -2137.924       -1665.915
   -138792.566 9   -106116.48848  21055251.061    21055251.1254   21055257.0154
       190.615         148.531
  -1365756.951 8  -1031908.32946  24385549.774    24385550.8274   24385557.6694
      4327.072        3371.744
  -1273932.278 9   -983608.53748  21045980.857    21045981.0014   21045987.3294
      2277.607        1774.759
  -1489062.688 9  -1144152.41448  21579848.456    21579849.0764   21579855.1724
      2566.511        1999.879
  -2478992.538 9  -1906885.07948  22302504.330    22302504.4244   22302511.8044
      4478.530        3489.764
  -1533481.083 9  -1180739.02046  24137638.239    24137638.1834   24137644.6584
      2819.391        2196.928
     98993.179 9     76694.18648  21272012.259    21272012.5954   21272018.9894
      -284.607        -221.772
    133702.085 9     46083.33215  20896380.444    20896380.611           0.0001
      -413.121        -321.912
 96 10 28 16 35 30.0000000  0  9 26 23 31 21  3  1  9 17 28          0.000048729
   1196770.73317    922466.70554  25031510.922    25031514.1145          0.0005
     -2145.019       -1671.443
   -144384.220 9   -110473.63548  21054187.094    21054187.1014   21054192.9764
       181.598         141.505
  -1495391.947 9  -1132922.60246  24360880.593    24360882.0324   24360889.0744
      4314.619        3362.041
  -1342122.400 9  -1036743.70348  21033004.868    21033004.9624   21033011.1754
      2267.638        1766.991
  -1565745.693 9  -1203905.43148  21565256.000    21565256.8184   21565262.8824
      2545.163        1983.244
  -2613170.704 9  -2011439.47348  22276971.260    22276971.1334   22276978.5304
      4466.217        3480.169
  -1617866.744 9  -1246494.14746  24121580.091    24121579.9734   24121586.4404
      2805.690        2186.252
    107720.355 9     83494.55348  21273673.025    21273673.3704   21273679.8154
      -297.789        -232.043
    146387.462 9     55232.30214  20898794.337    20898794.565           0.0001
      -433.203        -337.561
 96 10 28 16 36  0.0000000  0  8 23 31 21  3  1  9 17 28             0.000023694
   -149712.196 9   -114625.32048  21053173.206    21053173.2554   21053179.1444
       172.394         134.333
  -1624653.499 9  -1233645.88346  24336283.541    24336284.4824   24336291.5554
      4301.773        3352.031
  -1410005.039 9  -1089639.26748  21020087.390    21020087.3304   21020093.5904
      2256.708        1758.474
  -1641807.488 9  -1263174.37248  21550781.909    21550782.7704   21550788.8094
      2524.569        1967.197
  -2746990.214 9  -2115714.39648  22251506.230    22251506.1214   22251513.5184
      4453.922        3470.589
  -1701847.815 9  -1311933.92447  24105599.227    24105598.9544   24105605.8694
      2791.965        2175.557
    116830.645 9     90593.45548  21275406.743    21275407.0124   21275413.5064
      -310.540        -241.979
    159670.747 9     64826.57717  20901322.137    20901322.330           0.0001
      -453.449        -353.337
 96 10 28 16 36 30.0000000  0  8 23 31 21  3  1  9 17 28            -0.000001334
   -154783.705 9   -118577.15548  21052208.155    21052208.2144   21052214.0884
       164.213         127.958
  -1753561.654 9  -1334093.80246  24311753.428    24311754.1604   24311761.1364
      4290.355        3343.134
  -1477582.066 9  -1142296.68748  21007227.714    21007227.8384   21007234.1824
      2246.816        1750.766
  -1717284.717 9  -1321987.80748  21536419.313    21536419.9944   21536426.0174
      2505.577        1952.398
  -2880463.697 9  -2219719.68948  22226107.000    22226106.9844   22226114.3764
      4442.867        3461.974
  -1785439.679 9  -1377070.37746  24089691.415    24089691.8344   24089699.3254
      2779.158        2165.578
    126294.933 9     97968.19048  21277207.924    21277208.0384   21277214.5284
      -322.092        -250.981
    173535.043 9     74851.59914  20903960.403    20903960.658           0.0001
      -472.501        -368.183
 96 10 28 16 36 59.9990000  0  8 23 31 21  3  1  9 17 28            -0.000026359
   -159604.747 9   -122333.82948  21051290.706    21051290.7834   21051296.7174
       156.408         121.876
  -1882117.674 9  -1434267.34246  24287290.247    24287290.9034   24287297.6804
      4279.500        3334.675
  -1544848.160 9  -1194711.82648  20994427.447    20994427.5094   20994433.9194
      2236.889        1743.030
  -1792177.967 9  -1380346.20348  21522167.905    21522168.3544   21522174.4654
      2486.553        1937.574
  -3013602.045 9  -2323463.84248  22200771.692    22200771.6454   22200778.9804
      4432.367        3453.792
  -1868631.106 9  -1441894.97846  24073860.393    24073861.0414   24073867.9454
      2766.324        2155.577
    136116.723 9    105621.50348  21279076.830    21279077.1364   21279083.5924
      -333.639        -259.978
    187983.190 9      2961.79419  20906709.796           0.0001   20906715.9471
      -491.555        -383.030
 96 10 28 16 37 29.9990000  0  8 23 31 21  3  1  9 17 28            -0.000051393
   -164186.906 9   -125904.36648  21050418.861    21050418.8424   21050424.8454
       148.987         116.094
  -2010343.123 9  -1534183.29946  24262890.195    24262890.3634   24262897.1274
      4268.363        3325.997
  -1611805.282 9  -1246886.21048  20981685.921    20981685.9974   20981692.4474
      2226.679        1735.075
  -1866490.190 9  -1438251.84648  21508026.801    21508027.1694   21508033.4004
      2467.115        1922.427
  -3146417.970 9  -2426956.76348  22175497.476    22175497.6624   22175504.9524
      4421.651        3445.442
  -1951433.573 9  -1506416.32246  24058103.246    24058104.2034   24058111.6894
      2753.278        2145.411
    146296.337 9    113553.63548  21281014.038    21281014.2834   21281020.7784
      -345.297        -269.062
    203008.272 9     14669.61619  20909568.918    20909569.4371   20909575.0661
      -510.418        -397.728
 96 10 28 16 37 59.9990000  0  8 23 31 21  3  1  9 17 28            -0.000076409
   -168545.899 9   -129300.99848  21049589.457    21049589.3974   21049595.4244
       141.748         110.453
  -2138216.978 9  -1633825.24446  24238556.918    24238556.7504   24238563.6134
      4256.763        3316.958
  -1678449.082 9  -1298816.44248  20969004.005    20969004.0644   20969010.5854
      2216.724        1727.317
  -1940191.045 9  -1495681.09148  21494001.957    21494002.3834   21494008.5824
      2446.447        1906.322
  -3278892.661 9  -2530183.78248  22150288.581    22150288.6314   22150295.8564
      4410.221        3436.536
  -2033821.353 9  -1570614.61046  24042424.986    24042426.2124   24042433.5584
      2739.549        2134.714
    156834.615 9    121765.25848  21283019.438    21283019.6814   21283026.2344
      -356.968        -278.157
    218610.404 9     26827.095 9  20912537.933    20912538.397    20912544.026
      -529.429        -412.542
 96 10 28 16 38 29.9990000  0  8 23 31 21  3  1  9 17 28            -0.000101396
   -172675.970 9   -132519.25948  21048803.467    21048803.4914   21048809.5154
       135.021         105.211
  -2265742.013 9  -1733195.36646  24214289.883    24214289.7094   24214296.4974
      4245.989        3308.563
  -1744804.394 9  -1350521.88448  20956377.220    20956377.0884   20956383.6404
      2208.446        1720.867
  -2013249.725 9  -1552609.94548  21480099.420    21480099.7934   21480105.9244
      2425.519        1890.015
  -3411017.156 9  -2633137.92948  22125145.980    22125146.2424   22125153.3904
      4399.511        3428.190
  -2115791.055 9  -1634487.11746  24026826.958    24026828.1204   24026834.9444
      2726.594        2124.619
    167740.019 9    130262.93548  21285094.720    21285094.9054   21285101.4634
      -368.818        -287.391
    234785.951 9     39431.380 9  20915616.001    20915616.504    20915622.165
      -547.554        -426.665
 96 10 28 16 38 59.9990000  0  8 23 31 21  3  1  9 17 28            -0.000126344
   -176565.095 9   -135549.76348  21048063.442    21048063.4604   21048069.4744
       125.504          97.795
  -2392894.430 9  -1832275.17346  24190092.955    24190093.2874   24190100.1204
      4232.169        3297.794
  -1810877.172 9  -1402007.16448  20943803.942    20943803.8684   20943810.4584
      2197.877        1712.631
  -2085636.363 9  -1609015.13048  21466324.409    21466325.0344   21466331.1844
      2401.877        1871.592
  -3542775.257 9  -2735806.57048  22100073.390    22100073.5694   22100080.7054
      4385.612        3417.360
  -2197341.470 8  -1698032.83546  24011308.362    24011309.4084   24011316.4804
      2711.610        2112.943
    179043.793 9    139071.04048  21287245.970    21287245.9444   21287252.4454
      -383.236        -298.625
    251542.306 9     52488.251 9  20918804.696    20918805.143    20918810.792
      -568.038        -442.627
 96 10 28 16 39 29.9990000  0  8 23 31 21  3  1  9 17 28            -0.000151251
   -180205.138 9   -138386.17748  21047370.695    21047370.8144   21047376.7934
       115.973          90.368
  -2519671.164 9  -1931062.27846  24165967.666    24165968.3984   24165975.2184
      4218.185        3286.897
  -1876683.910 9  -1453285.14448  20931281.126    20931281.2714   20931287.8424
      2187.964        1704.907
  -2157365.091 9  -1664907.66148  21452674.795    21452675.4814   21452681.6874
      2378.837        1853.639
  -3674155.372 9  -2838180.67848  22075072.344    22075072.7884   22075079.9254
      4371.845        3406.632
  -2278483.980 8  -1761260.69446  23995867.751    23995868.2874   23995875.7914
      2696.569        2101.223
    190728.774 9    148176.19448  21289469.175    21289469.5064   21289476.0474
      -397.030        -309.374
    268864.186 9     65985.788 9  20922101.072    20922101.382    20922107.006
      -588.072        -458.238
 96 10 28 16 39 59.9990000  0  8 23 31 21  3  1  9 17 28            -0.000176112
   -183584.835 9   -141019.72348  21046727.456    21046727.7014   21046733.6744
       107.420          83.704
  -2646050.942 9  -2029540.00946  24141918.064    24141919.1764   24141926.0244
      4205.298        3276.856
  -1942216.335 9  -1504349.37348  20918810.812    20918810.8254   20918817.3944
      2179.075        1697.981
  -2228438.668 9  -1720289.67548  21439150.347    21439150.7104   21439156.9454
      2357.879        1837.308
  -3805155.749 9  -2940258.87648  22050144.245    22050144.2594   22050151.3864
      4359.704        3397.172
  -2359196.355 9  -1824153.37246  23980508.987    23980509.3324   23980516.7494
      2682.444        2090.216
    202802.603 9    157584.35048  21291766.768    21291767.1154   21291773.5944
      -409.737        -319.276
    286764.839 9     79934.320 9  20925507.425    20925507.745    20925513.405
      -607.078        -473.048
 96 10 28 16 40 29.9990000  0  8 23 31 21  3  1  9 17 28            -0.000200949
   -186708.876 9   -143454.06048  21046133.066    21046133.2524   21046139.2404
        99.676          77.670
  -2772048.887 9  -2127720.21146  24117941.666    24117942.6274   24117949.3984
      4193.033        3267.298
  -2007487.483 9  -1555210.01148  20906389.959    20906390.1334   20906396.6614
      2170.909        1691.617
  -2298904.895 9  -1775198.42848  21425740.998    21425741.4434   21425747.7114
      2338.715        1822.375
  -3935798.739 9  -3042058.59948  22025283.644    22025283.7184   22025290.8454
      4348.511        3388.450
  -2439487.967 9  -1886718.16346  23965230.143    23965230.5584   23965237.7714
      2668.927        2079.683
    215259.519 9    167291.00248  21294137.552    21294137.6674   21294144.1354
      -421.961        -328.801
    305228.857 9     94321.832 9  20929021.089    20929021.380    20929027.039
      -625.124        -487.110
 96 10 28 16 40 59.9990000  0  8 23 31 21  3  1  9 17 28            -0.000225756
   -189573.046 9   -145685.89748  21045587.963    21045588.2424   21045594.2424
        91.446          71.257
  -2897637.919 9  -2225581.82646  24094042.626    24094043.8004   24094050.5114
      4179.712        3256.918
  -2072471.489 9  -1605846.90748  20894024.264    20894024.1174   20894030.6034
      2161.465        1684.258
  -2368779.064 9  -1829645.84248  21412443.971    21412444.8114   21412451.1544
      2319.715        1807.570
  -4066066.100 9  -3143565.63048  22000494.282    22000494.6774   22000501.7614
      4336.250        3378.896
  -2519335.940 9  -1948937.31346  23950035.682    23950035.9324   23950043.0884
      2654.272        2068.264
    228107.687 9    177302.52448  21296582.512    21296582.6374   21296589.1194
      -434.301        -338.416
    324266.481 9    109156.307 9  20932643.771    20932644.137    20932649.833
      -643.834        -501.689
 96 10 28 16 41 29.9990000  0  8 23 31 21  3  1  9 17 28            -0.000250543
   -192210.674 9   -147741.20748  21045086.132    21045086.3204   21045092.4174
        84.508          65.850
  -3022843.991 9  -2323144.99846  24070216.886    24070217.8364   24070224.5974
      4167.268        3247.222
  -2137188.946 9  -1656276.10448  20881708.767    20881708.8224   20881715.2684
      2153.003        1677.665
  -2438100.316 9  -1883662.41348  21399252.781    21399253.4574   21399259.7674
      2301.364        1793.271
  -4195992.377 9  -3244806.87148  21975770.224    21975770.5224   21975777.5604
      4325.474        3370.499
  -2598745.281 9  -2010814.66746  23934924.945    23934924.8214   23934932.0464
      2639.589        2056.823
    241305.622 9    187586.59748  21299093.986    21299094.1184   21299100.6404
      -445.736        -347.327
    343849.471 9    124415.747 9  20936370.278    20936370.726    20936376.382
      -661.772        -515.666
 96 10 28 16 41 59.9990000  0  8 23 31 21  3  1  9 17 28            -0.000275313
   -194645.869 9   -149638.78148  21044622.780    21044622.9284   21044629.0624
        77.940          60.732
  -3147680.083 9  -2420419.86746  24046461.677    24046462.4904   24046469.2624
      4155.072        3237.718
  -2201650.248 9  -1706505.69448  20869442.106    20869442.2254   20869448.7244
      2144.409        1670.968
  -2506863.453 9  -1937244.08648  21386167.619    21386168.3064   21386174.6004
      2282.753        1778.769
  -4325589.789 9  -3345791.85648  21951108.724    21951108.9014   21951115.9954
      4314.249        3361.752
  -2677709.163 9  -2072344.97546  23919898.896    23919898.4454   23919905.1784
      2624.758        2045.266
    254851.706 9    198141.95948  21301671.603    21301671.9284   21301678.4184
      -457.268        -356.313
    363970.708 9    140094.603 9  20940199.437    20940199.773    20940205.343
      -679.550        -529.519
 96 10 28 16 42 29.9990000  0  8 23 31 21  3  1  9 17 28            -0.000300042
   -196867.421 9   -151369.88248  21044200.014    21044200.2004   21044206.3684
        71.124          55.421
  -3272127.959 9  -2517392.23846  24022780.497    24022780.9784   24022787.4674
      4142.083        3227.597
  -2265828.047 9  -1756514.37348  20857229.489    20857229.5864   20857236.1414
      2134.945        1663.594
  -2575023.228 9  -1990355.60648  21373196.979    21373197.9184   21373204.2854
      2261.775        1762.422
  -4454813.934 9  -3446485.97748  21926518.074    21926518.3524   21926525.4724
      4301.566        3351.870
  -2756205.464 9  -2133510.85946  23904961.549    23904960.6844   23904968.0094
      2609.205        2033.147
    268765.663 9    208983.97848  21304319.389    21304319.7344   21304326.2034
      -469.587        -365.912
    384648.844 9    156207.403 9  20944134.470    20944134.742    20944140.281
      -698.097        -543.972
 96 10 28 16 42 59.9990000  0  8 23 31 21  3  1  9 17 28            -0.000324716
   -198895.430 9   -152950.16748  21043814.327    21043814.3474   21043820.4474
        65.080          50.712
  -3396188.753 9  -2614063.02246  23999172.995    23999173.0834   23999179.3884
      4129.581        3217.855
  -2329721.848 9  -1806301.76448  20845070.818    20845071.0014   20845077.6034
      2125.716        1656.402
  -2642536.617 9  -2042963.46248  21360349.909    21360350.5794   21360356.9634
      2239.998        1745.453
  -4583655.501 9  -3546881.99048  21902000.539    21902000.6724   21902007.7284
      4288.944        3342.034
  -2834233.431 9  -2194311.88746  23890113.242    23890112.4714   23890119.7154
      2593.701        2021.066
    283047.584 9    220112.72248  21307037.453    21307037.5364   21307044.0514
      -481.491        -375.188
    405880.709 9    172751.676 9  20948174.831    20948175.084    20948180.627
      -716.400        -558.234
 96 10 28 16 43 29.9990000  0  8 23 31 21  3  1  9 17 28            -0.000349347
   -200755.315 9   -154399.44349  21043460.391    21043460.4524   21043466.5884
        58.925          45.916
  -3519890.760 9  -2710454.18046  23975633.379    23975633.3664   23975639.5924
      4117.171        3208.185
  -2393357.234 9  -1855887.78848  20832961.377    20832961.6044   20832968.2324
      2116.573        1649.278
  -2709397.537 9  -2095062.89348  21347626.881    21347627.3964   21347633.7504
      2217.349        1727.804
  -4712137.878 9  -3646998.11548  21877551.316    21877551.3174   21877558.3514
      4276.464        3332.310
  -2911807.116 9  -2254758.88546  23875351.536    23875350.5424   23875357.8814
      2578.062        2008.879
    297668.878 9    231505.90748  21309819.786    21309819.8844   21309826.4744
      -493.381        -384.453
    427646.959 9    189712.356 9  20952316.841    20952317.121    20952322.707
      -734.651        -572.455
 96 10 28 16 43 59.9990000  0  8 23 31 21  3  1  9 17 28            -0.000373937
   -202427.573 9   -155702.51648  21043142.171    21043142.2434   21043148.3804
        52.601          40.988
  -3643225.665 9  -2806559.31246  23952163.443    23952163.4714   23952169.4734
      4105.177        3198.839
  -2456711.196 9  -1905254.51648  20820905.654    20820905.7694   20820912.3814
      2107.089        1641.888
  -2775578.556 9  -2146632.52748  21335033.096    21335033.6344   21335039.9254
      2194.950        1710.351
  -4840246.208 9  -3746822.76948  21853173.041    21853173.0824   21853180.1264
      4264.134        3322.702
  -2988919.197 9  -2314846.20946  23860677.378    23860676.6914   23860683.8254
      2563.014        1997.154
    312651.654 9    243180.76948  21312670.908    21312671.0694   21312677.6694
      -505.220        -393.678
    449956.997 9    207096.764 9  20956562.323    20956562.603    20956568.275
      -752.542        -586.396
 96 10 28 16 44 29.9990000  0  8 23 31 21  3  1  9 17 28            -0.000398499
   -203912.535 9   -156859.64748  21042859.690    21042859.7054   21042865.7904
        46.361          36.125
  -3766195.034 9  -2902379.61546  23928763.216    23928763.2034   23928769.2594
      4092.840        3189.226
  -2519784.453 9  -1954402.51548  20808903.146    20808903.3184   20808909.9354
      2097.971        1634.783
  -2841092.389 9  -2197682.27848  21322566.110    21322566.8044   21322573.0594
      2172.882        1693.155
  -4967992.027 9  -3846364.95648  21828863.546    21828863.8324   21828870.8604
      4252.541        3313.668
  -3065593.791 9  -2374592.65546  23846086.811    23846086.0654   23846093.0354
      2548.747        1986.037
    327978.122 9    255123.43748  21315587.406    21315587.6034   21315594.2454
      -516.476        -402.449
    472793.753 9    224891.603 9  20960907.955    20960908.334    20960914.045
      -769.791        -599.837
 96 10 28 16 44 59.9990000  0  8 23 31 21  3  1  9 17 28            -0.000423041
   -205177.420 9   -157845.28848  21042618.883    21042619.0244   21042625.0934
        38.421          29.938
  -3888774.962 9  -2997896.41646  23905436.690    23905436.8674   23905443.3434
      4079.639        3178.939
  -2582553.864 9  -2003313.75248  20796958.445    20796958.7164   20796965.3384
      2087.332        1626.492
  -2905935.280 9  -2248209.22148  21310227.174    21310227.5994   21310233.8444
      2150.794        1675.943
  -5095369.365 9  -3945620.01248  21804624.639    21804624.7874   21804631.7904
      4239.824        3303.759
  -3141819.976 9  -2433989.67746  23831581.136    23831580.7104   23831587.6524
      2533.630        1974.257
    343670.164 9    267350.97948  21318573.746    21318573.7094   21318580.3714
      -528.923        -412.148
    496171.709 9    243108.163 9  20965356.628    20965357.007    20965362.793
      -788.185        -614.170
 96 10 28 16 45 29.9990000  0  8 23 31 21  3  1  9 17 28            -0.000447585
   -206208.566 9   -158648.79648  21042422.771    21042422.8264   21042428.8694
        30.010          23.384
  -4010972.257 9  -3093115.11846  23882183.037    23882183.4134   23882189.8654
      4066.447        3168.660
  -2645020.436 9  -2051988.99948  20785071.583    20785071.7044   20785078.3754
      2076.812        1618.295
  -2970145.281 9  -2298242.99648  21298008.324    21298008.9004   21298015.0674
      2129.482        1659.337
  -5222380.241 9  -4044589.51348  21780455.082    21780455.4544   21780462.4734
      4227.157        3293.889
  -3217618.241 9  -2493053.25646  23817157.553    23817156.8714   23817163.5694
      2519.295        1963.087
    359718.513 9    279856.15748  21321627.556    21321627.6394   21321634.2494
      -541.473        -421.927
    520081.612 9    261739.219 9  20969906.603    20969906.898    20969912.779
      -806.123        -628.148
 96 10 28 16 45 59.9990000  0  8 23 31 21  3  1  9 17 28            -0.000472128
   -206990.222 9   -159257.90048  21042274.047    21042274.1144   21042280.1334
        21.805          16.991
  -4132770.552 9  -3188022.88746  23859005.725    23859005.9544   23859012.3444
      4052.765        3157.999
  -2707170.674 9  -2100417.76348  20773244.732    20773244.9374   20773251.6104
      2066.239        1610.056
  -3033716.877 9  -2347779.32548  21285911.334    21285911.6714   21285917.7984
      2108.249        1642.791
  -5349002.162 9  -4143255.93348  21756359.776    21756360.0714   21756367.1544
      4213.815        3283.492
  -3292986.326 9  -2551781.58546  23802815.366    23802814.6924   23802821.5584
      2504.745        1951.749
    376155.219 9    292663.94848  21324755.114    21324755.4054   21324762.0584
      -554.612        -432.165
    544531.485 9    280791.033 9  20974559.228    20974559.586    20974565.485
      -824.326        -642.332
 96 10 28 16 46 29.9990000  0  8 23 31 21  3  1  9 17 28            -0.000496673
   -207570.833 9   -159710.33948  21042163.613    21042163.6414   21042169.6504
        16.172          12.602
  -4254183.558 9  -3282630.41446  23835901.813    23835901.7064   23835908.2294
      4040.731        3148.622
  -2769045.592 9  -2148631.98148  20761470.421    20761470.5564   20761477.2284
      2058.100        1603.714
  -3096683.829 9  -2396844.49548  21273929.271    21273929.4654   21273935.6594
      2088.739        1627.589
  -5475251.620 9  -4241632.12248  21732335.405    21732335.5804   21732342.6754
      4202.084        3274.351
  -3367943.150 9  -2610189.47046  23788551.174    23788550.8884   23788557.9834
      2491.433        1941.376
    392958.487 9    305757.38148  21327952.420    21327952.9304   21327959.6284
      -566.483        -441.415
    569498.125 9    300245.534 9  20979310.159    20979310.576    20979316.472
      -840.873        -655.226
 96 10 28 16 46 59.9990000  0  8 23 31 21  3  1  9 17 28            -0.000521202
   -207962.709 9   -160015.71748  21042089.033    21042089.0804   21042095.0694
         9.297           7.244
  -4375213.912 9  -3376939.80146  23812870.125    23812870.5294   23812876.8294
      4027.219        3138.093
  -2830659.047 9  -2196642.46748  20749745.804    20749745.8964   20749752.5874
      2048.975        1596.604
  -3159041.459 9  -2445434.87148  21262062.638    21262063.2064   21262069.4364
      2067.861        1611.320
  -5601119.110 9  -4339710.67548  21708383.793    21708383.8284   21708390.8914
      4188.505        3263.770
  -3442464.955 9  -2668258.38146  23774369.811    23774369.9124   23774376.8694
      2476.031        1929.375
    410156.911 9    319158.72148  21331225.419    21331225.7234   21331232.4014
      -580.540        -452.369
    594987.196 9    320107.118 9  20984160.410    20984160.988    20984166.951
      -858.965        -669.323
 96 10 28 16 47 29.9990000  0  8 23 31 21  3  1  9 17 28            -0.000545705
   -208179.883 9   -160184.95948  21042047.637    21042047.7494   21042053.7314
         4.913           3.828
  -4495862.186 9  -3470951.43346  23789911.508    23789911.9024   23789918.1734
      4015.659        3129.085
  -2892037.656 9  -2244469.95848  20738065.782    20738065.9124   20738072.5964
      2042.633        1591.662
  -3220797.205 9  -2493556.24048  21250310.844    21250311.5254   21250317.6524
      2048.767        1596.442
  -5726614.838 9  -4437499.54048  21684502.615    21684502.7434   21684509.8534
      4177.592        3255.266
  -3516546.240 9  -2725984.03047  23760272.504    23760272.7954   23760279.6984
      2462.453        1918.795
    427745.244 9    332863.88348  21334572.641    21334572.6874   21334579.3694
      -592.233        -461.480
    620988.662 9    340367.964 9  20989108.290    20989108.933    20989114.966
      -874.751        -681.624
 96 10 28 16 47 59.9990000  0  8 23 31 21  3  1  9 17 28            -0.000570147
   -208192.005 9   -160194.41148  21042045.238    21042045.4304   21042051.4184
        -2.641          -2.058
  -4616079.396 9  -3564627.19946  23767035.253    23767035.2754   23767041.7254
      4000.131        3116.985
  -2953146.297 9  -2292087.08648  20726437.323    20726437.3274   20726444.0174
      2032.790        1583.992
  -3281896.627 9  -2541166.19148  21238684.158    21238684.7144   21238690.7624
      2026.059        1578.747
  -5851702.793 9  -4534970.65748  21660698.845    21660699.2534   21660706.3584
      4163.139        3244.004
  -3590132.979 9  -2783324.30046  23746269.153    23746269.7164   23746276.6594
      2445.015        1905.206
    445758.805 9    346900.40148  21338000.408    21338000.5964   21338007.2644
      -606.877        -472.891
    647546.946 9    361062.698 9  20994162.227    20994162.836    20994168.890
      -894.207        -696.785
 96 10 28 16 48 29.9990000  0  8 23 31 21  3  1  9 17 28            -0.000594554
   -208042.418 9   -160077.87248  21042073.813    21042073.8974   21042079.9254
        -7.248          -5.648
  -4735906.000 9  -3657998.60146  23744233.662    23744233.0584   23744239.3714
      3988.448        3107.881
  -3014034.760 9  -2339532.65548  20714850.504    20714850.6554   20714857.2944
      2026.481        1579.076
  -3342384.391 9  -2588299.53648  21227173.950    21227174.2964   21227180.3684
      2006.659        1563.630
  -5976429.616 9  -4632160.38448  21636963.977    21636964.4994   21636971.5804
      4152.176        3235.462
  -3663274.837 9  -2840317.93947  23732350.567    23732351.4094   23732358.2374
      2431.393        1894.592
    464131.312 9    361216.60148  21341496.396    21341496.8014   21341503.3944
      -617.723        -481.343
    674611.331 9    382151.798 9  20999312.495    20999313.044    20999319.059
      -909.819        -708.950
 96 10 28 16 48 59.9990000  0  8 23 31 21  3  1  9 17 28            -0.000618943
   -207702.620 9   -159813.11349  21042138.477    21042138.5704   21042144.6314
       -14.559         -11.345
  -4855336.780 9  -3751061.53646  23721506.459    23721506.2014   23721512.4314
      3974.380        3096.919
  -3074681.848 9  -2386790.13548  20703309.653    20703309.8874   20703316.5244
      2017.362        1571.970
  -3402251.998 9  -2634949.63548  21215781.401    21215781.8914   21215788.0254
      1985.417        1547.078
  -6100784.393 9  -4729060.20948  21613300.189    21613300.5484   21613307.5224
      4138.999        3225.194
  -3735970.422 9  -2896963.80346  23718516.870    23718517.8924   23718524.8394
      2416.032        1882.622
    482861.865 9    375811.81548  21345060.760    21345061.0954   21345067.6594
      -629.861        -490.801
    702183.597 9    403636.647 9  21004559.413    21004559.893    21004565.934
      -927.400        -722.649
 96 10 28 16 49 29.9990000  0  8 23 31 21  3  1  9 17 28            -0.000643326
   -207162.507 9   -159392.26349  21042241.325    21042241.3674   21042247.4694
       -21.703         -16.911
  -4974365.030 9  -3843810.82046  23698856.066    23698855.8994   23698862.1464
      3960.433        3086.052
  -3135062.579 9  -2433840.06148  20691819.708    20691819.7904   20691826.4544
      2007.658        1564.409
  -3461503.307 9  -2681119.50448  21204506.376    21204506.8134   21204512.8464
      1964.230        1530.569
  -6224759.193 9  -4825663.93848  21589708.489    21589708.8944   21589715.8214
      4125.615        3214.765
  -3808229.829 9  -2953269.78946  23704766.457    23704767.2844   23704774.2774
      2400.989        1870.901
    501915.823 9    390659.04148  21348686.755    21348686.9554   21348693.5054
      -640.803        -499.327
    730260.135 9    425514.432 9  21009902.181    21009902.670    21009908.826
      -944.693        -736.124
 96 10 28 16 49 59.9990000  0  8 23 31 21  3  1  9 17 28            -0.000667715
   -206429.832 9   -158821.36149  21042380.824    21042380.8294   21042386.9254
       -27.711         -21.593
  -5093002.179 9  -3936255.34246  23676279.810    23676280.1724   23676286.3804
      3947.899        3076.285
  -3195172.771 9  -2480679.17448  20680381.171    20680381.1874   20680387.8574
      1999.035        1557.690
  -3520137.523 9  -2726808.50648  21193348.723    21193349.1244   21193355.0404
      1944.009        1514.812
  -6348348.282 9  -4921967.10548  21566190.196    21566190.6034   21566197.6174
      4112.944        3204.891
  -3880059.868 9  -3009241.20046  23691098.261    23691098.5014   23691105.2394
      2386.891        1859.915
    521274.278 9    405743.52848  21352370.754    21352370.7834   21352377.3194
      -650.532        -506.908
    758830.107 9    447776.715 9  21015338.750    21015339.350    21015345.553
      -960.598        -748.518
 96 10 28 16 50 29.9990000  0  8 23 31 21  3  1  9 17 28            -0.000692092
   -205477.001 9   -158078.93149  21042562.051    21042562.1324   21042568.2764
       -33.793         -26.332
  -5211224.560 9  -4028376.68946  23653782.818    23653783.3604   23653789.5284
      3935.600        3066.701
  -3254981.828 9  -2527283.64948  20668999.855    20668999.9304   20669006.6094
      1990.148        1550.765
  -3578125.283 9  -2771993.79548  21182313.988    21182314.4204   21182320.3434
      1923.831        1499.089
  -6471519.645 9  -5017944.77748  21542751.252    21542751.8434   21542758.9124
      4100.404        3195.120
  -3951420.495 9  -3064846.85546  23677519.015    23677518.9224   23677525.6474
      2372.359        1848.591
    540969.122 9    421090.11948  21356118.390    21356118.6474   21356125.1294
      -660.619        -514.768
    787914.021 9    470439.467 9  21020873.507    21020873.873    21020880.044
      -976.416        -760.844
 96 10 28 16 50 59.9990000  0  8 23 31 21  3  1  9 17 28            -0.000716491
   -204349.747 9   -157200.56049  21042776.418    21042776.6814   21042782.8114
       -39.309         -30.630
  -5329079.697 9  -4120211.85946  23631355.954    23631356.2154   23631362.3424
      3923.476        3057.254
  -3314529.655 9  -2573684.55048  20657668.234    20657668.3844   20657675.0614
      1981.909        1544.345
  -3635520.623 9  -2816717.43948  21171392.054    21171392.4434   21171398.4844
      1904.565        1484.077
  -6594324.189 9  -5113636.61148  21519382.189    21519382.9594   21519390.0444
      4088.601        3185.923
  -4022344.980 9  -3120112.67446  23664022.826    23664022.4564   23664029.0694
      2358.055        1837.445
    560958.696 9    436666.39048  21359922.515    21359922.6494   21359929.0444
      -669.863        -521.971
    817468.045 9    493468.550 9  21026497.596    21026497.857    21026504.034
      -991.770        -772.808
 96 10 28 16 51 29.9990000  0  8 23 31 21  3  1  9 17 28            -0.000740898
   -203028.469 9   -156171.01848  21043027.827    21043028.1224   21043034.2534
       -47.316         -36.870
  -5446544.946 9  -4211743.23646  23609002.954    23609003.2544   23609009.4664
      3908.804        3045.821
  -3373811.001 9  -2619877.82348  20646387.353    20646387.5764   20646394.2304
      1971.717        1536.403
  -3692300.464 9  -2860961.49048  21160587.002    21160587.5504   21160593.7664
      1882.082        1466.557
  -6716746.229 9  -5209030.39748  21496086.274    21496086.8764   21496093.9704
      4074.297        3174.777
  -4092808.891 9  -3175019.60746  23650613.599    23650613.5584   23650620.1144
      2340.925        1824.097
    581254.023 9    452480.89048  21363784.670    21363784.8484   21363791.1864
      -682.009        -531.436
    847511.260 9    516878.802 9  21032214.652    21032214.920    21032221.099
     -1009.753        -786.821
 96 10 28 16 51 59.9990000  0  8 23 31 21  3  1  9 17 28            -0.000765302
   -201522.411 9   -154997.48348  21043314.527    21043314.7124   21043320.8034
       -53.315         -41.544
  -5563623.246 9  -4302973.09946  23586723.393    23586723.9164   23586730.1534
      3896.030        3035.868
  -3432849.169 9  -2665881.58748  20635152.875    20635153.0064   20635159.6934
      1963.875        1530.292
  -3748458.461 9  -2904720.97948  21149900.466    21149901.0444   21149907.3074
      1861.584        1450.585
  -6838796.638 9  -5304134.58348  21472860.848    21472861.5074   21472868.6564
      4062.067        3165.247
  -4162811.717 9  -3229567.26946  23637292.874    23637292.5414   23637298.9154
      2325.604        1812.159
    601874.816 9    468549.00948  21367708.593    21367708.9184   21367715.3264
      -693.119        -540.093
    878039.415 9    540666.944 9  21038024.131    21038024.289    21038030.356
     -1025.763        -799.296
 96 10 28 16 52 29.9990000  0  8 23 31 21  3  1  9 17 28            -0.000789698
   -199824.601 9   -153674.52848  21043637.535    21043637.7794   21043643.8254
       -59.200         -46.130
  -5680296.804 9  -4393887.55446  23564521.153    23564521.6564   23564527.9844
      3882.749        3025.519
  -3491633.905 9  -2711687.87448  20623966.573    20623966.6344   20623973.2814
      1955.938        1524.108
  -3803999.272 9  -2947999.54248  21139331.314    21139331.9554   21139338.2664
      1841.870        1435.223
  -6960467.650 9  -5398943.14448  21449707.577    21449708.3234   21449715.4934
      4049.986        3155.833
  -4232344.049 9  -3283748.28346  23624061.269    23624060.8574   23624067.4624
      2310.588        1800.458
    622848.315 9    484891.95948  21371699.793    21371700.0834   21371706.5504
      -704.358        -548.850
    909061.448 9    564839.929 9  21043927.369    21043927.594    21043933.556
     -1041.709        -811.721
 96 10 28 16 52 59.9990000  0  8 23 31 21  3  1  9 17 28            -0.000814074
   -197925.280 9   -152194.56048  21043998.920    21043999.1994   21044005.2614
       -67.041         -52.240
  -5796536.367 9  -4484463.84446  23542401.593    23542402.1614   23542408.5614
      3866.677        3012.995
  -3550161.990 9  -2757294.17048  20612828.966    20612829.0714   20612835.7714
      1946.223        1516.537
  -3858923.354 9  -2990797.53648  21128879.783    21128880.2564   21128886.5514
      1819.952        1418.144
  -7081748.001 9  -5493447.29148  21426628.657    21426629.4494   21426636.6204
      4035.572        3144.602
  -4301405.422 9  -3337562.34346  23610919.629    23610918.8534   23610925.5714
      2293.691        1787.292
    644183.005 9    501516.34648  21375759.584    21375759.9394   21375766.4434
      -717.662        -559.217
    940583.988 9    589402.910 9  21049925.600    21049926.135    21049932.075
     -1059.485        -825.573
 96 10 28 16 53 29.9990000  0  8 23 31 21  3  1  9 17 28            -0.000838435
   -195864.437 9   -150588.73148  21044391.039    21044391.3674   21044397.4734
       -73.177         -57.021
  -5912356.968 9  -4574713.64846  23520361.716    23520362.1584   23520368.8264
      3851.800        3001.403
  -3608462.945 9  -2802723.48948  20601734.587    20601734.7284   20601741.4584
      1937.598        1509.817
  -3913244.889 9  -3033126.02148  21118542.564    21118543.1474   21118549.5024
      1798.674        1401.564
  -7202660.162 9  -5587664.55248  21403619.979    21403620.6244   21403627.7684
      4022.467        3134.390
  -4370019.912 9  -3391028.22046  23597862.944    23597861.7944   23597868.6514
      2277.840        1774.940
    665857.318 9    518405.37648  21379884.083    21379884.3824   21379891.0384
      -730.237        -569.016
    972571.815 9    614328.449 9  21056012.809    21056013.270    21056019.191
     -1075.838        -838.315
 96 10 28 16 53 59.9990000  0  8 23 31 21  3  1  9 17 28            -0.000862741
   -193582.601 9   -148810.69848  21044825.179    21044825.5934   21044831.7644
       -79.029         -61.581
  -6027685.272 9  -4664579.88146  23498415.238    23498415.7724   23498422.6034
      3836.607        2989.564
  -3666459.683 9  -2847915.75148  20590698.153    20590698.3334   20590705.0204
      1928.789        1502.952
  -3966896.774 9  -3074932.69548  21108332.848    21108333.5344   21108339.9264
      1778.173        1385.589
  -7323142.378 9  -5681546.78948  21380692.898    21380693.6414   21380700.7084
      4009.647        3124.400
  -4438118.271 9  -3444091.85947  23584904.135    23584903.0044   23584910.0614
      2262.214        1762.764
    687952.588 9    535622.42148  21384088.688    21384088.9524   21384095.7564
      -742.749        -578.765
   1005088.699 9    639666.246 9  21062200.516    21062201.069    21062206.952
     -1091.958        -850.876
 96 10 28 16 54 29.9990000  0  8 23 31 21  3  1  9 17 28            -0.000887027
   -191135.866 9   -146904.17648  21045290.867    21045291.2224   21045297.4204
       -83.049         -64.713
  -6142565.228 9  -4754096.75846  23476554.767    23476554.8944   23476561.4704
      3823.148        2979.076
  -3724206.072 9  -2892912.94348  20579709.393    20579709.6104   20579716.2854
      1921.953        1497.626
  -4019947.261 9  -3116270.75148  21098237.788    21098238.3424   21098244.7704
      1759.259        1370.851
  -7443253.207 9  -5775139.62748  21357836.648    21357837.3354   21357844.3794
      3998.737        3115.899
  -4505761.615 9  -3496800.97246  23572031.943    23572030.9224   23572037.8014
      2248.413        1752.010
    710404.032 9    553117.00548  21388360.992    21388361.3024   21388368.2644
      -752.891        -586.668
   1038072.906 9    665368.198 9  21068477.148    21068477.792    21068483.676
     -1106.023        -861.836
 96 10 28 16 54 59.9990000  0  8 23 31 21  3  1  9 17 28            -0.000911300
   -188543.340 9   -144884.04648  21045784.195    21045784.5734   21045790.8134
       -90.019         -70.145
  -6257015.379 9  -4843278.67746  23454775.529    23454775.7834   23454782.2354
      3806.873        2966.395
  -3781715.001 9  -2937725.09748  20568765.771    20568766.0404   20568772.7424
      1911.748        1489.674
  -4072382.769 9  -3157129.60048  21088259.603    21088260.2074   21088266.6564
      1736.080        1352.790
  -7563005.228 9  -5868452.87448  21335048.601    21335049.2804   21335056.3174
      3984.491        3104.798
  -4572954.389 9  -3549158.98547  23559245.358    23559244.6214   23559251.4014
      2230.867        1738.338
    733188.377 9    570870.99848  21392696.508    21392697.0314   21392704.0584
      -766.287        -597.107
   1071509.480 9    691422.645 9  21074840.072    21074840.585    21074846.542
     -1123.305        -875.303
 96 10 28 16 55 29.9990000  0  8 23 31 21  3  1  9 17 28            -0.000935543
   -185767.821 9   -142721.31948  21046312.286    21046312.7744   21046318.9814
       -95.969         -74.781
  -6371022.859 9  -4932115.68046  23433080.138    23433080.8074   23433087.2214
      3792.729        2955.373
  -3838951.081 9  -2982324.64048  20557874.261    20557874.3544   20557881.1434
      1903.206        1483.018
  -4124150.229 9  -3197467.88848  21078408.403    21078409.1884   21078415.6704
      1714.279        1335.802
  -7682358.861 9  -5961455.69048  21312336.347    21312336.9734   21312344.0364
      3971.588        3094.744
  -4639650.144 9  -3601129.69347  23546553.542    23546552.9314   23546559.9534
      2214.755        1725.783
    756347.219 9    588916.80748  21397103.698    21397104.0414   21397111.1424
      -778.404        -606.548
   1105435.426 9    717858.412 9  21081296.096    21081296.465    21081302.574
     -1139.263        -887.737
 96 10 28 16 55 59.9990000  0  8 23 31 21  3  1  9 17 28            -0.000959772
   -182826.429 9   -140429.34248  21046872.122    21046872.5204   21046878.6874
      -101.309         -78.942
  -6484621.690 9  -5020634.25846  23411462.833    23411463.7384   23411470.0984
      3779.296        2944.906
  -3895953.691 9  -3026742.26648  20547026.919    20547027.1124   20547033.9364
      1895.836        1477.275
  -4175284.329 9  -3237312.65448  21068678.149    21068678.6904   21068685.1794
      1693.532        1319.635
  -7801328.118 9  -6054158.99548  21289697.394    21289697.8014   21289704.9604
      3958.465        3084.518
  -4705874.957 9  -3652733.43947  23533951.471    23533950.8824   23533957.8734
      2199.116        1713.597
    779854.983 9    607234.50348  21401577.546    21401577.4644   21401584.6184
      -789.789        -615.420
   1139824.196 9    744654.826 9  21087839.991    21087840.459    21087846.670
     -1154.429        -899.555
 96 10 28 16 56 29.9990000  0  8 23 31 21  3  1  9 17 28            -0.000983984
   -179715.427 9   -138005.20948  21047464.127    21047464.5164   21047470.6604
      -106.252         -82.794
  -6597818.601 9  -5108839.65846  23389922.665    23389923.1854   23389929.5274
      3766.801        2935.170
  -3952724.207 9  -3070979.04448  20536223.808    20536224.0894   20536230.9044
      1888.607        1471.642
  -4225774.815 9  -3276655.90848  21059070.214    21059070.6434   21059077.1454
      1672.276        1303.072
  -7919880.739 9  -6146537.64948  21267137.474    21267137.8904   21267145.1594
      3944.808        3073.876
  -4771617.194 9  -3703961.15347  23521440.980    23521440.5154   23521447.4404
      2183.454        1701.393
    803710.074 9    625822.84348  21406116.928    21406116.9614   21406124.1404
      -800.737        -623.951
   1174674.593 9    771810.941 9  21094471.848    21094472.255    21094478.573
     -1169.160        -911.034
 96 10 28 16 56 59.9990000  0  8 23 31 21  3  1  9 17 28            -0.001008193
   -176456.537 9   -135465.83148  21048084.468    21048084.7054   21048090.7934
      -111.866         -87.168
  -6710642.427 9  -5196754.33146  23368453.457    23368453.4744   23368459.9454
      3753.602        2924.885
  -4009284.024 9  -3115051.63448  20525460.783    20525461.1494   20525467.9794
      1881.297        1465.946
  -4275634.061 9  -3315507.28348  21049582.321    21049582.7394   21049589.2864
      1651.137        1286.600
  -8038021.929 9  -6238595.71848  21244655.943    21244656.3224   21244663.6334
      3930.390        3062.642
  -4836889.554 9  -3754822.73247  23509019.772    23509019.5444   23509026.4184
      2167.302        1688.807
    827892.535 9    644666.28248  21410718.382    21410718.7904   21410725.9164
      -812.302        -632.962
   1209962.696 9    799308.128 9  21101186.958    21101187.366    21101193.787
     -1184.172        -922.731
 96 10 28 16 57 29.9980000  0  8 23 31 21  3  1  9 17 28            -0.001032391
   -173033.744 9   -132798.73748  21048735.834    21048736.0744   21048742.1164
      -116.842         -91.046
  -6823060.430 9  -5284352.76946  23347061.027    23347060.9894   23347067.4904
      3740.545        2914.710
  -4065630.273 9  -3158957.80848  20514738.374    20514738.7344   20514745.6134
      1874.667        1460.779
  -4324882.559 9  -3353882.75548  21040210.650    21040211.0924   21040217.6824
      1631.838        1271.562
  -8155727.381 9  -6330314.24548  21222257.217    21222257.7194   21222264.9564
      3916.451        3051.780
  -4901692.209 9  -3805318.33147  23496688.040    23496688.0624   23496694.8394
      2152.559        1677.319
    852419.774 9    663778.37748  21415386.066    21415386.2164   21415393.3324
      -823.375        -641.591
   1245691.121 9    827148.429 9  21107985.972    21107986.318    21107992.807
     -1198.290        -933.732
 96 10 28 16 57 59.9980000  0  8 23 31 21  3  1  9 17 28            -0.001056576
   -169431.429 9   -129991.76048  21049421.405    21049421.6134   21049427.6664
      -122.037         -95.094
  -6935049.974 9  -5371617.37446  23325749.787    23325750.0804   23325756.5374
      3726.542        2903.799
  -4121741.666 9  -3202680.98448  20504060.534    20504061.0184   20504067.9024
      1867.136        1454.911
  -4373526.485 9  -3391787.13548  21030954.064    21030954.5034   21030961.0704
      1612.295        1256.334
  -8272987.439 9  -6421685.72448  21199943.443    21199943.9394   21199951.0254
      3902.074        3040.577
  -4966015.064 9  -3855440.03847  23484447.046    23484447.8074   23484454.6824
      2137.011        1665.203
    877306.487 9    683170.57848  21420122.008    21420122.0404   21420129.1974
      -834.494        -650.255
   1281872.951 9    855342.022 9  21114871.193    21114871.491    21114878.062
     -1212.695        -944.957
 96 10 28 16 58 29.9980000  0  8 23 31 21  3  1  9 17 28            -0.001080716
   -165606.877 9   -127011.61248  21050149.307    21050149.4874   21050155.5234
      -130.760        -101.891
  -7046546.410 9  -5458497.71246  23304532.471    23304533.1124   23304539.4344
      3708.554        2889.782
  -4177554.757 9  -3246171.71748  20493439.627    20493440.0994   20493446.9234
      1855.803        1446.080
  -4421513.609 9  -3429179.71648  21021822.376    21021822.9094   21021829.3984
      1588.959        1238.150
  -8389757.256 9  -6512675.19448  21177723.116    21177723.4604   21177730.4214
      3884.830        3027.140
  -5029815.086 9  -3905154.33247  23472306.533    23472307.0874   23472313.9744
      2118.457        1650.746
    902592.733 9    702874.10648  21424933.841    21424933.8814   21424941.0454
      -849.201        -661.715
   1318555.843 9    883926.056 9  21121851.843    21121852.021    21121858.620
     -1230.797        -959.062
 96 10 28 16 58 59.9980000  0  8 23 31 21  3  1  9 17 28            -0.001104840
   -161608.430 9   -123895.95648  21050910.281    21050910.4274   21050916.4424
      -135.011        -105.203
  -7157576.728 9  -5545014.84446  23283403.826    23283404.7664   23283410.8484
      3694.455        2878.796
  -4233123.868 9  -3289472.33448  20482865.174    20482865.6834   20482872.4294
      1849.527        1441.190
  -4468898.366 9  -3466102.92348  21012805.417    21012805.9094   21012812.3844
      1570.768        1223.975
  -8506108.004 9  -6603338.10248  21155582.425    21155582.6644   21155589.5854
      3872.657        3017.655
  -5093146.139 9  -3954503.20947  23460254.767    23460255.5964   23460262.4704
      2104.410        1639.800
    928232.013 9    722852.72748  21429813.000    21429812.9154   21429820.0504
      -859.204        -669.510
   1355693.722 9    912864.626 9  21128918.924    21128919.170    21128925.755
     -1244.242        -969.539
 96 10 28 16 59 29.9980000  0  8 23 31 21  3  1  9 17 28            -0.001128973
   -157473.310 9   -120673.80148  21051697.187    21051697.3534   21051703.3414
      -140.714        -109.647
  -7268184.049 9  -5631202.36146  23262356.136    23262356.7874   23262363.0334
      3679.463        2867.114
  -4288481.524 9  -3332608.17848  20472331.032    20472331.5364   20472338.2464
      1840.878        1434.450
  -4515712.452 9  -3502581.45048  21003896.778    21003897.5324   21003903.9874
      1549.995        1207.788
  -8622080.407 9  -6693706.19248  21133513.373    21133513.8354   21133520.7644
      3859.017        3007.026
  -5156041.474 9  -4003512.57947  23448286.291    23448287.0674   23448293.9654
      2088.594        1627.476
    954180.913 9    743072.61248  21434750.925    21434750.8404   21434758.0164
      -870.576        -678.371
   1393248.607 9    942128.135 9  21136065.393    21136065.708    21136072.216
     -1259.391        -981.344
 96 10 28 16 59 59.9980000  0  8 23 31 21  3  1  9 17 28            -0.001153098
   -153161.119 9   -117313.67348  21052517.727    21052517.9144   21052523.9374
      -146.370        -114.055
  -7378336.940 9  -5717035.81146  23241394.463    23241395.4834   23241401.5334
      3664.190        2855.213
  -4343571.548 9  -3375535.48148  20461847.902    20461848.3444   20461855.0144
      1832.020        1427.548
  -4561877.466 9  -3538554.21748  20995112.270    20995112.6764   20995119.0444
      1527.897        1190.569
  -8737637.565 9  -6783750.72448  21111523.715    21111524.0504   21111530.9744
      3844.999        2996.103
  -5218448.876 9  -4052141.71447  23436410.502    23436411.4154   23436418.1784
      2072.246        1614.737
    980465.226 9    763553.85848  21439752.188    21439752.6314   21439759.7974
      -881.610        -686.969
   1431265.053 9    971751.300 9  21143299.503    21143300.050    21143306.463
     -1274.825        -993.370
 96 10 28 17  0 29.9980000  0  8 23 31 21  3  1  9 17 28            -0.001177208
   -148682.362 9   -113823.75348  21053369.960    21053370.1934   21053376.2684
      -152.368        -118.728
  -7488031.168 9  -5802511.84246  23220520.467    23220521.4014   23220527.1934
      3648.752        2843.183
  -4398393.669 9  -3418254.02348  20451415.665    20451416.0244   20451422.7434
      1822.624        1420.226
  -4607374.288 9  -3574006.30548  20986454.308    20986454.9464   20986461.2704
      1505.068        1172.780
  -8852777.106 9  -6873469.83948  21089613.422    21089613.7464   21089620.6324
      3830.790        2985.031
  -5280371.255 9  -4100392.92047  23424627.609    23424628.0244   23424634.7884
      2055.578        1601.749
   1007086.469 9    784297.64248  21444818.076    21444818.5574   21444825.6934
      -893.380        -696.140
   1469743.614 9   1001734.561 9  21150621.688    21150622.372    21150628.696
     -1290.509       -1005.591
 96 10 28 17  0 59.9980000  0  8 23 31 21  3  1  9 17 28            -0.001201338
   -144073.339 9   -110232.32348  21054247.167    21054247.2524   21054253.3514
      -157.084        -122.403
  -7597328.715 9  -5887678.77046  23199722.022    23199722.8294   23199728.5924
      3635.579        2832.919
  -4452983.046 9  -3460791.20448  20441027.532    20441027.9604   20441034.7114
      1814.370        1413.795
  -4652241.725 9  -3608967.96748  20977916.693    20977916.9634   20977923.3134
      1483.974        1156.343
  -8967534.056 9  -6962890.83348  21067775.757    21067776.2174   21067783.0354
      3817.317        2974.533
  -5341831.287 9  -4148283.83047  23412932.382    23412932.5274   23412939.4454
      2039.549        1589.259
   1034010.017 9    805276.99748  21449941.488    21449942.0184   21449949.0354
      -903.689        -704.173
   1508636.602 9   1032040.743 9  21158022.970    21158023.538    21158029.825
     -1304.487       -1016.483
 96 10 28 17  1 29.9980000  0  8 23 31 21  3  1  9 17 28            -0.001225486
   -139313.881 9   -106523.68348  21055152.760    21055152.9184   21055159.0844
      -160.403        -124.989
  -7706216.209 9  -5972526.18146  23179001.570    23179002.2974   23179008.0714
      3623.137        2823.224
  -4507304.521 9  -3503119.64048  20430690.553    20430690.8944   20430697.6234
      1807.005        1408.056
  -4696466.139 9  -3643428.57848  20969500.978    20969501.3484   20969507.7714
      1464.268        1140.988
  -9081869.220 9  -7051983.16848  21046018.683    21046018.9454   21046025.7104
      3804.903        2964.859
  -5402795.995 9  -4195788.78047  23401330.858    23401331.2384   23401338.3594
      2024.669        1577.664
   1061256.927 9    826508.31448  21455126.466    21455126.9614   21455134.0064
      -912.999        -711.428
   1547963.228 9   1062684.826 9  21165506.668    21165507.178    21165513.443
     -1317.426       -1026.566
 96 10 28 17  1 59.9980000  0  8 23 31 21  3  1  9 17 28            -0.001249647
   -134413.913 9   -102705.54948  21056085.258    21056085.4034   21056091.5474
      -166.127        -129.450
  -7814680.727 9  -6057043.97946  23158361.674    23158362.1894   23158368.1374
      3607.881        2811.336
  -4561374.106 9  -3545251.79248  20420401.542    20420401.8494   20420408.5054
      1797.737        1400.834
  -4740071.765 9  -3677407.01048  20961202.957    20961203.5024   20961209.9384
      1442.982        1124.401
  -9195788.467 9  -7140751.41048  21024340.576    21024340.8244   21024347.5554
      3789.651        2952.975
  -5463277.817 9  -4242917.45747  23389821.359    23389821.9074   23389829.1164
      2007.463        1564.257
   1088826.558 9    847991.10348  21460372.820    21460373.3094   21460380.3364
      -925.000        -720.779
   1587715.137 9   1093660.301 9  21173071.124    21173071.713    21173077.953
     -1332.605       -1038.394
 96 10 28 17  2 29.9980000  0  8 23 31 21  3  1  9 17 28            -0.001273836
   -129397.911 9    -98796.99648  21057039.741    21057039.8884   21057046.0424
      -168.723        -131.472
  -7922750.318 9  -6141254.05946  23137796.824    23137797.2344   23137803.1344
      3596.233        2802.259
  -4615229.985 9  -3587217.41748  20410153.142    20410153.4534   20410160.0554
      1792.317        1396.611
  -4783111.251 9  -3710944.29348  20953012.989    20953013.3704   20953019.8004
      1425.883        1111.078
  -9309307.236 9  -7229207.58448  21002738.435    21002738.8694   21002745.6614
      3777.913        2943.828
  -5523298.468 9  -4289686.79247  23378399.963    23378400.3784   23378407.5294
      1993.443        1553.332
   1116702.840 9    869712.82748  21465677.650    21465678.0074   21465685.0294
      -933.685        -727.547
   1627857.761 9   1124940.223 9  21180709.982    21180710.588    21180716.851
     -1343.940       -1047.226
 96 10 28 17  2 59.9980000  0  8 23 31 21  3  1  9 17 28            -0.001298014
   -124204.553 9    -94750.24848  21058027.932    21058028.1984   21058034.3304
      -176.547        -137.569
  -8030359.743 9  -6225105.58846  23117319.008    23117319.8614   23117325.6644
      3578.289        2788.277
  -4668832.079 9  -3628985.29548  20399952.959    20399953.3354   20399959.9124
      1782.135        1388.677
  -4825549.601 9  -3744013.16548  20944937.421    20944937.6364   20944944.0594
      1404.120        1094.119
  -9422373.947 9  -7317311.50348  20981222.454    20981222.9484   20981229.7594
      3760.778        2930.476
  -5582799.588 9  -4336051.26347  23367077.458    23367077.4844   23367084.8204
      1974.265        1538.388
   1144934.537 9    891711.51048  21471049.945    21471050.3254   21471057.3294
      -947.474        -738.291
   1668436.747 9   1156560.167 9  21188431.869    21188432.512    21188438.781
     -1360.459       -1060.098
 96 10 28 17  3 29.9980000  0  8 23 31 21  3  1  9 17 28            -0.001322166
   -118850.448 9    -90578.23948  21059046.975    21059047.1004   21059053.1234
      -179.590        -139.940
  -8137485.693 9  -6308580.35746  23096933.730    23096934.5404   23096940.3324
      3564.046        2777.179
  -4722205.550 9  -3670575.01848  20389796.254    20389796.6924   20389803.2634
      1776.916        1384.610
  -4867395.669 9  -3776620.51048  20936974.379    20936974.6564   20936981.0324
      1386.124        1080.097
  -9535004.455 9  -7405075.52348  20959789.761    20959790.0744   20959796.8994
      3748.658        2921.032
  -5641798.198 9  -4382024.17947  23355850.331    23355850.3974   23355857.8174
      1959.742        1527.072
   1173508.745 9    913977.08648  21476487.225    21476487.8384   21476494.7994
      -956.835        -745.586
   1709440.752 9   1188511.299 9  21196234.798    21196235.328    21196241.578
     -1372.390       -1069.395
 96 10 28 17  3 59.9980000  0  8 23 31 21  3  1  9 17 28            -0.001346286
   -113345.916 9    -86289.02148  21060094.553    21060094.6094   21060100.6324
      -186.371        -145.224
  -8244132.935 9  -6391682.11646  23076639.362    23076640.1504   23076645.9604
      3546.768        2763.715
  -4775367.954 9  -3712000.27448  20379679.629    20379680.2004   20379686.7634
      1768.224        1377.837
  -4908635.884 9  -3808755.76048  20929126.566    20929126.9624   20929133.2744
      1364.157        1062.979
  -9647212.917 9  -7492510.67948  20938437.242    20938437.5424   20938444.3654
      3732.984        2908.819
  -5700300.516 9  -4427610.38747  23344717.293    23344717.6804   23344725.2834
      1941.290        1512.694
   1202426.840 9    936510.63448  21481990.426    21481990.8264   21481997.7214
      -970.075        -755.903
   1750856.468 9   1220783.246 9  21204115.686    21204116.499    21204122.751
     -1387.672       -1081.303
 96 10 28 17  4 29.9980000  0  8 23 31 21  3  1  9 17 28            -0.001370351
   -107662.231 9    -81860.20548  21061175.906    21061176.1834   21061182.1784
      -191.804        -149.458
  -8350277.279 9  -6474392.00547  23056440.926    23056441.6444   23056447.3474
      3530.029        2750.672
  -4828299.944 9  -3753245.99248  20369607.037    20369607.5974   20369614.1194
      1761.100        1372.286
  -4949236.556 9  -3840392.67248  20921400.445    20921400.9154   20921407.2034
      1343.096        1046.568
  -9758987.157 9  -7579607.48148  20917167.222    20917167.6174   20917174.4244
      3719.277        2898.138
  -5758268.580 9  -4472780.31047  23333686.503    23333686.7764   23333694.3054
      1924.028        1499.243
   1231719.269 9    959335.86148  21487564.952    21487565.0494   21487571.8684
      -982.152        -765.313
   1792706.431 9   1253393.563 9  21212079.449    21212080.279    21212086.570
     -1401.759       -1092.280
 96 10 28 17  4 59.9980000  0  8 23 31 21  3  1  9 17 28            -0.001394384
   -101850.223 9    -77331.38148  21062281.904    21062282.1414   21062288.1284
      -195.173        -152.083
  -8455947.139 9  -6556732.16147  23036332.446    23036333.3294   23036339.1824
      3515.104        2739.042
  -4881041.351 9  -3794343.19748  20359570.800    20359571.3034   20359577.7604
      1755.353        1367.808
  -4989226.712 9  -3871553.85348  20913790.437    20913791.0444   20913797.3604
      1323.201        1031.066
  -9870378.820 9  -7666406.16848  20895970.106    20895970.4964   20895977.2744
      3707.073        2888.628
  -5815754.252 9  -4517574.32347  23322747.069    23322747.5914   23322755.1004
      1908.776        1487.358
   1261350.532 9    982425.12948  21493203.945    21493203.7154   21493210.4794
      -992.795        -773.606
   1834952.117 9   1286312.235 9  21220118.538    21220119.364    21220125.724
     -1414.244       -1102.008
 96 10 28 17  5 29.9980000  0  8 23 31 21  3  1  9 17 28            -0.001418406
    -95932.113 9    -72719.89448  21063407.926    21063408.2754   21063414.3684
      -198.840        -154.940
  -8561179.030 9  -6638731.03547  23016307.241    23016308.1634   23016314.2444
      3500.909        2727.981
  -4933604.861 9  -3835301.79248  20349568.223    20349568.7924   20349575.2574
      1749.283        1363.078
  -5028607.098 9  -3902239.89348  20906296.593    20906297.2364   20906303.5884
      1302.769        1015.145
  -9981397.600 9  -7752914.30648  20874843.992    20874844.3194   20874851.0694
      3694.722        2879.004
  -5872785.143 9  -4562013.95947  23311894.440    23311894.9004   23311902.5164
      1893.867        1475.741
   1291300.811 9   1005762.96048  21498903.236    21498903.0734   21498909.8964
     -1003.358        -781.837
   1877574.312 9   1319524.282 9  21228229.348    21228230.117    21228236.518
     -1426.627       -1111.657
 96 10 28 17  5 59.9980000  0  8 23 31 21  3  1  9 17 28            -0.001442438
    -89888.624 9    -68010.69948  21064557.875    21064558.2994   21064564.3874
      -203.091        -158.253
  -8665984.231 9  -6720397.42847  22996363.848    22996364.4664   22996370.5824
      3486.888        2717.055
  -4985972.145 9  -3876107.47548  20339603.259    20339603.6384   20339610.1354
      1742.762        1357.996
  -5067374.361 9  -3932448.16348  20898919.475    20898920.0604   20898926.4934
      1282.748         999.544
 -10092030.448 9  -7839121.71348  20853791.193    20853791.5484   20853798.2934
      3681.772        2868.913
  -5929366.039 9  -4606102.97047  23301127.551    23301127.8034   23301135.3514
      1879.151        1464.274
   1321571.360 9   1029350.37248  21504663.202    21504663.4034   21504670.2474
     -1013.536        -789.768
   1920575.126 9   1353031.371 9  21236412.343    21236412.937    21236419.369
     -1439.145       -1121.412
 96 10 28 17  6 29.9980000  0  8 23 31 21  3  1  9 17 28            -0.001466480
    -83703.304 9    -63190.99748  21065735.084    21065735.3474   21065741.4394
      -209.946        -163.594
  -8770338.716 9  -6801712.63247  22976505.963    22976506.4724   22976512.6374
      3469.554        2703.549
  -5038116.157 9  -3916739.18348  20329680.508    20329680.9384   20329687.5064
      1732.722        1350.173
  -5105515.815 9  -3962168.79848  20891661.375    20891661.9684   20891668.4974
      1259.394         981.346
 -10202244.193 9  -7925002.54848  20832817.948    20832818.5584   20832825.2924
      3665.055        2855.887
  -5985489.555 9  -4649835.57447  23290447.628    23290447.8414   23290455.3284
      1861.877        1450.813
   1352158.708 9   1053184.62848  21510483.545    21510484.0134   21510490.8924
     -1026.123        -799.576
   1963973.048 9   1386847.887 9  21244670.765    21244671.301    21244677.763
     -1454.623       -1133.472
 96 10 28 17  6 59.9980000  0  8 23 31 21  3  1  9 17 28            -0.001490575
    -77405.288 9    -58283.48048  21066933.541    21066933.8804   21066939.9444
      -212.580        -165.647
  -8874282.161 9  -6882707.53547  22956725.999    22956726.6574   22956733.0024
      3457.403        2694.080
  -5090041.101 9  -3957200.19048  20319799.390    20319799.9384   20319806.5514
      1726.395        1345.243
  -5143055.353 9  -3991420.41048  20884517.845    20884518.4694   20884525.0074
      1240.716         966.792
 -10312038.024 9  -8010556.18548  20811924.930    20811925.4984   20811932.2164
      3651.949        2845.675
  -6041186.286 9  -4693235.65547  23279848.589    23279849.1284   23279856.4734
      1848.561        1440.437
   1383018.136 9   1077230.89748  21516355.879    21516356.3844   21516363.2944
     -1033.679        -805.464
   2007734.431 9   1420947.615 9  21252998.339    21252998.809    21253005.288
     -1465.342       -1141.825
 96 10 28 17  7 29.9980000  0  8 23 31 21  3  1  9 17 28            -0.001514730
    -70979.007 9    -53276.01148  21068156.393    21068156.8304   21068162.8714
      -216.994        -169.086
  -8977814.408 9  -6963382.01347  22937024.230    22937025.0914   22937031.6584
      3443.383        2683.156
  -5141731.617 9  -3997478.52048  20309963.064    20309963.5554   20309970.2064
      1718.464        1339.063
  -5179998.685 9  -4020207.43648  20877487.922    20877488.4524   20877494.9314
      1221.071         951.484
 -10421395.840 9  -8095770.05548  20791114.970    20791115.3834   20791122.1204
      3637.485        2834.404
  -6096426.828 9  -4736280.24647  23269336.248    23269337.2444   23269344.5364
      1832.767        1428.130
   1414141.311 9   1101482.68148  21522277.976    21522278.9294   21522285.9054
     -1042.552        -812.378
   2051859.368 9   1455330.639 9  21261394.795    21261395.507    21261401.989
     -1477.525       -1151.318
 96 10 28 17  7 59.9980000  0  8 23 31 21  3  1  9 17 28            -0.001538907
    -64410.024 9    -48157.35148  21069406.536    21069406.8884   21069412.9494
      -220.515        -171.830
  -9080898.692 9  -7043707.43747  22917408.239    22917408.8584   22917415.4194
      3429.039        2671.978
  -5193166.946 9  -4037558.01048  20300175.408    20300175.7764   20300182.4064
      1710.982        1333.233
  -5216336.345 9  -4048522.51648  20870572.958    20870573.6084   20870580.1354
      1201.740         936.421
 -10530300.617 9  -8180630.91948  20770390.995    20770391.4614   20770398.2584
      3623.166        2823.246
  -6151156.022 9  -4778926.37747  23258921.695    23258922.6224   23258929.8544
      1816.118        1415.157
   1445555.012 9   1125960.85548  21528255.886    21528256.7694   21528263.6814
     -1051.378        -819.255
   2096373.160 9   1490016.664 9  21269865.689    21269866.226    21269872.697
     -1489.718       -1160.819
 96 10 28 17  8 29.9980000  0  8 23 31 21  3  1  9 17 28            -0.001563093
    -57721.181 9    -42945.28948  21070679.437    21070679.8094   21070685.8524
      -224.677        -175.073
  -9183534.661 9  -7123683.51847  22897877.288    22897877.8094   22897884.4474
      3414.141        2660.370
  -5244359.969 9  -4077448.68348  20290433.751    20290434.1214   20290440.6814
      1702.831        1326.881
  -5252073.641 9  -4076369.78848  20863772.524    20863773.0334   20863779.5334
      1181.709         920.812
 -10638759.966 9  -8265144.69648  20749751.699    20749752.3024   20749759.1374
      3608.434        2811.767
  -6205357.869 9  -4821161.59247  23248607.300    23248608.2904   23248615.6534
      1798.263        1401.244
   1477263.872 9   1150669.01648  21534290.211    21534290.8054   21534297.6584
     -1061.769        -827.352
   2141269.805 9   1525001.019 9  21278409.386    21278409.788    21278416.267
     -1502.504       -1170.782
 96 10 28 17  8 59.9980000  0  8 23 31 21  3  1  9 17 28            -0.001587285
    -50912.866 9    -37640.13348  21071975.158    21071975.4344   21071981.5424
      -228.006        -177.667
  -9285722.831 9  -7203310.68347  22878431.329    22878432.0334   22878438.6934
      3399.320        2648.821
  -5295323.611 9  -4117160.61848  20280735.715    20280736.0654   20280742.6364
      1696.086        1321.625
  -5287230.349 9  -4103764.63848  20857082.154    20857082.9594   20857089.4024
      1163.092         906.305
 -10746794.250 9  -8349327.24948  20729193.467    20729194.0254   20729200.9154
      3595.044        2801.333
  -6259029.406 9  -4862983.58947  23238394.465    23238394.9604   23238402.3484
      1780.921        1387.731
   1509284.516 9   1175620.12648  21540383.763    21540384.1264   21540390.9194
     -1071.942        -835.279
   2186539.079 9   1560275.735 9  21287023.695    21287024.248    21287030.746
     -1514.366       -1180.025
 96 10 28 17  9 29.9980000  0  8 23 31 21  3  1  9 17 28            -0.001611476
    -44029.459 9    -32276.46648  21073284.924    21073285.2794   21073291.4584
      -232.009        -180.786
  -9387481.727 9  -7282603.34547  22859067.214    22859068.0254   22859074.5474
      3383.456        2636.459
  -5346121.918 9  -4156743.72148  20271069.027    20271069.4194   20271076.0254
      1689.398        1316.414
  -5321844.792 9  -4130736.95848  20850495.440    20850496.0344   20850502.4644
      1143.360         890.930
 -10854458.333 9  -8433221.33748  20708705.752    20708706.2344   20708713.1304
      3581.457        2790.746
  -6312205.349 9  -4904419.41847  23228275.398    23228275.9144   23228283.1954
      1763.098        1373.842
   1541596.669 9   1200798.38648  21546532.556    21546532.9354   21546539.7854
     -1083.363        -844.179
   2232143.334 9   1595811.473 9  21295701.885    21295702.464    21295708.984
     -1526.994       -1189.865
 96 10 28 17  9 59.9980000  0  8 23 31 21  3  1  9 17 28            -0.001635643
    -37034.014 9    -26825.49648  21074616.040    21074616.4554   21074622.6614
      -235.010        -183.125
  -9488779.704 9  -7361536.85547  22839790.926    22839791.7424   22839798.2274
      3369.167        2625.325
  -5396734.420 9  -4196182.04248  20261437.830    20261438.1524   20261444.8114
      1684.148        1312.323
  -5355871.086 9  -4157250.97648  20844020.181    20844021.0254   20844027.4654
      1124.493         876.228
 -10961723.356 9  -8516804.47548  20688293.875    20688294.3784   20688301.3004
      3568.916        2780.974
  -6364866.621 9  -4945454.17847  23218254.207    23218254.7804   23218261.9834
      1747.366        1361.584
   1574244.623 9   1226238.31048  21552745.361    21552745.6694   21552752.5554
     -1093.636        -852.184
   2278112.411 9   1631631.479 9  21304449.648    21304450.140    21304456.671
     -1538.081       -1198.505
 96 10 28 17 10 29.9980000  0  8 23 31 21  3  1  9 17 28            -0.001659789
    -29893.879 9    -21261.78348  21075974.753    21075975.1604   21075981.4154
      -239.479        -186.607
  -9589599.295 9  -7440097.58447  22820605.805    22820606.4544   22820612.9484
      3353.588        2613.185
  -5447141.950 9  -4235460.63748  20251845.653    20251845.9124   20251852.6154
      1677.793        1307.371
  -5389286.999 9  -4183289.36848  20837661.253    20837662.2594   20837668.6774
      1104.718         860.819
 -11068563.172 9  -8600056.27448  20667962.969    20667963.4344   20667970.4184
      3555.129        2770.230
  -6417023.621 9  -4986096.00447  23208329.055    23208329.6814   23208336.7674
      1731.207        1348.992
   1607242.808 9   1251951.13748  21559024.654    21559024.9144   21559032.0024
     -1104.705        -860.809
   2324454.959 9   1667742.512 9  21313268.580    21313268.904    21313275.415
     -1549.932       -1207.739
 96 10 28 17 10 59.9980000  0  8 23 31 21  3  1  9 17 28            -0.001683939
    -22632.909 9    -15603.90748  21077356.541    21077356.8844   21077363.1714
      -243.789        -189.965
  -9689962.930 9  -7518303.00947  22801507.102    22801507.8224   22801514.3844
      3338.077        2601.099
  -5497366.576 9  -4274596.72148  20242288.228    20242288.5164   20242295.2324
      1671.366        1302.363
  -5422119.078 9  -4208872.83448  20831413.361    20831414.5344   20831421.0104
      1084.733         845.246
 -11174989.211 9  -8682985.64648  20647710.679    20647711.2234   20647718.3014
      3540.675        2758.968
  -6468703.957 9  -5026366.38947  23198494.608    23198495.3724   23198502.4274
      1714.907        1336.291
   1640555.300 9   1277908.88448  21565363.783    21565364.0734   21565371.2834
     -1115.288        -869.056
   2371141.718 9   1704121.751 9  21322152.575    21322153.163    21322159.656
     -1561.691       -1216.902
 96 10 28 17 11 29.9980000  0  8 23 31 21  3  1  9 17 28            -0.001708098
    -15246.799 9     -9848.51448  21078761.993    21078762.3884   21078768.7474
      -248.783        -193.857
  -9789877.054 9  -7596158.18247  22782494.086    22782494.8164   22782501.3124
      3322.582        2589.025
  -5547403.087 9  -4313586.21748  20232766.567    20232766.8834   20232773.6244
      1664.100        1296.701
  -5454348.889 9  -4233987.00248  20825280.324    20825281.3594   20825287.9134
      1063.706         828.862
 -11280984.561 9  -8765579.41348  20627540.463    20627540.9994   20627548.1034
      3525.463        2747.114
  -6519907.158 9  -5066265.00346  23188750.765    23188751.6454   23188758.5684
      1698.491        1323.499
   1674172.592 9   1304104.13348  21571761.043    21571761.1794   21571768.6564
     -1125.860        -877.293
   2418173.405 9   1740769.770 9  21331102.358    21331103.076    21331109.531
     -1573.924       -1226.434
 96 10 28 17 11 59.9980000  0  8 23 31 21  3  1  9 17 28            -0.001732266
     -7706.401 9     -3972.89648  21080196.891    21080197.2884   21080203.6754
      -253.936        -197.872
  -9889309.893 9  -7673638.32747  22763572.739    22763573.4054   22763579.8304
      3306.012        2576.113
  -5597198.442 9  -4352387.80448  20223290.762    20223291.1284   20223297.8664
      1655.491        1289.993
  -5485941.082 9  -4258604.32048  20819268.872    20819269.5984   20819276.1224
      1042.352         812.222
 -11386504.732 9  -8847802.90948  20607460.759    20607461.2154   20607468.2504
      3509.005        2734.290
  -6570609.895 9  -5105773.63746  23179102.508    23179103.2704   23179109.9704
      1681.623        1310.356
   1708108.958 9   1330548.01647  21578218.654    21578219.0394   21578226.6804
     -1136.638        -885.692
   2465579.192 9   1777709.300 9  21340123.462    21340124.159    21340130.567
     -1586.616       -1236.324
 96 10 28 17 12 29.9980000  0  8 23 31 21  3  1  9 17 28            -0.001756439
       -28.895 9      2009.55248  21081657.874    21081658.2694   21081664.6864
      -256.819        -200.119
  -9988238.729 9  -7750725.73647  22744746.952    22744747.8354   22744754.3624
      3290.309        2563.877
  -5646741.139 9  -4390992.51648  20213863.301    20213863.4644   20213870.1534
      1648.480        1284.530
  -5516903.768 9  -4282731.12048  20813376.963    20813377.5414   20813384.1434
      1022.823         797.005
 -11491532.637 9  -8929642.82748  20587474.626    20587475.0944   20587481.9934
      3493.930        2722.543
  -6620807.124 9  -5144888.36246  23169550.785    23169551.0574   23169557.6734
      1665.699        1297.947
   1742361.211 9   1357238.03948  21584736.945    21584737.0814   21584744.7914
     -1145.854        -892.873
   2513361.808 9   1814942.459 9  21349216.315    21349216.955    21349223.301
     -1597.886       -1245.106
 96 10 28 17 12 59.9980000  0  8 23 31 21  3  1  9 17 28            -0.001780632
      7738.778 9      8062.25948  21083136.071    21083136.4664   21083142.9034
      -260.103        -202.678
 -10086700.177 9  -7827448.97947  22726010.364    22726011.2304   22726017.8054
      3274.641        2551.668
  -5696072.710 9  -4429432.71248  20204475.765    20204475.9594   20204482.6574
      1641.388        1279.004
  -5547273.985 9  -4306396.25448  20807597.463    20807598.2214   20807604.9034
      1002.811         781.411
 -11596109.874 9  -9011131.57748  20567574.413    20567574.7344   20567581.4914
      3479.007        2710.915
  -6670522.931 9  -5183627.96146  23160090.004    23160090.3464   23160097.0784
      1649.725        1285.500
   1776897.940 9   1384149.72548  21591309.006    21591309.2534   21591316.9554
     -1155.539        -900.420
   2561484.518 9   1852440.623 9  21358373.625    21358374.455    21358380.743
     -1609.291       -1253.993
 96 10 28 17 13 29.9980000  0  8 23 31 21  3  1  9 17 28            -0.001804846
     15580.132 9     14172.39148  21084628.200    21084628.6454   21084635.0874
      -263.219        -205.106
 -10184705.879 9  -7903817.06247  22707360.790    22707361.3734   22707368.0524
      3258.348        2538.972
  -5745216.743 9  -4467726.76048  20195124.000    20195124.1624   20195130.8404
      1634.196        1273.399
  -5577064.553 9  -4329609.70748  20801928.657    20801929.3184   20801935.9524
       982.670         765.717
 -11700270.783 9  -9092295.90548  20547753.366    20547753.5824   20547760.2224
      3464.429        2699.555
  -6719771.645 9  -5222003.59547  23150718.103    23150718.5374   23150725.4144
      1632.938        1272.419
   1811698.151 9   1411266.73148  21597931.414    21597931.6044   21597939.2614
     -1164.998        -907.791
   2609928.311 9   1890188.992 9  21367592.057    21367593.056    21367599.277
     -1620.878       -1263.022
 96 10 28 17 13 59.9980000  0  8 23 31 21  3  1  9 17 28            -0.001829059
     23511.391 9     20352.57048  21086137.560    21086137.8994   21086144.4084
      -265.563        -206.932
 -10282222.523 9  -7979804.06647  22688804.136    22688804.6344   22688811.2864
      3242.726        2526.799
  -5794152.129 9  -4505858.23848  20185811.818    20185812.0734   20185818.7404
      1628.227        1268.748
  -5606265.628 9  -4352363.81948  20796372.064    20796372.6234   20796379.1624
       964.196         751.322
 -11803998.519 9  -9173122.70248  20528014.502    20528014.8554   20528021.4384
      3450.889        2689.004
  -6768517.950 9  -5259987.74347  23141442.146    23141442.5734   23141449.4654
      1616.708        1259.772
   1846780.737 9   1438603.75948  21604607.080    21604607.6684   21604615.3424
     -1173.854        -914.691
   2658712.871 9   1928202.883 9  21376875.506    21376876.491    21376882.667
     -1631.421       -1271.237
 96 10 28 17 14 29.9980000  0  8 23 31 21  3  1  9 17 28            -0.001853262
     31530.090 9     26600.88948  21087663.424    21087663.8084   21087670.3024
      -269.730        -210.179
 -10379262.793 9  -8055419.87047  22670338.352    22670338.4704   22670345.1144
      3226.169        2513.898
  -5842903.979 9  -4543846.70448  20176534.699    20176534.9754   20176541.5824
      1621.264        1263.322
  -5634897.533 9  -4374674.41848  20790923.484    20790924.1334   20790930.6674
       943.975         735.565
 -11907317.479 9  -9253630.96248  20508353.460    20508353.9134   20508360.5234
      3436.510        2677.800
  -6816753.112 9  -5297573.62746  23132263.693    23132263.6644   23132270.6114
      1598.419        1245.521
   1882145.427 9   1466160.61448  21611336.962    21611337.4434   21611345.0604
     -1184.367        -922.883
   2707825.953 9   1966472.768 9  21386221.440    21386222.441    21386228.591
     -1643.268       -1280.468
 96 10 28 17 14 59.9980000  0  8 23 31 21  3  1  9 17 28            -0.001877455
     39681.898 9     32952.93348  21089214.644    21089215.0544   21089221.5154
      -274.385        -213.806
 -10475823.226 9  -8130661.79847  22651963.472    22651963.5694   22651970.1954
      3210.407        2501.616
  -5891452.605 9  -4581676.80948  20167296.268    20167296.4764   20167303.1004
      1614.554        1258.094
  -5662925.018 9  -4396514.04248  20785590.180    20785590.7294   20785597.2874
       923.935         719.949
 -12010216.654 9  -9333812.11848  20488772.355    20488772.8214   20488779.5084
      3422.675        2667.019
  -6864451.458 9  -5334741.20247  23123186.958    23123186.8994   23123194.0084
      1580.842        1231.825
   1917810.636 9   1493951.63348  21618123.944    21618124.4724   21618131.9724
     -1193.870        -930.288
   2757281.621 9   2005009.602 9  21395632.572    21395633.568    21395639.730
     -1654.398       -1289.141
 96 10 28 17 15 29.9980000  0  8 23 31 21  3  1  9 17 28            -0.001901645
     47975.983 9     39415.83848  21090793.141    21090793.4334   21090799.8384
      -279.444        -217.749
 -10571903.635 9  -8205529.65547  22633680.053    22633680.1834   22633686.7084
      3194.080        2488.894
  -5939789.558 9  -4619341.97048  20158097.878    20158098.2214   20158104.9094
      1607.072        1252.264
  -5690350.592 9  -4417884.64748  20780370.921    20780371.8784   20780378.4674
       903.684         704.169
 -12112688.148 9  -9413660.02348  20469272.550    20469273.0864   20469279.8234
      3407.747        2655.387
  -6911616.516 9  -5371493.21847  23114211.674    23114211.7684   23114219.0694
      1562.768        1217.741
   1953763.687 9   1521966.94348  21624965.710    21624966.2684   21624973.7604
     -1203.866        -938.077
   2807072.522 9   2043807.656 9  21405107.457    21405108.490    21405114.719
     -1665.776       -1298.007
 96 10 28 17 15 59.9980000  0  8 23 31 21  3  1  9 17 28            -0.001925843
     56427.799 9     46001.64948  21092401.330    21092401.7814   21092408.1104
      -284.440        -221.642
 -10667503.469 9  -8280023.04747  22615487.839    22615488.1974   22615494.7284
      3178.589        2476.823
  -5987910.872 9  -4656839.10648  20148940.566    20148940.9894   20148947.7714
      1600.451        1247.105
  -5717177.102 9  -4438788.45448  20775266.276    20775266.9554   20775273.6154
       884.157         688.954
 -12214708.492 9  -9493156.38948  20449858.752    20449859.2204   20449866.0064
      3393.013        2643.906
  -6958256.503 9  -5407836.07847  23105335.834    23105336.4574   23105343.8034
      1546.051        1204.715
   1990021.546 9   1550219.77148  21631865.571    21631866.0424   21631873.4914
     -1214.004        -945.977
   2857197.721 9   2082866.198 9  21414646.234    21414647.070    21414653.353
     -1676.466       -1306.337
 96 10 28 17 16 29.9980000  0  8 23 31 21  3  1  9 17 28            -0.001950072
     65008.785 9     52688.10748  21094034.572    21094034.7364   21094041.0214
      -288.316        -224.662
 -10762656.511 9  -8354168.28847  22597380.487    22597381.1024   22597387.7544
      3164.111        2465.541
  -6035845.695 9  -4694190.92248  20139819.065    20139819.2714   20139826.1064
      1594.481        1242.453
  -5743423.624 9  -4459240.31848  20770271.845    20770272.4654   20770279.1214
       864.837         673.899
 -12316293.291 9  -9572313.36648  20430527.788    20430528.2644   20430535.0654
      3378.439        2632.550
  -7004411.621 9  -5443801.12847  23096552.721    23096553.4964   23096560.5844
      1530.360        1192.488
   2026569.466 9   1578698.61248  21638820.452    21638820.9624   21638828.3064
     -1223.318        -953.235
   2907626.086 9   2122160.988 9  21424242.687    21424243.299    21424249.700
     -1686.086       -1313.833
 96 10 28 17 16 59.9980000  0  8 23 31 21  3  1  9 17 28            -0.001974325
     73737.200 9     59489.44448  21095695.519    21095695.7104   21095702.0154
      -293.384        -228.611
 -10857337.495 9  -8427945.69247  22579363.403    22579363.8964   22579370.5904
      3147.705        2452.757
  -6083560.740 9  -4731371.48448  20130739.213    20130739.4464   20130746.2404
      1586.498        1236.232
  -5769059.856 9  -4479216.62848  20765393.415    20765394.1334   20765400.8084
       844.206         657.823
 -12417401.361 9  -9651098.86448  20411287.448    20411288.0364   20411294.8094
      3362.059        2619.786
  -7050072.412 9  -5479380.96147  23087864.357    23087864.7564   23087871.7144
      1513.467        1179.325
   2063433.684 9   1607423.92747  21645835.660    21645836.0604   21645843.3374
     -1234.412        -961.879
   2958377.671 9   2161707.626 9  21433900.488    21433901.034    21433907.567
     -1697.418       -1322.663
 96 10 28 17 17 29.9980000  0  8 23 31 21  3  1  9 17 28            -0.001998592
     82586.104 9     66384.66848  21097379.572    21097379.6364   21097385.8764
      -296.714        -231.206
 -10951532.545 9  -8501344.44047  22561438.945    22561439.1584   22561445.9314
      3131.740        2440.317
  -6131054.150 9  -4768379.35148  20121701.607    20121701.8404   20121708.5234
      1579.722        1230.952
  -5794092.343 9  -4498722.49648  20760630.079    20760630.6184   20760637.3044
       824.448         642.427
 -12518030.401 9  -9729511.10248  20392138.611    20392138.9974   20392145.6964
      3346.511        2607.671
  -7095233.201 9  -5514571.19147  23079270.749    23079270.9314   23079278.0164
      1497.176        1166.631
   2100630.473 9   1636408.38348  21652914.069    21652914.4034   21652921.6994
     -1245.513        -970.530
   3009454.922 9   2201508.030 9  21443620.259    21443620.712    21443627.437
     -1707.921       -1330.848
 96 10 28 17 17 59.9980000  0  8 23 31 21  3  1  9 17 28            -0.002022863
     91538.188 9     73360.28848  21099083.132    21099083.2174   21099089.4634
      -300.430        -234.101
 -11045240.234 9  -8574363.43047  22543607.099    22543607.1074   22543613.8284
      3114.815        2427.129
  -6178345.480 9  -4805229.76148  20112702.600    20112702.6754   20112709.2124
      1572.370        1225.223
  -5818524.083 9  -4517760.25148  20755980.753    20755981.4694   20755988.1374
       803.821         626.354
 -12618196.228 9  -9807562.39548  20373077.716    20373078.0984   20373084.7764
      3330.764        2595.401
  -7139904.813 9  -5549380.23747  23070770.142    23070770.0404   23070777.2604
      1480.310        1153.488
   2138166.274 9   1665656.99247  21660056.751    21660057.1774   21660064.5754
     -1257.279        -979.698
   3060853.543 9   2241558.842 9  21453401.299    21453401.555    21453408.432
     -1719.170       -1339.613
 96 10 28 17 18 29.9970000  0  8 23 31 21  3  1  9 17 28            -0.002047144
    100561.793 9     80391.63648  21100800.318    21100800.4134   21100806.6144
      -302.043        -235.358
 -11138466.692 9  -8647007.44047  22525866.687    22525866.7674   22525873.4234
      3099.569        2415.249
  -6225440.376 9  -4841927.09948  20103740.808    20103740.8564   20103747.3294
      1566.642        1220.760
  -5842369.853 9  -4536341.39648  20751443.131    20751443.8664   20751450.5004
       785.205         611.848
 -12717924.876 9  -9885273.01848  20354100.024    20354100.3764   20354107.1134
      3317.242        2584.864
  -7184095.535 9  -5583814.60147  23062360.855    23062361.0104   23062367.9514
      1465.046        1141.594
   2176012.223 9   1695147.28647  21667258.722    21667259.0234   21667266.4584
     -1266.621        -986.977
   3112551.899 9   2281843.220 9  21463239.215    21463239.454    21463246.422
     -1728.270       -1346.704
 96 10 28 17 18 59.9970000  0  8 23 31 21  3  1  9 17 28            -0.002071406
    109693.676 9     87507.36148  21102538.010    21102538.1644   21102544.3424
      -305.548        -238.089
 -11231172.933 9  -8719246.08147  22508225.622    22508225.4204   22508231.9444
      3081.847        2401.439
  -6272312.059 9  -4878450.50448  20094821.383    20094821.4674   20094827.9164
      1559.423        1215.135
  -5865604.355 9  -4554446.23248  20747021.601    20747022.4644   20747029.1384
       765.082         596.168
 -12817201.993 9  -9962631.80248  20335208.194    20335208.5734   20335215.3574
      3302.368        2573.274
  -7227768.755 9  -5617845.69747  23054050.020    23054050.3454   23054057.3024
      1447.600        1128.000
   2214193.841 9   1724899.13747  21674524.399    21674524.7014   21674532.1674
     -1277.545        -995.490
   3164582.985 9   2322386.865 9  21473140.343    21473140.704    21473147.700
     -1739.246       -1355.257
 96 10 28 17 19 29.9970000  0  8 23 31 21  3  1  9 17 28            -0.002095645
    118933.400 9     94707.12148  21104296.143    21104296.4864   21104302.6254
      -310.588        -242.017
 -11323346.713 9  -8791069.79747  22490685.293    22490685.3214   22490691.8344
      3063.005        2386.757
  -6318976.407 9  -4914812.34548  20085941.405    20085941.5474   20085947.9934
      1551.510        1208.969
  -5888245.622 9  -4572088.80248  20742712.972    20742713.9704   20742720.6214
       744.432         580.077
 -12916031.033 9 -10039641.43648  20316401.706    20316402.0044   20316408.8074
      3286.200        2560.675
  -7270924.123 9  -5651473.23847  23045837.658    23045838.0564   23045845.3174
      1429.446        1113.854
   2252690.348 9   1754896.36247  21681850.026    21681850.3534   21681857.7914
     -1288.721       -1004.198
   3216934.915 9   2363180.522 9  21483102.656    21483102.991    21483110.009
     -1750.881       -1364.323
 96 10 28 17 19 59.9970000  0  8 23 31 21  3  1  9 17 28            -0.002119883
    128287.008 9    101995.62848  21106076.258    21106076.4534   21106082.5584
      -313.959        -244.643
 -11415001.161 9  -8862488.83847  22473243.741    22473244.1724   22473250.6554
      3046.268        2373.715
  -6365441.681 9  -4951019.06448  20077099.391    20077099.4964   20077105.9384
      1545.076        1203.955
  -5910316.892 9  -4589287.21648  20738513.098    20738513.9994   20738520.6334
       726.025         565.734
 -13014414.545 9 -10116303.90848  20297679.872    20297680.2214   20297686.9954
      3271.612        2549.308
  -7313577.297 9  -5684709.49947  23037721.275    23037721.5844   23037728.6234
      1412.937        1100.990
   2291465.334 9   1785110.56547  21689228.549    21689228.9774   21689236.4154
     -1297.307       -1010.889
   3269591.133 9   2404211.286 9  21493122.859    21493123.141    21493130.159
     -1760.462       -1371.789
 96 10 28 17 20 29.9970000  0  8 23 31 21  3  1  9 17 28            -0.002144105
    137794.724 9    109404.20848  21107885.628    21107885.7354   21107891.9264
      -319.397        -248.881
 -11506105.711 9  -8933479.41247  22455907.084    22455907.6434   22455914.2274
      3027.904        2359.406
  -6411663.748 9  -4987036.27048  20068303.653    20068303.7514   20068310.1914
      1536.967        1197.637
  -5931787.999 9  -4606017.98348  20734427.212    20734428.1354   20734434.9224
       705.780         549.958
 -13112303.476 9 -10192580.99248  20279052.249    20279052.5674   20279059.2874
      3254.850        2536.247
  -7355672.657 9  -5717511.09147  23029711.052    23029711.2044   23029717.9904
      1393.886        1086.145
   2330545.055 9   1815562.24347  21696665.491    21696665.7194   21696673.0424
     -1307.505       -1018.835
   3322580.534 9   2445501.673 9  21503206.343    21503206.704    21503213.685
     -1771.612       -1380.477
 96 10 28 17 20 59.9970000  0  8 23 31 21  3  1  9 17 28            -0.002168320
    147448.571 9    116926.66048  21109722.699    21109722.8714   21109729.1004
      -323.867        -252.364
 -11596674.505 9  -9004052.48647  22438672.340    22438672.8864   22438679.6374
      3010.375        2345.747
  -6457653.183 9  -5022872.19648  20059552.157    20059552.2634   20059558.7624
      1529.215        1191.596
  -5952668.178 9  -4622288.28048  20730454.013    20730454.7924   20730461.6034
       686.533         534.961
 -13209703.572 9 -10268477.16648  20260517.559    20260517.9454   20260524.5904
      3238.832        2523.765
  -7397207.355 9  -5749875.78147  23021806.965    23021807.4374   23021814.2754
      1375.564        1071.868
   2369911.233 9   1846237.12847  21704156.928    21704156.8734   21704164.1584
     -1316.570       -1025.899
   3375887.974 9   2487039.893 9  21513350.582    21513350.800    21513357.723
     -1781.875       -1388.474
 96 10 28 17 21 29.9970000  0  8 23 31 21  3  1  9 17 28            -0.002192547
    157240.093 9    124556.40148  21111586.179    21111586.1994   21111592.3984
      -329.238        -256.549
 -11686722.654 9  -9074219.87747  22421536.451    22421537.3114   22421544.0844
      2992.574        2331.876
  -6503399.411 9  -5058518.61348  20050846.775    20050847.0284   20050853.6064
      1520.063        1184.465
  -5972959.756 9  -4638099.92148  20726592.875    20726593.4494   20726600.2044
       665.786         518.794
 -13306613.944 9 -10343991.73448  20242076.307    20242076.5384   20242083.1794
      3221.644        2510.372
  -7438189.339 9  -5781809.80547  23014008.580    23014008.8814   23014015.8114
      1356.244        1056.813
   2409557.105 9   1877129.95547  21711701.276    21711701.2224   21711708.6234
     -1326.896       -1033.945
   3429505.863 9   2528820.007 9  21523553.534    21523553.975    21523560.880
     -1792.991       -1397.136
 96 10 28 17 21 59.9970000  0  8 23 31 21  3  1  9 17 28            -0.002216780
    167168.519 9    132292.80448  21113475.310    21113475.5164   21113481.7504
      -332.649        -259.207
 -11776260.322 9  -9143989.48947  22404498.499    22404498.9164   22404505.6434
      2976.507        2319.356
  -6548887.863 9  -5093964.16648  20042190.547    20042190.8334   20042197.4734
      1512.561        1178.619
  -5992635.610 9  -4653431.78348  20722848.528    20722849.1924   20722855.9294
       645.914         503.310
 -13403031.995 9 -10419122.67048  20223728.436    20223728.7724   20223735.4914
      3206.180        2498.322
  -7478606.270 9  -5813303.52947  23006317.622    23006317.7524   23006324.7104
      1338.216        1042.766
   2449504.501 9   1908257.73847  21719303.556    21719303.0334   21719310.4344
     -1336.391       -1041.344
   3483438.437 9   2570845.336 9  21533816.873    21533817.052    21533823.911
     -1802.511       -1404.554
 96 10 28 17 22 29.9970000  0  8 23 31 21  3  1  9 17 28            -0.002241025
    177214.927 9    140121.15348  21115387.137    21115387.2624   21115393.5234
      -336.404        -262.133
 -11865301.009 9  -9213371.86147  22387554.183    22387554.9054   22387561.7084
      2959.930        2306.439
  -6594137.983 9  -5129224.00348  20033579.746    20033579.9904   20033586.6414
      1504.671        1172.471
  -6011699.457 9  -4668286.76248  20719220.628    20719221.4554   20719228.1524
       625.644         487.515
 -13498969.527 9 -10493879.18148  20205472.034    20205472.4634   20205479.2404
      3190.247        2485.907
  -7518463.904 9  -5844361.44047  22998732.451    22998732.9914   22998740.1404
      1319.722        1028.355
   2489762.518 9   1939627.55547  21726964.278    21726963.8734   21726971.3484
     -1346.840       -1049.486
   3537671.254 9   2613104.609 9  21544136.927    21544137.253    21544144.066
     -1812.357       -1412.226
 96 10 28 17 22 59.9970000  0  8 23 31 21  3  1  9 17 28            -0.002265281
    187361.458 9    148027.51448  21117317.963    21117318.0664   21117324.3264
      -339.723        -264.719
 -11953843.111 9  -9282365.71147  22370705.519    22370705.9094   22370712.7544
      2943.072        2293.303
  -6639155.736 9  -5164302.77248  20025013.094    20025013.4094   20025019.9904
      1496.879        1166.399
  -6030166.007 9  -4682676.31048  20715706.599    20715707.4444   20715714.0544
       605.884         472.117
 -13594430.667 9 -10568264.47748  20187306.509    20187306.7934   20187313.6044
      3174.148        2473.362
  -7557789.781 9  -5875004.99047  22991249.041    22991249.5904   22991256.7774
      1302.506        1014.940
   2530332.362 9   1971240.36747  21734684.502    21734684.0424   21734691.6284
     -1357.601       -1057.871
   3592193.135 9   2655589.130 9  21554512.302    21554512.463    21554519.212
     -1822.002       -1419.742
 96 10 28 17 23 29.9970000  0  8 23 31 21  3  1  9 17 28            -0.002289553
    197606.070 9    156010.30748  21119267.548    21119267.6104   21119273.8204
      -343.883        -267.961
 -12041887.432 9  -9350971.67847  22353951.286    22353951.6444   22353958.4904
      2925.815        2279.856
  -6683954.765 9  -5199211.11048  20016488.086    20016488.4654   20016495.0164
      1489.306        1160.498
  -6048046.515 9  -4696609.20248  20712304.189    20712304.9414   20712311.4914
       585.620         456.327
 -13689411.961 9 -10642275.86248  20169232.237    20169232.3884   20169239.2694
      3157.432        2460.337
  -7596606.355 9  -5905251.68447  22983862.779    22983863.0824   22983870.2504
      1284.707        1001.070
   2571232.108 9   2003110.22647  21742467.333    21742467.0624   21742474.7224
     -1369.567       -1067.195
   3646997.599 9   2698293.852 9  21564941.317    21564941.493    21564948.143
     -1832.181       -1427.674
 96 10 28 17 23 59.9970000  0  8 23 31 21  3  1  9 17 28            -0.002313822
    207961.907 9    164079.77048  21121238.010    21121238.2674   21121244.4014
      -345.826        -269.475
 -12129415.522 9  -9419175.40347  22337295.060    22337295.4894   22337302.4084
      2910.057        2267.577
  -6728553.632 9  -5233963.47848  20008001.268    20008001.6074   20008008.1554
      1484.662        1156.879
  -6065345.083 9  -4710088.63548  20709012.109    20709013.1024   20709019.7284
       568.381         442.894
 -13783908.112 9 -10715909.21948  20151250.203    20151250.3844   20151257.2774
      3142.910        2449.021
  -7634904.924 9  -5935094.75647  22976574.368    22976575.1724   22976582.1104
      1269.202         988.989
   2612472.868 9   2035245.81747  21750315.109    21750315.0514   21750322.6594
     -1378.911       -1074.476
   3702089.811 9   2741222.777 9  21575424.875    21575425.273    21575431.832
     -1839.927       -1433.709
 96 10 28 17 24 29.9970000  0  8 23 31 21  3  1  9 17 28            -0.002338077
    218436.244 9    172241.56848  21123231.368    21123231.5034   21123237.6194
      -351.198        -273.661
 -12216402.593 9  -9486957.54547  22320742.192    22320742.5364   22320749.3654
      2890.188        2252.095
  -6772949.410 9  -5268557.59048  19999553.035    19999553.3794   19999559.9314
      1476.226        1150.306
  -6082070.304 9  -4723121.29848  20705829.414    20705830.4514   20705837.0874
       547.669         426.755
 -13877904.225 9 -10789152.93849  20133363.316    20133363.5604   20133370.4224
      3124.777        2434.891
  -7672680.399 9  -5964530.19547  22969386.092    22969386.7784   22969393.6224
      1250.463         974.387
   2654047.235 9   2067641.37347  21758226.299    21758226.4314   21758234.0134
     -1391.466       -1084.259
   3757475.303 9   2784380.246 9  21585964.664    21585964.840    21585971.291
     -1851.232       -1442.518
 96 10 28 17 24 59.9970000  0  8 23 31 21  3  1  9 17 28            -0.002362320
    229018.856 9    180487.73448  21125245.091    21125245.3324   21125251.4284
      -354.329        -276.101
 -12302842.568 9  -9554313.38447  22304293.308    22304293.5714   22304300.3234
      2872.647        2238.426
  -6817146.883 9  -5302997.18148  19991142.719    19991142.8774   19991149.4594
      1470.486        1145.833
  -6098215.544 9  -4735702.03148  20702757.058    20702758.1484   20702764.8184
       528.751         412.014
 -13971410.185 9 -10862014.71749  20115569.538    20115569.9424   20115576.8164
      3109.241        2422.785
  -7709948.042 9  -5993569.90747  22962294.584    22962294.9744   22962301.8604
      1233.981         961.544
   2695944.145 9   2100288.25247  21766199.508    21766199.2354   21766206.7464
     -1401.441       -1092.032
   3813148.947 9   2827762.248 9  21596558.834    21596559.239    21596565.587
     -1860.242       -1449.539
 96 10 28 17 25 29.9970000  0  8 23 31 21  3  1  9 17 28            -0.002386549
    239703.367 9    188813.31248  21127278.228    21127278.5334   21127284.6024
      -357.701        -278.728
 -12388757.980 9  -9621260.46147  22287944.163    22287944.4334   22287951.1954
      2855.204        2224.834
  -6861169.827 9  -5337300.77348  19982765.516    19982765.5954   19982772.1474
      1464.770        1141.379
  -6113785.614 9  -4747834.57348  20699794.520    20699795.2144   20699801.9934
       509.435         396.962
 -14064454.764 9 -10934516.97749  20097863.652    20097864.1544   20097871.0584
      3093.973        2410.888
  -7746701.070 9  -6022208.64347  22955301.170    22955301.0534   22955307.9464
      1216.370         947.821
   2738134.908 9   2133164.11347  21774228.124    21774227.9074   21774235.5084
     -1410.906       -1099.407
   3869098.721 9   2871359.418 9  21607205.501    21607206.174    21607212.549
     -1869.488       -1456.744
 96 10 28 17 25 59.9970000  0  8 23 31 21  3  1  9 17 28            -0.002410764
    250478.777 9    197209.71548  21129328.605    21129328.9744   21129335.0914
      -361.147        -281.413
 -12474148.743 9  -9687798.71647  22271694.970    22271695.0534   22271701.9214
      2836.881        2210.557
  -6905022.774 9  -5371471.90448  19974420.645    19974420.7094   19974427.1624
      1458.019        1136.119
  -6128777.649 9  -4759516.71148  20696941.422    20696942.3374   20696949.1884
       489.362         381.321
 -14157039.031 9 -11006660.55649  20080245.599    20080245.9924   20080252.8944
      3077.695        2398.204
  -7782929.815 9  -6050438.87247  22948406.824    22948406.8634   22948413.6374
      1198.202         933.664
   2780600.647 9   2166254.23447  21782309.169    21782308.8794   21782316.4314
     -1420.658       -1107.006
   3925320.689 9   2915168.683 9  21617904.466    21617904.886    21617911.351
     -1879.180       -1464.296
 96 10 28 17 26 29.9970000  0  8 23 31 21  3  1  9 17 28            -0.002434971
    261336.443 9    205670.21548  21131394.638    21131395.1274   21131401.2774
      -362.386        -282.379
 -12559010.669 9  -9753924.90647  22255546.280    22255546.3734   22255553.2124
      2820.986        2198.171
  -6948682.791 9  -5405492.70248  19966112.459    19966112.4984   19966118.9004
      1453.067        1132.260
  -6143182.827 9  -4770741.54848  20694200.442    20694201.1934   20694207.9854
       471.416         367.337
 -14249156.713 9 -11078440.56049  20062716.263    20062716.6304   20062723.4634
      3063.864        2387.426
  -7818630.111 9  -6078257.26147  22941613.132    22941613.2494   22941620.3034
      1182.189         921.186
   2823343.716 9   2199560.46047  21790442.654    21790442.5894   21790450.2324
     -1428.558       -1113.162
   3981811.103 9   2959187.118 9  21628654.669    21628654.693    21628661.240
     -1886.452       -1469.963
 96 10 28 17 26 59.9970000  0  8 23 31 21  3  1  9 17 28            -0.002459165
    272302.839 9    214215.43848  21133481.499    21133481.9734   21133488.1694
      -367.778        -286.580
 -12643344.110 9  -9819639.28547  22239498.351    22239498.3044   22239505.1194
      2802.348        2183.648
  -6992134.699 9  -5439351.33748  19957843.583    19957843.8264   19957850.2844
      1444.810        1125.826
  -6156991.871 9  -4781501.87748  20691572.889    20691573.4604   20691580.2424
       450.474         351.019
 -14340802.042 9 -11149852.49949  20045276.915    20045277.1364   20045283.9324
      3046.921        2374.224
  -7853779.492 9  -6105646.41647  22934924.140    22934924.5434   22934931.7244
      1162.260         905.657
   2866379.952 9   2233095.12947  21798632.344    21798632.1964   21798639.8414
     -1439.313       -1121.543
   4038578.770 9   3003421.596 9  21639457.195    21639457.229    21639463.901
     -1896.866       -1478.077
 96 10 28 17 27 29.9970000  0  8 23 31 21  3  1  9 17 28            -0.002483365
    283381.946 9    222848.48748  21135589.956    21135590.2904   21135596.5644
      -371.063        -289.140
 -12727165.825 9  -9884954.91647  22223547.412    22223547.5744   22223554.3384
      2785.397        2170.439
  -7035390.557 9  -5473057.20648  19949612.233    19949612.4854   19949618.9744
      1438.636        1121.015
  -6170236.743 9  -4791822.59148  20689052.625    20689053.0734   20689059.8304
       432.172         336.757
 -14431992.355 9 -11220909.87949  20027924.134    20027924.2164   20027930.9964
      3032.006        2362.602
  -7888387.483 9  -6132613.68947  22928337.843    22928338.7574   22928346.0524
      1144.817         892.065
   2909681.104 9   2266836.23247  21806872.266    21806872.1784   21806879.9014
     -1447.798       -1128.154
   4095600.621 9   3047854.152 9  21650307.763    21650308.145    21650314.841
     -1904.861       -1484.307
 96 10 28 17 27 59.9970000  0  8 23 31 21  3  1  9 17 28            -0.002507559
    294587.665 9    231580.19648  21137722.446    21137722.6844   21137729.0354
      -376.421        -293.315
 -12810442.781 9  -9949846.06147  22207700.182    22207700.4654   22207707.3294
      2765.924        2155.265
  -7078428.042 9  -5506592.91248  19941422.452    19941422.7294   19941429.2214
      1429.905        1114.212
  -6182908.446 9  -4801696.67348  20686641.391    20686641.7754   20686648.4564
       412.068         321.092
 -14522703.495 9 -11291593.87249  20010662.409    20010662.4664   20010669.2184
      3015.006        2349.355
  -7922450.594 9  -6159156.35947  22921856.051    22921856.6064   22921864.1164
      1125.553         877.054
   2953265.312 9   2300797.90847  21815166.015    21815166.0214   21815173.7794
     -1458.231       -1136.284
   4152887.430 9   3092493.158 9  21661208.698    21661209.469    21661216.182
     -1914.743       -1492.008
 96 10 28 17 28 29.9970000  0  8 23 31 21  3  1  9 17 28            -0.002531746
    305927.373 9    240416.31248  21139880.466    21139880.6304   21139887.0034
      -380.567        -296.546
 -12893178.086 9 -10014315.14147  22191956.590    22191956.4724   22191963.3644
      2748.715        2141.856
  -7121240.026 9  -5539952.90948  19933275.650    19933275.9234   19933282.3744
      1423.200        1108.987
  -6195011.893 9  -4811127.96248  20684338.158    20684338.6314   20684345.2224
       393.827         306.878
 -14612946.234 9 -11361912.88749  19993489.662    19993489.8084   19993496.5264
      3000.083        2337.727
  -7955965.884 9  -6185272.15347  22915479.214    22915478.9354   22915486.5404
      1107.798         863.219
   2997125.718 9   2334974.79247  21823512.245    21823512.4514   21823520.1524
     -1466.751       -1142.923
   4210434.497 9   3137334.961 9  21672159.956    21672160.311    21672167.038
     -1922.793       -1498.280
 96 10 28 17 28 59.9970000  0  8 23 31 21  3  1  9 17 28            -0.002555931
    317414.905 9    249367.60948  21142066.431    21142066.6354   21142073.0614
      -384.730        -299.790
 -12975369.893 9 -10078360.72947  22176315.859    22176315.8974   22176322.9074
      2730.870        2127.951
  -7163827.886 9  -5573138.26548  19925171.548    19925171.7734   19925178.1844
      1416.384        1103.676
  -6206538.569 9  -4820109.81648  20682144.700    20682145.2584   20682151.7994
       374.965         292.180
 -14702708.188 9 -11431857.26149  19976408.467    19976408.6504   19976415.3354
      2984.343        2325.462
  -7988920.041 9  -6210950.71147  22909208.086    22909208.0894   22909215.6714
      1089.673         849.096
   3041258.719 9   2369364.10447  21831910.421    21831910.7894   21831918.3774
     -1475.185       -1149.495
   4268248.747 9   3182384.965 9  21683161.326    21683162.039    21683168.764
     -1931.138       -1504.783
 96 10 28 17 29 29.9970000  0  8 23 31 21  3  1  9 17 28            -0.002580113
    329011.999 9    258404.28148  21144273.257    21144273.4764   21144279.9174
      -387.811        -302.190
 -13057020.044 9 -10141984.23147  22160778.409    22160778.3894   22160785.4804
      2713.121        2114.120
  -7206213.990 9  -5606166.41248  19917105.773    19917105.9724   19917112.4134
      1409.829        1098.568
  -6217500.140 9  -4828651.33748  20680058.777    20680059.3554   20680065.8994
       356.289         277.628
 -14791988.170 9 -11501426.08149  19959419.067    19959419.2284   19959425.8544
      2968.070        2312.782
  -8021334.767 9  -6236208.92847  22903039.826    22903039.9364   22903047.2604
      1071.764         835.141
   3085657.485 9   2403960.49347  21840359.157    21840359.6454   21840367.2614
     -1484.410       -1156.683
   4326314.735 9   3227631.126 9  21694210.551    21694211.659    21694218.380
     -1939.456       -1511.264
 96 10 28 17 29 59.9970000  0  8 23 31 21  3  1  9 17 28            -0.002604301
    340707.465 9    267517.60548  21146498.887    21146499.0634   21146505.5104
      -391.700        -305.221
 -13138143.003 9 -10205196.94047  22145341.332    22145341.2544   22145348.2664
      2695.278        2100.217
  -7248396.611 9  -5639036.00348  19909078.651    19909078.8764   19909085.3484
      1402.461        1092.827
  -6227901.293 9  -4836756.16148  20678079.591    20678080.0684   20678086.6354
       337.163         262.724
 -14880765.627 9 -11570603.31649  19942525.148    19942525.4624   19942532.0254
      2950.586        2299.158
  -8053204.503 9  -6261042.49747  22896975.412    22896975.3124   22896982.5174
      1053.097         820.595
   3130343.621 9   2438780.80447  21848862.062    21848863.1234   21848870.8454
     -1494.507       -1164.551
   4384633.079 9   3273073.930 9  21705308.137    21705309.332    21705316.022
     -1948.248       -1518.115
 96 10 28 17 30 29.9970000  0  8 23 31 21  3  1  9 17 28            -0.002628502
    352516.047 9    276719.07348  21148746.041    21148746.1844   21148752.6554
      -395.949        -308.532
 -13218746.607 9 -10268004.95747  22130003.060    22130002.9504   22130009.9304
      2677.560        2086.410
  -7290366.918 9  -5671740.15248  19901091.922    19901092.1884   19901098.6944
      1394.995        1087.009
  -6237725.028 9  -4844411.04448  20676209.854    20676210.6134   20676217.2424
       317.402         247.326
 -14969015.099 9 -11639369.13549  19925731.868    19925732.1304   19925738.6624
      2932.149        2284.791
  -8084522.422 9  -6285446.06947  22891015.640    22891015.6084   22891022.9104
      1034.269         805.924
   3175336.499 9   2473840.13847  21857424.024    21857424.9984   21857432.7804
     -1505.513       -1173.127
   4443210.346 9   3318718.479 9  21716455.027    21716456.261    21716462.961
     -1957.392       -1525.241
 96 10 28 17 30 59.9970000  0  8 23 31 21  3  1  9 17 28            -0.002652716
    364430.660 9    286003.15948  21151013.368    21151013.5184   21151019.9584
      -397.064        -309.401
 -13298823.820 9 -10330402.80447  22114764.744    22114764.7634   22114771.6974
      2662.127        2074.385
  -7332119.957 9  -5704275.00448  19893146.664    19893146.8964   19893153.3914
      1389.909        1083.046
  -6246970.253 9  -4851615.15248  20674450.488    20674451.2874   20674458.0004
       300.333         234.026
 -15056719.071 9 -11707709.89449  19909042.333    19909042.6104   19909049.1064
      2916.278        2272.424
  -8115293.356 9  -6309423.44247  22885160.371    22885160.2384   22885167.3474
      1018.541         793.668
   3220650.959 9   2509150.04447  21866047.307    21866048.0804   21866055.8794
     -1514.151       -1179.858
   4502050.459 9   3364567.839 9  21727652.302    21727653.263    21727659.946
     -1963.887       -1530.302
 96 10 28 17 31 29.9970000  0  8 23 31 21  3  1  9 17 28            -0.002676951
    376438.611 9    295359.98148  21153298.324    21153298.5534   21153305.0204
      -402.502        -313.638
 -13378385.016 9 -10392398.54647  22099624.746    22099624.7474   22099631.6814
      2642.958        2059.448
  -7373662.262 9  -5736645.63748  19885241.442    19885241.6804   19885248.2184
      1380.559        1075.760
  -6255652.495 9  -4858380.56248  20672798.486    20672799.1434   20672805.9114
       279.513         217.802
 -15143901.127 9 -11775643.95349  19892452.153    19892452.4234   19892458.9074
      2897.007        2257.408
  -8145538.748 9  -6332991.26647  22879404.845    22879404.6484   22879411.8604
       998.875         778.344
   3266287.285 9   2544710.75947  21874731.548    21874732.3474   21874740.2484
     -1527.109       -1189.955
   4561137.077 9   3410609.285 9  21738896.327    21738897.167    21738903.827
     -1974.132       -1538.285
 96 10 28 17 31 59.9970000  0  8 23 31 21  3  1  9 17 28            -0.002701190
    388580.096 9    304820.85648  21155608.722    21155609.0404   21155615.5194
      -405.370        -315.873
 -13457401.490 9 -10453969.84647  22084588.082    22084588.3964   22084595.3134
      2625.975        2046.214
  -7414955.927 9  -5768822.53248  19877383.527    19877383.7444   19877390.3144
      1373.816        1070.506
  -6263740.236 9  -4864682.73148  20671259.410    20671260.0914   20671266.9034
       260.925         203.318
 -15230547.866 9 -11843160.88749  19875963.762    19875964.0904   19875970.6144
      2880.985        2244.923
  -8175235.508 9  -6356131.60747  22873753.703    22873753.5544   22873760.7664
       982.357         765.473
   3312267.277 9   2580539.24647  21883481.281    21883481.9814   21883490.0474
     -1536.586       -1197.340
   4620491.464 9   3456859.393 9  21750191.128    21750192.013    21750198.601
     -1981.405       -1543.952
 96 10 28 17 32 29.9970000  0  8 23 31 21  3  1  9 17 28            -0.002725452
    400778.612 9    314326.16948  21157930.081    21157930.3404   21157936.7714
      -407.803        -317.769
 -13535912.656 9 -10515147.37847  22069647.842    22069648.1964   22069655.0794
      2608.061        2032.255
  -7456066.030 9  -5800856.39148  19869560.494    19869560.7324   19869567.2834
      1367.075        1065.253
  -6271280.152 9  -4870558.02048  20669824.653    20669825.3444   20669832.1284
       242.129         188.672
 -15316740.328 9 -11910323.84049  19859561.922    19859562.2294   19859568.7974
      2865.434        2232.806
  -8204443.399 9  -6378891.01147  22868195.293    22868195.3544   22868202.5824
       964.966         751.922
   3358509.913 9   2616572.39147  21892280.992    21892281.7124   21892289.7974
     -1546.135       -1204.781
   4680047.505 9   3503266.628 9  21761524.725    21761525.230    21761531.762
     -1988.799       -1549.714
 96 10 28 17 32 59.9970000  0  8 23 31 21  3  1  9 17 28            -0.002749701
    413073.209 9    323906.35548  21160269.612    21160269.9544   21160276.3384
      -411.125        -320.357
 -13613862.394 9 -10575887.44347  22054814.593    22054814.8084   22054821.6904
      2589.443        2017.748
  -7496959.947 9  -5832721.78948  19861778.584    19861778.8424   19861785.3504
      1360.103        1059.821
  -6278246.093 9  -4875986.05048  20668499.047    20668499.7934   20668506.5694
       223.061         173.814
 -15402464.854 9 -11977122.16649  19843249.132    19843249.4424   19843256.0364
      2850.290        2221.005
  -8233115.220 9  -6401232.69747  22862738.352    22862739.2584   22862746.4984
       947.298         738.154
   3405050.536 9   2652837.74247  21901137.119    21901138.1504   21901146.2984
     -1555.678       -1212.217
   4739836.747 9   3549855.572 9  21772902.025    21772902.778    21772909.339
     -1996.316       -1555.571
 96 10 28 17 33 29.9970000  0  8 23 31 21  3  1  9 17 28            -0.002773924
    425465.774 9    333562.88148  21162628.034    21162628.2304   21162634.5424
      -414.300        -322.831
 -13691253.264 9 -10636192.02147  22040087.387    22040087.8844   22040094.7394
      2570.615        2003.077
  -7537655.425 9  -5864432.56448  19854034.408    19854034.7734   19854041.2144
      1353.659        1054.799
  -6284641.468 9  -4880969.49148  20667281.992    20667282.7814   20667289.6454
       204.108         159.045
 -15487742.135 9 -12043571.98949  19827021.414    19827021.7484   19827028.3534
      2835.415        2209.414
  -8261256.377 9  -6423160.85447  22857383.413    22857384.1494   22857391.3814
       929.451         724.248
   3451874.869 9   2689324.15147  21910047.300    21910048.5774   21910056.6914
     -1565.079       -1219.542
   4799843.738 9   3596614.196 9  21784320.929    21784321.783    21784328.315
     -2003.486       -1561.158
 96 10 28 17 33 59.9970000  0  8 23 31 21  3  1  9 17 28            -0.002798124
    437948.483 9    343289.65148  21165003.495    21165003.6344   21165009.9004
      -418.205        -325.874
 -13768081.064 9 -10696057.83647  22025467.806    22025468.0564   22025474.7854
      2550.941        1987.746
  -7578158.732 9  -5895993.59048  19846326.916    19846327.2314   19846333.6474
      1346.259        1049.033
  -6290471.719 9  -4885512.57448  20666172.395    20666173.2944   20666180.2714
       184.312         143.620
 -15572566.923 9 -12109669.21949  19810879.878    19810880.1354   19810886.7634
      2819.297        2196.855
  -8288861.149 9  -6444671.06547  22852130.066    22852131.1614   22852138.2174
       910.523         709.498
   3498970.154 9   2726021.69747  21919009.499    21919010.6214   21919018.7554
     -1574.879       -1227.178
   4860064.881 9   3643539.697 9  21795780.834    21795781.536    21795788.087
     -2011.499       -1567.402
 96 10 28 17 34 29.9970000  0  8 23 31 21  3  1  9 17 28            -0.002822302
    450531.960 9    353094.92848  21167397.905    21167398.1684   21167404.4854
      -422.418        -329.157
 -13844341.411 9 -10755481.48647  22010955.801    22010956.2374   22010962.8524
      2531.609        1972.682
  -7618459.037 9  -5927396.43648  19838657.961    19838658.3094   19838664.7204
      1338.824        1043.239
  -6295735.510 9  -4889614.26548  20665170.649    20665171.6694   20665178.6544
       165.238         128.757
 -15656925.624 9 -12175403.26449  19794826.755    19794827.2044   19794833.8034
      2803.030        2184.179
  -8315916.532 9  -6465753.16947  22846981.327    22846982.6704   22846989.8214
       891.802         694.911
   3546337.876 9   2762931.52547  21928023.770    21928024.4564   21928032.6904
     -1584.697       -1234.829
   4920504.682 9   3690635.575 9  21807282.312    21807282.893    21807289.450
     -2019.346       -1573.516
 96 10 28 17 34 59.9970000  0  8 23 31 21  3  1  9 17 28            -0.002846486
    463215.533 9    362978.19548  21169811.333    21169811.7144   21169818.0844
      -424.296        -330.620
 -13920066.491 9 -10814488.05547  21996545.604    21996546.2634   21996552.8714
      2515.443        1960.085
  -7658565.610 9  -5958648.32748  19831025.931    19831026.2534   19831032.6514
      1333.685        1039.235
  -6300467.520 9  -4893301.58348  20664270.453    20664271.2264   20664278.2174
       148.766         115.922
 -15740824.991 9 -12240779.39149  19778861.140    19778861.6384   19778868.2054
      2788.799        2173.090
  -8342458.571 9  -6486435.26947  22841930.862    22841931.9344   22841939.3344
       876.482         682.973
   3593965.798 9   2800044.11247  21937087.520    21937088.0014   21937096.0714
     -1591.709       -1240.293
   4981143.435 9   3737886.473 9  21818822.107    21818822.110    21818828.757
     -2024.530       -1577.556
 96 10 28 17 35 29.9970000  0  8 23 31 21  3  1  9 17 28            -0.002870681
    476012.338 9    372949.69748  21172246.614    21172246.8414   21172253.2394
      -427.378        -333.022
 -13995240.456 9 -10873065.17147  21982240.580    21982241.1004   21982247.7734
      2497.564        1946.154
  -7698443.732 9  -5989722.20048  19823437.350    19823437.6754   19823444.0924
      1326.325        1033.500
  -6304635.612 9  -4896549.47848  20663477.422    20663478.1144   20663485.0054
       130.655         101.809
 -15824212.134 9 -12305756.37949  19762993.117    19762993.5764   19763000.0994
      2771.801        2159.845
  -8368464.662 9  -6506699.75147  22836982.186    22836983.0374   22836990.3784
       858.801         669.196
   3641876.720 9   2837377.22347  21946204.341    21946205.2204   21946213.1934
     -1600.781       -1247.362
   5042008.781 9   3785313.930 9  21830404.278    21830404.440    21830411.217
     -2031.635       -1583.092
 96 10 28 17 35 59.9970000  0  8 23 31 21  3  1  9 17 28            -0.002894911
    488901.683 9    382993.30848  21174699.292    21174699.5664   21174706.0054
      -431.089        -335.913
 -14069889.729 9 -10931233.44647  21968035.473    21968035.8834   21968042.4514
      2479.845        1932.347
  -7738096.063 9  -6020620.12448  19815891.624    19815892.0534   19815898.4934
      1318.213        1027.179
  -6308268.219 9  -4899380.10348  20662786.335    20662786.9334   20662793.6654
       112.275          87.487
 -15907087.631 9 -12370334.68049  19747222.227    19747222.8434   19747229.3814
      2754.197        2146.128
  -8393953.175 9  -6526560.92247  22832132.217    22832132.7474   22832140.2334
       841.229         655.503
   3690047.192 9   2874912.59347  21955370.879    21955371.9354   21955379.7784
     -1609.775       -1254.370
   5103078.137 9   3832900.362 9  21842025.434    21842025.556    21842032.529
     -2038.739       -1588.628
 96 10 28 17 36 29.9970000  0  8 23 31 21  3  1  9 17 28            -0.002919172
    501905.621 9    393126.22648  21177173.668    21177174.1314   21177180.5494
      -435.309        -339.202
 -14144004.029 9 -10988984.86047  21953932.064    21953932.4004   21953938.9964
      2461.478        1918.035
  -7777512.370 9  -6051334.13048  19808391.058    19808391.3904   19808397.8544
      1310.011        1020.788
  -6311347.628 9  -4901779.67748  20662200.446    20662200.9194   20662207.7304
        93.469          72.833
 -15989438.341 9 -12434504.06149  19731551.481    19731552.0494   19731558.5444
      2736.260        2132.151
  -8418911.927 9  -6546009.28847  22827382.344    22827383.1254   22827390.7954
       823.113         641.387
   3738492.749 9   2912662.31047  21964590.259    21964590.8974   21964598.6904
     -1619.580       -1262.010
   5164360.422 9   3880652.716 9  21853686.840    21853687.173    21853694.363
     -2046.279       -1594.503
 96 10 28 17 36 59.9970000  0  8 23 31 21  3  1  9 17 28            -0.002943460
    515005.760 9    403334.10148  21179666.561    21179667.0514   21179673.4764
      -437.312        -340.762
 -14217593.182 9 -11046327.07447  21939928.807    21939928.8594   21939935.5814
      2444.958        1905.162
  -7816716.177 9  -6081882.56048  19800930.787    19800931.1834   19800937.6334
      1304.360        1016.384
  -6313888.338 9  -4903759.49048  20661716.947    20661717.4414   20661724.2694
        76.459          59.578
 -16071277.107 9 -12498274.52049  19715978.230    19715978.6414   19715985.1724
      2720.231        2119.660
  -8443345.705 9  -6565048.60447  22822732.692    22822733.5584   22822741.0664
       806.258         628.253
   3787206.700 9   2950621.16947  21973860.344    21973860.9884   21973868.7144
     -1627.271       -1268.003
   5225840.399 9   3928559.112 9  21865385.917    21865386.435    21865393.774
     -2051.682       -1598.713
 96 10 28 17 37 29.9970000  0  8 23 31 21  3  1  9 17 28            -0.002967755
    528206.440 9    413620.31848  21182178.594    21182179.1034   21182185.5504
      -441.934        -344.364
 -14290633.864 9 -11103241.90147  21926029.542    21926029.6434   21926036.4574
      2425.207        1889.772
  -7855715.321 9  -6112271.50548  19793509.653    19793509.9104   19793516.3724
      1296.486        1010.249
  -6315876.745 9  -4905308.93348  20661338.411    20661339.0574   20661345.8374
        57.025          44.435
 -16152590.706 9 -12561635.75749  19700504.782    19700505.1504   19700511.7264
      2701.697        2105.218
  -8467214.753 9  -6583647.84347  22818190.944    22818191.2914   22818199.0014
       786.016         612.480
   3836192.458 9   2988791.82547  21983182.076    21983182.7464   21983190.4144
     -1637.491       -1275.967
   5287521.885 9   3976622.535 9  21877123.577    21877124.011    21877131.530
     -2059.495       -1604.801
 96 10 28 17 37 59.9970000  0  8 23 31 21  3  1  9 17 28            -0.002992058
    541491.419 9    423972.22548  21184706.484    21184707.1814   21184713.6404
      -446.010        -347.540
 -14363143.773 9 -11159743.15647  21912230.951    21912231.5104   21912238.3474
      2406.356        1875.082
  -7894552.194 9  -6142534.00848  19786119.218    19786119.5164   19786125.9834
      1290.426        1005.527
  -6317341.116 9  -4906450.04248  20661059.534    20661060.3954   20661067.1924
        38.188          29.757
 -16233419.753 9 -12624619.42649  19685123.465    19685123.8574   19685130.4574
      2684.650        2091.935
  -8490542.393 9  -6601825.25847  22813751.888    22813752.1354   22813759.8434
       766.795         597.503
   3885419.572 9   3027150.55147  21992549.539    21992550.3794   21992558.0254
     -1646.715       -1283.155
   5349373.895 9   4024818.823 9  21888893.741    21888894.080    21888901.713
     -2066.369       -1610.158
 96 10 28 17 38 29.9970000  0  8 23 31 21  3  1  9 17 28            -0.003016331
    554891.598 9    434413.89048  21187256.666    21187257.1624   21187263.7054
      -448.490        -349.473
 -14435086.172 9 -11215802.18647  21898540.803    21898541.3504   21898548.1604
      2388.544        1861.203
  -7933217.470 9  -6172662.79948  19778761.407    19778761.7554   19778768.2834
      1285.900        1002.000
  -6318248.247 9  -4907156.93848  20660887.018    20660887.8504   20660894.5834
        21.070          16.418
 -16313745.838 9 -12687211.17549  19669837.944    19669838.3014   19669844.8954
      2669.021        2079.757
  -8513297.755 9  -6619556.74547  22809421.579    22809421.9704   22809429.4714
       749.049         583.675
   3934927.454 9   3065728.03647  22001970.668    22001971.2984   22001979.1764
     -1655.060       -1289.657
   5411430.459 9   4073174.507 9  21900702.488    21900703.100    21900710.785
     -2071.955       -1614.510
 96 10 28 17 38 59.9960000  0  8 23 31 21  3  1  9 17 28            -0.003040574
    568407.547 9    444945.76148  21189828.978    21189829.1494   21189835.8044
      -451.853        -352.093
 -14506447.600 9 -11271408.50547  21884961.080    21884961.7234   21884968.3484
      2369.754        1846.562
  -7971706.544 9  -6202654.29048  19771437.127    19771437.5194   19771444.0804
      1280.748         997.985
  -6318599.774 9  -4907430.88648  20660820.126    20660821.0344   20660827.7054
         3.199           2.493
 -16393552.054 9 -12749397.82549  19654651.256    19654651.6744   19654658.3004
      2652.406        2066.810
  -8535480.367 9  -6636841.90147  22805200.738    22805200.7484   22805208.2834
       730.841         569.486
   3984723.643 9   3104530.22047  22011446.626    22011447.2444   22011455.1044
     -1663.964       -1296.595
   5473694.386 9   4121691.779 9  21912550.731    21912551.603    21912559.300
     -2078.306       -1619.459
 96 10 28 17 39 29.9960000  0  8 23 31 21  3  1  9 17 28            -0.003064803
    582025.339 9    455557.00148  21192420.342    21192420.5484   21192427.2094
      -454.968        -354.521
 -14577244.737 9 -11326575.12547  21871488.752    21871489.4764   21871495.9184
      2351.004        1831.951
  -8010030.507 9  -6232517.12948  19764144.345    19764144.7234   19764151.2664
      1274.997         993.504
  -6318413.557 9  -4907285.81848  20660855.597    20660856.4704   20660863.1634
       -14.547         -11.335
 -16472865.208 9 -12811200.28249  19639558.535    19639558.9524   19639565.5194
      2636.346        2054.296
  -8557133.645 9  -6653714.61447  22801080.541    22801080.3194   22801087.6984
       713.883         556.272
   4034792.897 9   3143545.12947  22020974.493    22020975.0254   22020983.0684
     -1672.917       -1303.572
   5536150.252 9   4170358.618 9  21924435.793    21924436.590    21924444.311
     -2084.413       -1624.218
 96 10 28 17 39 59.9960000  0  8 23 31 21  3  1  9 17 28            -0.003089032
    595730.195 9    466236.08348  21195028.043    21195028.4814   21195035.1804
      -458.709        -357.435
 -14647490.375 9 -11381312.00447  21858121.544    21858122.2204   21858128.6424
      2331.928        1817.087
  -8048174.600 9  -6262239.80448  19756885.785    19756886.1834   19756892.6594
      1267.741         987.850
  -6317696.531 9  -4906727.13448  20660992.401    20660992.9784   20660999.6694
       -33.145         -25.827
 -16551708.727 9 -12872636.78249  19624555.035    19624555.5574   19624562.0964
      2619.813        2041.413
  -8578292.888 9  -6670202.37447  22797054.206    22797053.9874   22797061.2924
       696.672         542.861
   4085122.484 9   3182762.92547  22030551.738    22030552.5824   22030560.5464
     -1682.482       -1311.025
   5598785.236 9   4219165.020 9  21936355.188    21936355.726    21936363.446
     -2091.229       -1629.529
 96 10 28 17 40 29.9960000  0  8 23 31 21  3  1  9 17 28            -0.003113265
    609534.733 9    476992.84048  21197655.151    21197655.4134   21197662.1024
      -461.988        -359.991
 -14717169.796 9 -11435607.67247  21844861.740    21844862.6364   21844869.1084
      2312.950        1802.299
  -8086096.235 9  -6291789.14048  19749669.593    19749669.9984   19749676.3914
      1259.848         981.700
  -6316444.100 9  -4905751.24748  20661230.814    20661231.4004   20661238.0524
       -50.775         -39.565
 -16630064.228 9 -12933693.00848  19609644.531    19609644.9884   19609651.4824
      2603.304        2028.549
  -8598946.024 9  -6686295.76547  22793124.146    22793123.9984   22793131.3694
       679.572         529.537
   4135729.584 9   3222196.97047  22040182.137    22040182.7634   22040190.8424
     -1691.674       -1318.188
   5661609.704 9   4268119.071 9  21948310.779    21948310.894    21948318.663
     -2097.508       -1634.422
 96 10 28 17 40 59.9960000  0  8 23 31 21  3  1  9 17 28            -0.003137523
    623418.672 9    487811.46648  21200297.235    21200297.4844   21200304.1294
      -463.343        -361.046
 -14786303.060 9 -11489477.75847  21831706.081    21831707.0394   21831713.5244
      2296.003        1789.093
  -8123800.013 9  -6321168.72048  19742494.891    19742495.2124   19742501.5964
      1253.833         977.013
  -6314682.952 9  -4904378.95848  20661565.714    20661566.5874   20661573.2454
       -66.514         -51.829
 -16707938.683 9 -12994374.39648  19594825.500    19594825.9694   19594832.4024
      2588.501        2017.014
  -8619096.926 9  -6701997.79947  22789289.100    22789289.3224   22789296.6824
       664.004         517.406
   4186581.436 9   3261821.70947  22049859.172    22049859.6664   22049867.7804
     -1698.245       -1323.308
   5724599.911 9   4317202.257 9  21960297.022    21960297.625    21960305.382
     -2101.687       -1637.678
 96 10 28 17 41 29.9960000  0  8 23 31 21  3  1  9 17 28            -0.003161796
    637388.473 9    498697.00248  21202955.541    21202955.8644   21202962.5414
      -467.514        -364.297
 -14854879.209 9 -11542913.73947  21818656.774    21818657.4064   21818664.0694
      2276.197        1773.660
  -8161262.934 9  -6350360.60948  19735365.879    19735366.2554   19735372.6854
      1244.376         969.644
  -6312393.151 9  -4902594.72448  20662001.347    20662002.4074   20662009.0274
       -85.613         -66.711
 -16785313.369 9 -13054666.34748  19580101.733    19580102.0154   19580108.3774
      2570.320        2002.847
  -8638716.317 9  -6717285.61147  22785556.129    22785555.9014   22785563.2704
       644.248         502.011
   4237683.243 9   3301641.22647  22059583.323    22059584.0324   22059592.0254
     -1707.933       -1330.857
   5787766.391 9   4366422.812 9  21972317.631    21972317.874    21972325.667
     -2108.952       -1643.339
 96 10 28 17 41 59.9960000  0  8 23 31 21  3  1  9 17 28            -0.003186087
    651445.838 9    509650.77148  21205630.383    21205630.9384   21205637.6064
      -470.094        -366.307
 -14922910.882 9 -11595925.44247  21805710.907    21805711.3844   21805718.1584
      2258.780        1760.088
  -8198497.148 9  -6379374.28848  19728280.464    19728280.8134   19728287.3084
      1237.706         964.446
  -6309580.874 9  -4900403.37248  20662536.623    20662537.6374   20662544.2704
      -102.203         -79.639
 -16862177.975 9 -13114560.83848  19565474.885    19565475.1194   19565481.4254
      2553.485        1989.729
  -8657771.661 9  -6732133.91447  22781929.641    22781929.6794   22781937.0854
       625.759         487.604
   4289030.216 9   3341651.76647  22069354.640    22069355.1184   22069363.0044
     -1715.728       -1336.931
   5851107.061 9   4415779.088 9  21984370.320    21984371.206    21984379.020
     -2114.082       -1647.337
 96 10 28 17 42 29.9960000  0  8 23 31 21  3  1  9 17 28            -0.003210382
    665608.172 9    520686.33348  21208325.587    21208325.9574   21208332.6124
      -473.916        -369.285
 -14990387.544 9 -11648504.66647  21792870.419    21792870.9534   21792877.7294
      2239.679        1745.204
  -8235522.905 9  -6408225.53248  19721234.690    19721235.0334   19721241.5714
      1230.870         959.119
  -6306248.500 9  -4897806.74448  20663170.975    20663171.8154   20663178.4894
      -119.952         -93.469
 -16938507.111 9 -13174038.07448  19550949.864    19550950.1414   19550956.4334
      2535.138        1975.432
  -8676239.037 9  -6746524.07647  22778415.135    22778415.4544   22778422.7494
       605.523         471.836
   4340641.178 9   3381868.01047  22079176.135    22079176.3844   22079184.2684
     -1724.915       -1344.090
   5914627.366 9   4465275.351 9  21996457.663    21996458.765    21996466.616
     -2120.548       -1652.375
 96 10 28 17 42 59.9960000  0  8 23 31 21  3  1  9 17 28            -0.003234663
    679884.870 9    531811.01748  21211042.208    21211042.7374   21211049.3394
      -477.717        -372.247
 -15057289.911 9 -11700636.39547  21780139.474    21780139.8854   21780146.7394
      2220.413        1730.192
  -8272351.191 9  -6436922.90448  19714226.481    19714226.8224   19714233.3754
      1224.390         954.070
  -6302370.684 9  -4894785.09348  20663909.284    20663909.8354   20663916.4994
      -138.362        -107.815
 -17014283.292 9 -13233084.43248  19536529.914    19536530.3564   19536536.7174
      2516.901        1961.222
  -8694106.177 9  -6760446.51047  22775014.980    22775015.3214   22775022.9194
       586.055         456.666
   4392528.768 9   3422299.82147  22089050.027    22089050.2484   22089058.1524
     -1734.238       -1351.354
   5978340.794 9   4514922.089 9  22008582.228    22008583.114    22008590.911
     -2126.826       -1657.267
 96 10 28 17 43 29.9960000  0  8 23 31 21  3  1  9 17 28            -0.003258940
    694253.478 9    543007.30648  21213776.702    21213777.0034   21213783.5334
      -481.338        -375.069
 -15123636.326 9 -11752334.90747  21767514.053    21767514.5294   21767521.4124
      2201.557        1715.499
  -8309009.815 9  -6465488.07248  19707250.642    19707250.9354   19707257.4884
      1218.463         949.452
  -6297969.505 9  -4891355.62948  20664746.747    20664747.3414   20664753.9954
      -155.909        -121.488
 -17089545.166 9 -13291730.03648  19522208.119    19522208.5044   19522214.9204
      2499.624        1947.759
  -8711416.876 9  -6773935.37147  22771720.901    22771721.2744   22771728.7534
       567.096         441.893
   4444684.999 9   3462940.97347  22098974.912    22098975.3304   22098983.2704
     -1743.953       -1358.924
   6042214.047 9   4564693.377 9  22020737.389    22020737.930    22020745.657
     -2132.440       -1661.642
 96 10 28 17 43 59.9960000  0  8 23 31 21  3  1  9 17 28            -0.003283205
    708731.684 9    554289.00348  21216531.652    21216532.1084   21216538.6184
      -485.434        -378.260
 -15189414.002 9 -11803590.24747  21754996.955    21754997.5724   21755004.4134
      2181.842        1700.137
  -8345493.921 9  -6493917.25248  19700307.915    19700308.2774   19700314.8394
      1211.958         944.383
  -6293053.012 9  -4887524.62348  20665682.080    20665682.8234   20665689.5204
      -173.641        -135.305
 -17164297.185 9 -13349978.34948  19507983.256    19507983.6554   19507990.0894
      2482.164        1934.154
  -8728181.220 9  -6786998.46447  22768530.513    22768531.1724   22768538.4244
       548.991         427.785
   4497130.794 9   3503807.75447  22108954.852    22108955.4474   22108963.4844
     -1754.118       -1366.845
   6106246.516 9   4614588.713 9  22032922.351    22032923.059    22032930.702
     -2138.038       -1666.004
 96 10 28 17 44 29.9960000  0  8 23 31 21  3  1  9 17 28            -0.003307430
    723354.385 9    565683.28648  21219314.190    21219314.7254   21219321.2064
      -489.339        -381.303
 -15254563.499 9 -11854356.09747  21742599.553    21742600.1784   21742606.9874
      2161.525        1684.305
  -8381736.246 9  -6522158.02748  19693411.356    19693411.6334   19693418.1794
      1204.088         938.250
  -6287568.673 9  -4883251.14348  20666725.529    20666726.4064   20666733.1864
      -191.859        -149.501
 -17238503.353 9 -13407801.32349  19493862.163    19493862.7004   19493869.1984
      2464.968        1920.754
  -8744380.341 9  -6799621.13247  22765448.434    22765448.7374   22765455.9674
       531.012         413.776
   4549911.323 9   3544935.36247  22118998.811    22118999.3354   22119007.3304
     -1764.383       -1374.844
   6170475.350 9   4664637.060 9  22045144.735    22045145.513    22045153.104
     -2143.823       -1670.511
 96 10 28 17 44 59.9960000  0  8 23 31 21  3  1  9 17 28            -0.003331662
    738060.348 9    577142.45148  21222112.452    21222113.1944   21222119.6694
      -492.847        -384.037
 -15319142.291 9 -11904677.24547  21730311.091    21730311.3154   21730317.9514
      2142.010        1669.099
  -8417760.173 9  -6550228.62448  19686556.260    19686556.5754   19686563.0994
      1195.746         931.750
  -6281574.078 9  -4878580.06548  20667866.179    20667867.1264   20667873.9254
      -209.261        -163.061
 -17312228.545 9 -13465249.50449  19479832.775    19479833.2354   19479839.7814
      2448.393        1907.839
  -8760081.853 9  -6811856.09447  22762460.178    22762460.7124   22762468.1224
       514.039         400.550
   4602964.291 9   3586275.27747  22129094.662    22129095.0024   22129103.1964
     -1774.097       -1382.413
   6234842.786 9   4714793.418 9  22057393.402    22057394.305    22057401.880
     -2148.958       -1674.513
 96 10 28 17 45 29.9960000  0  8 23 31 21  3  1  9 17 28            -0.003355888
    752890.078 9    588698.06648  21224934.643    21224935.2084   21224941.7324
      -496.169        -386.625
 -15383123.821 9 -11954532.98547  21718135.552    21718135.9504   21718142.6064
      2122.975        1654.266
  -8453520.169 9  -6578093.56448  19679751.415    19679751.7114   19679758.2104
      1187.847         925.595
  -6275056.304 9  -4873501.29948  20669106.663    20669107.4254   20669114.1944
      -225.710        -175.878
 -17385442.810 9 -13522299.56949  19465900.774    19465901.0574   19465907.5624
      2432.119        1895.158
  -8775254.057 9  -6823678.61747  22759572.776    22759573.5364   22759581.1904
       496.941         387.227
   4656314.772 9   3627846.98946  22139246.886    22139247.2744   22139255.5384
     -1782.821       -1389.211
   6299377.327 9   4765079.987 9  22069673.917    22069674.867    22069682.460
     -2153.778       -1678.269
 96 10 28 17 45 59.9960000  0  8 23 31 21  3  1  9 17 28            -0.003380112
    767835.123 9    600343.52948  21227778.804    21227779.2184   21227785.7544
      -499.725        -389.396
 -15446517.293 9 -12003930.51347  21706072.355    21706072.6154   21706079.3024
      2103.714        1639.258
  -8489024.478 9  -6605759.26548  19672995.157    19672995.4854   19673001.9534
      1179.479         919.075
  -6268013.159 9  -4868013.16148  20670446.757    20670447.7024   20670454.5224
      -243.517        -189.754
 -17458141.440 9 -13578947.84148  19452066.489    19452066.9924   19452073.4834
      2414.754        1881.626
  -8789891.355 9  -6835084.32647  22756787.286    22756788.2144   22756795.8804
       479.178         373.385
   4709929.890 9   3669624.93446  22149449.578    22149449.9414   22149458.1914
     -1791.039       -1395.615
   6364077.657 9   4815495.732 9  22081985.355    22081986.954    22081994.647
     -2159.199       -1682.493
 96 10 28 17 46 29.9960000  0  8 23 31 21  3  1  9 17 28            -0.003404375
    782833.745 9    612030.74948  21230633.145    21230633.4544   21230639.9614
      -500.651        -390.118
 -15509393.393 9 -12052924.88447  21694107.019    21694107.6034   21694114.3464
      2087.538        1626.653
  -8524329.511 9  -6633269.68748  19666276.852    19666277.1754   19666283.6194
      1174.078         914.866
  -6260486.924 9  -4862148.59548  20671878.929    20671879.9064   20671886.8694
      -258.589        -201.498
 -17530369.098 9 -13635229.12449  19438322.077    19438322.5714   19438329.0294
      2399.926        1870.072
  -8804035.640 9  -6846105.85947  22754095.848    22754096.8404   22754104.2914
       463.275         360.994
   4763739.896 9   3711554.72146  22159689.348    22159689.5954   22159698.0154
     -1796.676       -1400.007
   6428894.194 9   4866002.044 9  22094319.682    22094321.200    22094328.990
     -2162.286       -1684.898
 96 10 28 17 46 59.9960000  0  8 23 31 21  3  1  9 17 28            -0.003428648
    797927.034 9    623791.73548  21233505.177    21233505.6774   21233512.1824
      -505.937        -394.237
 -15571723.096 9 -12101493.50847  21682245.706    21682246.5774   21682253.4754
      2067.274        1610.863
  -8559436.328 9  -6660625.65248  19659596.398    19659596.6144   19659603.0074
      1166.073         908.628
  -6252444.650 9  -4855881.91548  20673409.398    20673410.2744   20673417.3734
      -278.096        -216.698
 -17602085.021 9 -13691111.65249  19424675.169    19424675.5214   19424681.9274
      2380.775        1855.149
  -8817638.948 9  -6856705.86647  22751507.425    22751508.3244   22751515.7484
       443.162         345.321
   4817776.575 9   3753661.13846  22169972.306    22169972.4324   22169980.8594
     -1806.177       -1407.411
   6493863.048 9   4916627.037 8  22106682.956    22106684.294    22106692.214
     -2169.318       -1690.378
 96 10 28 17 47 29.9960000  0  8 23 31 21  3  1  9 17 28            -0.003452926
    813099.884 9    635614.71948  21236392.383    21236393.0764   21236399.5594
      -507.465        -395.427
 -15633519.294 9 -12149646.40247  21670486.308    21670487.1744   21670494.1374
      2050.508        1597.798
  -8594384.246 9  -6687857.80448  19652945.972    19652946.2434   19652952.6444
      1161.869         905.352
  -6243878.703 9  -4849207.17248  20675039.517    20675040.3664   20675047.4704
      -294.939        -229.823
 -17673297.884 9 -13746602.18449  19411123.760    19411124.1164   19411130.5594
      2364.905        1842.783
  -8830700.602 9  -6866883.80546  22749021.751    22749022.6694   22749030.0304
       425.794         331.788
   4872031.563 9   3795937.67246  22180296.523    22180296.9714   22180305.2414
     -1812.751       -1412.533
   6558967.844 9   4967357.946 8  22119072.246    22119073.261    22119081.324
     -2172.942       -1693.202
 96 10 28 17 47 59.9960000  0  9 25 23 31 21  3  1  9 17 28         -0.003477196
   -323087.17018   -234819.50955  24212553.660           0.0005          0.0005
      4418.402        3442.911
    828356.892 9    647503.27348  21239295.704    21239296.3874   21239302.9134
      -510.053        -397.444
 -15694776.735 9 -12197379.48947  21658829.619    21658830.2974   21658837.1994
      2032.881        1584.063
  -8629165.750 9  -6714960.28348  19646327.256    19646327.5224   19646333.9164
      1156.476         901.150
  -6234761.764 9  -4842103.09948  20676774.345    20676775.2764   20676782.4734
      -312.953        -243.859
 -17743991.271 9 -13801687.93149  19397671.228    19397671.5464   19397678.0924
      2347.681        1829.362
  -8843205.209 9  -6876627.70747  22746642.619    22746643.0084   22746650.5444
       407.556         317.576
   4926530.035 9   3838403.93146  22190668.075    22190667.8554   22190676.1074
     -1820.933       -1418.909
   6624221.581 9   5018204.923 8  22131489.901    22131490.608    22131498.726
     -2177.589       -1696.822
 96 10 28 17 48 29.9960000  0  9 25 23 31 21  3  1  9 17 28         -0.003501462
   -455706.010 8   -338158.75755  24187314.270           0.0005   24187324.3605
      4422.889        3446.407
    843704.292 9    659462.26048  21242216.407    21242216.9194   21242223.4944
      -513.431        -400.076
 -15755488.874 9 -12244687.65547  21647276.668    21647277.2454   21647284.0164
      2014.165        1569.479
  -8663780.977 9  -6741933.19848  19639740.116    19639740.4454   19639746.8484
      1151.018         896.897
  -6225115.228 9  -4834586.35148  20678610.104    20678610.9974   20678618.2214
      -330.224        -257.317
 -17814167.387 9 -13856370.60449  19384317.283    19384317.4474   19384324.0584
      2330.598        1816.050
  -8855158.423 9  -6885941.92747  22744367.682    22744368.4834   22744375.9014
       389.280         303.335
   4981296.563 9   3881079.04946  22201089.661    22201089.6454   22201097.9454
     -1830.254       -1426.172
   6689618.383 9   5069163.375 8  22143934.651    22143935.304    22143943.356
     -2182.290       -1700.486
 96 10 28 17 48 59.9960000  0  9 25 23 31 21  3  1  9 17 28         -0.003525718
   -588479.679 8   -441618.68055  24162045.561    24162047.4435   24162059.3495
      4428.415        3450.713
    859147.179 9    671495.65748  21245154.975    21245155.6164   21245162.1924
      -516.473        -402.446
 -15815643.979 9 -12291561.77147  21635829.442    21635830.1164   21635836.8724
      1995.707        1555.096
  -8698246.630 9  -6768789.55948  19633181.548    19633181.8064   19633188.2134
      1145.877         892.891
  -6214971.930 9  -4826682.51748  20680540.337    20680541.2614   20680548.4234
      -346.301        -269.845
 -17883846.722 9 -13910666.17848  19371057.586    19371057.8844   19371064.5144
      2314.294        1803.346
  -8866582.322 9  -6894843.68347  22742193.891    22742194.7194   22742201.9834
       371.866         289.766
   5036325.293 9   3923958.51046  22211561.192    22211561.4844   22211569.6724
     -1838.701       -1432.754
   6755134.050 9   5120214.447 8  22156402.341    22156402.601    22156410.627
     -2185.858       -1703.266
 96 10 28 17 49 29.9960000  0  9 25 23 31 21  3  1  9 17 28         -0.003549957
   -721386.451 8   -545182.29845  24136754.862    24136757.6485   24136767.5604
      4432.580        3453.958
    874717.473 9    683628.33348  21248117.903    21248118.5664   21248125.1394
      -521.211        -406.138
 -15875209.094 9 -12337976.15447  21624494.850    21624495.2644   21624501.9924
      1975.587        1539.418
  -8732498.002 9  -6795478.95248  19626663.750    19626663.9964   19626670.3764
      1137.958         886.721
  -6204324.873 9  -4818386.14348  20682566.544    20682567.3184   20682574.4494
      -362.948        -282.817
 -17952997.457 9 -13964549.86048  19357898.487    19357898.8994   19357905.5524
      2296.128        1789.191
  -8877443.137 9  -6903306.67246  22740127.388    22740127.9514   22740135.2914
       352.724         274.850
   5091641.708 9   3967062.13246  22222087.601    22222087.9644   22222096.2064
     -1848.605       -1440.471
   6820791.859 9   5171376.277 8  22168897.129    22168896.989    22168904.952
     -2190.943       -1707.228
 96 10 28 17 49 59.9960000  0  9 25 23 31 21  3  1  9 17 28         -0.003574183
   -854430.662 8   -648853.02045  24111438.165    24111440.1634   24111450.3214
      4436.852        3457.287
    890432.943 9    695874.13548  21251108.508    21251109.1874   21251115.7474
      -526.572        -410.316
 -15934164.030 9 -12383915.07447  21613276.244    21613276.5344   21613283.2354
      1954.476        1522.968
  -8766509.474 9  -6821981.40748  19620191.563    19620191.8434   19620198.2004
      1129.337         880.003
  -6193195.315 9  -4809713.78948  20684684.296    20684685.2324   20684692.2814
      -379.134        -295.429
 -18021606.808 9 -14018011.67148  19344842.525    19344842.9604   19344849.6284
      2277.711        1774.840
  -8887737.623 9  -6911328.37346  22738168.514    22738168.9744   22738176.1904
       333.449         259.830
   5147247.184 9   4010390.98246  22232668.868    22232669.4474   22232677.5114
     -1858.496       -1448.179
   6886596.163 9   5222652.261 8  22181418.999    22181419.176    22181427.219
     -2196.099       -1711.246
 96 10 28 17 50 29.9960000  0  9 25 23 31 21  3  1  9 17 28         -0.003598392
   -987621.256 8   -752637.82845  24086092.633    24086094.5774   24086105.1084
      4442.620        3461.782
    906289.870 9    708230.15648  21254126.274    21254126.7454   21254133.2374
      -530.239        -413.173
 -15992491.180 9 -12429364.81047  21602176.821    21602177.1714   21602183.8674
      1934.244        1507.203
  -8800276.942 9  -6848293.74148  19613765.854    19613766.1184   19613772.4954
      1122.062         874.334
  -6181596.700 9  -4800675.93448  20686891.579    20686892.4344   20686899.3634
      -394.033        -307.039
 -18089682.278 9 -14071057.48748  19331888.135    19331888.5644   19331895.2254
      2260.861        1761.710
  -8897472.784 9  -6918914.21247  22736316.112    22736316.3514   22736323.6464
       315.808         246.084
   5203132.273 9   4053937.70946  22243303.569    22243304.0864   22243312.0244
     -1866.765       -1454.622
   6952535.584 9   5274033.526 8  22193966.777    22193967.023    22193975.194
     -2199.669       -1714.028
 96 10 28 17 50 59.9960000  0  9 25 23 31 21  3  1  9 17 28         -0.003622598
  -1120961.558 8   -856539.30945  24060719.423    24060720.7244   24060731.3614
      4446.811        3465.048
    922260.091 9    720674.45948  21257165.466    21257165.8394   21257172.2524
      -534.020        -416.119
 -16050205.907 9 -12474337.33647  21591193.895    21591194.3744   21591201.1244
      1913.685        1491.183
  -8833803.758 9  -6874418.54148  19607385.824    19607386.1604   19607392.5394
      1113.140         867.382
  -6169530.450 9  -4791273.69148  20689187.541    20689188.5484   20689195.4124
      -410.304        -319.717
 -18157234.361 9 -14123695.46448  19319033.358    19319033.8324   19319040.4894
      2242.851        1747.676
  -8906661.170 9  -6926074.01947  22734567.183    22734567.8464   22734575.3124
       296.920         231.366
   5259264.249 9   4097676.81046  22253985.446    22253985.6414   22253993.7504
     -1875.294       -1461.268
   7018596.007 9   5325509.071 8  22206538.060    22206537.957    22206546.215
     -2204.206       -1717.563
 96 10 28 17 51 29.9960000  0  9 25 23 31 21  3  1  9 17 28         -0.003646817
  -1254449.039 8   -960555.51245  24035317.578    24035318.8554   24035329.4814
      4451.562        3468.750
    938301.079 9    733173.89548  21260218.518    21260218.3974   21260224.7464
      -536.202        -417.820
 -16107332.557 9 -12518851.61947  21580322.755    21580323.4964   21580330.4274
      1894.102        1475.924
  -8867094.848 9  -6900359.66848  19601050.764    19601051.0654   19601057.4824
      1105.830         861.686
  -6156997.959 9  -4781508.14148  20691572.349    20691573.4104   20691580.2224
      -426.088        -332.017
 -18224276.731 9 -14175936.26048  19306275.518    19306276.0944   19306282.8064
      2225.878        1734.450
  -8915318.793 9  -6932820.24147  22732919.326    22732920.2674   22732928.0644
       279.745         217.983
   5315625.463 9   4141594.57246  22264710.367    22264710.6844   22264718.9874
     -1882.928       -1467.217
   7084765.645 9   5377069.728 8  22219130.321    22219129.766    22219138.068
     -2207.792       -1720.357
 96 10 28 17 51 59.9960000  0  9 25 23 31 21  3  1  9 17 28         -0.003671047
  -1388066.856 8  -1064673.26245  24009890.946    24009892.1354   24009902.4934
      4455.359        3471.708
    954408.865 9    745725.38648  21263283.422    21263283.6134   21263289.9154
      -538.574        -419.668
 -16163877.072 9 -12562912.30847  21569562.975    21569563.4154   21569570.4504
      1874.646        1460.763
  -8900176.626 9  -6926137.68548  19594755.493    19594755.8214   19594762.2384
      1098.760         856.177
  -6143978.934 9  -4771363.47448  20694049.854    20694050.8524   20694057.6414
      -442.777        -345.021
 -18290810.993 9 -14227781.12748  19293614.508    19293615.0034   19293621.7784
      2208.843        1721.176
  -8923470.194 9  -6939172.01346  22731368.438    22731368.9884   22731376.9074
       262.799         204.778
   5372219.941 9   4185694.08046  22275479.854    22275480.2254   22275488.6164
     -1890.896       -1473.425
   7151043.389 9   5428714.629 8  22231741.573    22231742.116    22231750.530
     -2211.588       -1723.315
 96 10 28 17 52 29.9960000  0  9 25 23 31 21  3  1  9 17 28         -0.003695240
  -1521735.359 8  -1168830.48745  23984454.609    23984455.5894   23984466.0524
      4457.999        3473.765
    970642.789 9    758375.18048  21266372.395    21266372.7814   21266379.0024
      -541.794        -422.177
 -16219781.057 9 -12606473.86247  21558925.143    21558925.3264   21558932.3904
      1854.357        1444.954
  -8932993.055 9  -6951708.94048  19588510.762    19588511.0824   19588517.5174
      1091.014         850.141
  -6130394.139 9  -4760777.95048  20696635.046    20696635.9754   20696642.7484
      -460.852        -359.105
 -18356776.997 9 -14279183.19348  19281061.470    19281062.0444   19281068.8914
      2190.876        1707.176
  -8931058.748 9  -6945085.20346  22729924.001    22729924.9464   22729932.5644
       244.979         190.893
   5429111.437 9   4230025.02246  22286306.081    22286306.3824   22286314.9454
     -1899.871       -1480.419
   7217496.588 9   5480496.247 8  22244387.375    22244387.781    22244396.297
     -2216.575       -1727.201
 96 10 28 17 52 59.9960000  0  9 25 23 31 21  3  1  9 17 28         -0.003719455
  -1655540.721 8  -1273094.34445  23958992.445    23958993.2844   23959003.9544
      4463.533        3478.078
    986922.748 9    771060.83348  21269470.202    21269470.6644   21269476.9294
      -542.516        -422.740
 -16275144.737 9 -12649614.40547  21548389.730    21548389.9894   21548397.0614
      1837.599        1431.895
  -8965633.179 9  -6977142.81348  19582299.571    19582299.8934   19582306.3334
      1086.089         846.303
  -6116329.812 9  -4749818.76048  20699311.385    20699312.3934   20699319.1764
      -475.767        -370.728
 -18422261.571 9 -14330210.12548  19268600.227    19268600.7474   19268607.6424
      2175.862        1695.477
  -8938163.624 9  -6950621.48046  22728571.681    22728573.0374   22728580.3914
       229.664         178.959
   5486211.582 9   4274518.56846  22297171.509    22297172.3324   22297180.9174
     -1905.830       -1485.062
   7284040.379 9   5532348.449 8  22257050.779    22257050.742    22257059.280
     -2218.580       -1728.764
 96 10 28 17 53 29.9960000  0  9 25 23 31 21  3  1  9 17 28         -0.003743673
  -1789471.610 8  -1377456.06245  23933506.027    23933507.2874   23933517.7564
      4466.266        3480.207
   1003285.309 9    783810.84148  21272583.847    21272584.2874   21272590.6934
      -547.414        -426.556
 -16329956.405 9 -12692324.81647  21537959.498    21537959.6704   21537966.7524
      1817.678        1416.372
  -8998085.512 9  -7002430.35548  19576124.152    19576124.4694   19576130.9644
      1078.496         840.386
  -6101766.721 9  -4738470.93448  20702082.708    20702083.6964   20702090.5994
      -493.949        -384.895
 -18487241.187 9 -14380843.57948  19256235.061    19256235.5474   19256242.4574
      2157.195        1680.931
  -8944756.455 9  -6955758.77547  22727317.421    22727318.4654   22727325.7204
       210.933         164.363
   5543552.223 9   4319199.49746  22308082.993    22308083.9964   22308092.5924
     -1915.602       -1492.677
   7350692.308 9   5584284.902 8  22269734.703    22269734.278    22269742.858
     -2223.778       -1732.814
 96 10 28 17 53 59.9960000  0  9 25 23 31 21  3  1  9 17 28         -0.003767888
  -1923522.817 8  -1481911.45745  23907996.994    23907998.1604   23908008.4574
      4470.652        3483.625
   1019769.534 9    796655.65748  21275720.492    21275721.1394   21275727.6804
      -551.259        -429.552
 -16384213.704 9 -12734603.24647  21527634.246    21527634.8464   21527641.9224
      1799.363        1402.101
  -9030336.438 9  -7027560.95948  19569987.030    19569987.3714   19569993.8974
      1071.588         835.004
  -6086700.654 9  -4726731.17948  20704949.625    20704950.7014   20704957.6354
      -510.179        -397.542
 -18551698.627 9 -14431070.14948  19243969.159    19243969.7454   19243976.6094
      2140.128        1667.632
  -8950812.074 9  -6960477.49647  22726165.093    22726166.1654   22726173.5624
       192.753         150.197
   5601145.620 9   4364077.41146  22319043.121    22319043.9124   22319052.2564
     -1923.753       -1499.028
   7417462.307 9   5636313.379 8  22282439.895    22282440.266    22282448.911
     -2227.458       -1735.682
 96 10 28 17 54 29.9960000  0  9 25 23 31 21  3  1  9 17 28         -0.003792098
  -2057713.237 8  -1586475.39645  23882461.618    23882462.6404   23882472.6984
      4475.156        3487.135
   1036364.167 9    809586.50848  21278878.596    21278879.0274   21278885.6604
      -555.254        -432.665
 -16437917.568 9 -12776450.43247  21517414.817    21517415.3714   21517422.4894
      1780.569        1387.456
  -9062377.524 9  -7052528.04848  19563889.977    19563890.1654   19563896.7414
      1064.258         829.292
  -6071156.822 9  -4714619.12148  20707907.496    20707908.6254   20707915.5844
      -526.286        -410.093
 -18615643.259 9 -14480897.12648  19231800.904    19231801.4984   19231808.3224
      2122.584        1653.962
  -8956313.070 9  -6964764.04347  22725118.796    22725119.4034   22725126.7884
       173.759         135.397
   5658978.917 9   4409142.22046  22330048.487    22330049.2334   22330057.6514
     -1931.931       -1505.401
   7484339.522 9   5688425.382 8  22295166.403    22295166.626    22295175.462
     -2231.186       -1738.586
 96 10 28 17 54 59.9960000  0  9 25 23 31 21  3  1  9 17 28         -0.003816318
  -2192063.621 8  -1691163.89245  23856895.186    23856896.4294   23856906.7704
      4480.042        3490.942
   1053058.427 9    822594.99848  21282055.513    21282055.8874   21282062.5814
      -558.943        -435.540
 -16491079.990 9 -12817875.70547  21507298.508    21507298.8954   21507306.1294
      1762.110        1373.073
  -9094220.960 9  -7077341.12248  19557830.243    19557830.5414   19557837.1354
      1057.287         823.860
  -6055157.522 9  -4702152.16448  20710952.392    20710953.2464   20710960.2624
      -541.798        -422.180
 -18679079.106 9 -14530327.65148  19219729.386    19219730.0564   19219736.8884
      2105.140        1640.369
  -8961265.364 9  -6968623.00947  22724176.891    22724177.2104   22724184.4674
       155.190         120.927
   5717036.560 9   4454381.85746  22341096.914    22341097.3534   22341105.6944
     -1939.879       -1511.594
   7551303.422 9   5740604.945 8  22307908.927    22307909.577    22307918.496
     -2234.343       -1741.046
 96 10 28 17 55 29.9960000  0  9 25 23 31 21  3  1  9 17 28         -0.003840555
  -2326560.084 8  -1795966.22545  23831301.992    23831302.3874   23831313.1154
      4485.426        3495.137
   1069849.269 9    835678.72848  21285250.918    21285251.1664   21285257.9604
      -561.365        -437.427
 -16543685.884 9 -12858867.32747  21497287.904    21497288.3444   21497295.5784
      1743.870        1358.860
  -9125867.170 9  -7102000.51348  19551808.128    19551808.4104   19551815.0334
      1051.483         819.337
  -6038704.126 9  -4689331.36248  20714083.324    20714084.2424   20714091.3124
      -555.969        -433.223
 -18742001.834 9 -14579358.34348  19207755.419    19207756.2644   19207763.0634
      2088.871        1627.692
  -8965681.312 9  -6972064.00347  22723336.796    22723337.0234   22723344.0924
       138.388         107.835
   5775324.306 9   4499800.78446  22352188.589    22352189.2114   22352197.6004
     -1946.782       -1516.973
   7618349.514 9   5792848.543 8  22320666.974    22320668.177    22320677.094
     -2236.229       -1742.516
 96 10 28 17 55 59.9960000  0  9 25 23 31 21  3  1  9 17 28         -0.003864801
  -2461214.423 8  -1900891.60345  23805677.957    23805678.4434   23805689.4394
      4490.551        3499.131
   1086708.207 9    848815.53448  21288459.076    21288459.3694   21288466.1434
      -563.243        -438.891
 -16595732.745 9 -12899423.33347  21487383.742    21487384.1794   21487391.4144
      1724.740        1343.953
  -9157335.250 9  -7126521.09948  19545819.893    19545820.2454   19545826.8194
      1045.532         814.700
  -6021830.533 9  -4676183.13848  20717294.223    20717295.1644   20717302.3024
      -569.964        -444.128
 -18804444.628 9 -14628015.05948  19195872.986    19195873.8054   19195880.5914
      2073.085        1615.391
  -8969594.330 9  -6975113.11647  22722592.509    22722592.4184   22722599.4864
       121.541          94.707
   5833813.317 9   4545376.55046  22363318.751    22363319.4204   22363327.8564
     -1953.428       -1522.152
   7685450.630 9   5845135.027 8  22333436.548    22333437.231    22333446.107
     -2238.084       -1743.962
 96 10 28 17 56 29.9960000  0  9 25 23 31 21  3  1  9 17 28         -0.003889037
  -2595980.505 8  -2005904.07245  23780032.688    23780033.5474   23780044.2854
      4493.571        3501.484
   1103646.204 9    862013.93948  21291682.452    21291682.5864   21291689.2624
      -566.335        -441.300
 -16647165.582 9 -12939500.88647  21477596.141    21477596.8164   21477604.1084
      1703.808        1327.643
  -9188596.396 9  -7150880.44148  19539871.188    19539871.4604   19539878.0284
      1038.248         809.024
  -6004499.366 9  -4662678.36248  20720592.389    20720593.1974   20720600.3844
      -585.876        -456.527
 -18866379.826 9 -14676276.24948  19184087.164    19184087.9274   19184094.7324
      2055.642        1601.799
  -8972972.052 9  -6977745.16747  22721949.421    22721949.6204   22721956.9204
       103.400          80.571
   5892535.745 9   4591134.19046  22374492.939    22374494.0094   22374502.5674
     -1961.901       -1528.754
   7752635.836 9   5897487.022 8  22346221.570    22346222.206    22346231.120
     -2241.277       -1746.450
 96 10 28 17 56 59.9960000  0  9 25 23 31 21  3  1  9 17 28         -0.003913260
  -2730848.984 9  -2110996.33246  23754368.029    23754368.9974   23754379.5114
      4497.343        3504.423
   1120657.754 9    875269.65248  21294919.574    21294919.7984   21294926.4204
      -567.978        -442.580
 -16697991.569 9 -12979105.57047  21467924.160    21467924.9754   21467932.1834
      1684.347        1312.478
  -9219659.092 9  -7175085.14748  19533960.194    19533960.4484   19533967.0424
      1032.249         804.350
  -5986709.805 9  -4648816.40248  20723977.601    20723978.4314   20723985.7094
      -600.290        -467.758
 -18927819.455 9 -14724151.27548  19172395.682    19172396.3144   19172403.1624
      2040.145        1589.723
  -8975828.832 9  -6979971.28747  22721405.355    22721405.9954   22721413.3524
        86.879          67.698
   5951494.362 9   4637075.85946  22385711.973    22385713.4944   22385722.1934
     -1968.935       -1534.235
   7819894.878 9   5949896.553 8  22359021.085    22359021.240    22359030.211
     -2242.890       -1747.706
 96 10 28 17 57 29.9960000  0  9 25 23 31 21  3  1  9 17 28         -0.003937466
  -2865802.933 9  -2216155.19045  23728687.440    23728688.1844   23728698.3414
      4499.599        3506.181
   1137747.808 9    888586.54348  21298171.797    21298172.0044   21298178.4664
      -571.466        -445.298
 -16748211.057 9 -13018237.63347  21458368.274    21458368.5724   21458375.6264
      1663.593        1296.306
  -9250515.065 9  -7199128.76548  19528088.316    19528088.7174   19528095.3694
      1024.731         798.492
  -5968464.242 9  -4634599.10948  20727449.578    20727450.4584   20727457.7684
      -616.060        -480.047
 -18988766.585 9 -14771642.54148  19160797.842    19160798.4084   19160805.3144
      2022.937        1576.315
  -8978164.012 9  -6981790.94947  22720961.238    22720961.7304   22720968.9934
        68.690          53.525
   6010687.964 9   4683200.64246  22396977.013    22396977.7114   22396986.6174
     -1977.320       -1540.769
   7887227.986 9   6002363.805 8  22371834.502    22371834.396    22371843.390
     -2246.056       -1750.174
 96 10 28 17 57 59.9960000  0  9 25 23 31 21  3  1  9 17 28         -0.003961667
  -3000848.567 8  -2321385.44245  23702989.174    23702989.8394   23702999.9954
      4501.766        3507.870
   1154917.430 9    901965.41948  21301439.201    21301439.3434   21301445.7604
      -574.823        -447.914
 -16797848.053 9 -13056915.82347  21448922.400    21448922.9514   21448930.0264
      1643.912        1280.970
  -9281173.968 9  -7223018.82548  19522254.062    19522254.5124   19522261.1714
      1017.471         792.835
  -5949773.168 9  -4620034.65848  20731006.429    20731007.2564   20731014.5714
      -631.745        -492.269
 -19049226.933 9 -14818754.48848  19149292.423    19149293.1784   19149300.0604
      2006.006        1563.121
  -8979972.499 9  -6983200.17946  22720617.102    22720617.4784   22720624.7624
        50.272          39.173
   6070098.867 9   4729494.76646  22408283.108    22408283.3754   22408292.2664
     -1985.182       -1546.895
   7954627.667 9   6054882.922 8  22384660.235    22384660.259    22384669.248
     -2248.938       -1752.419
 96 10 28 17 58 29.9960000  0  9 25 23 31 21  3  1  9 17 28         -0.003985858
  -3135953.335 8  -2426661.84545  23677280.159    23677280.3374   23677290.2534
      4504.859        3510.280
   1172190.308 9    915424.77148  21304726.029    21304726.3164   21304732.7144
      -577.352        -449.885
 -16846904.136 9 -13095141.35847  21439587.242    21439587.9314   21439594.9944
      1626.016        1267.025
  -9311608.422 9  -7246733.99048  19516462.668    19516463.0384   19516469.6964
      1011.008         787.798
  -5930608.828 9  -4605101.42848  20734653.137    20734654.1274   20734661.4314
      -646.417        -503.702
 -19109174.310 9 -14865466.72448  19137885.078    19137885.5734   19137892.4574
      1989.887        1550.561
  -8981239.866 9  -6984187.75946  22720375.630    22720376.1914   22720383.5464
        33.781          26.323
   6129750.571 9   4775976.52646  22419634.116    22419634.9404   22419643.5104
     -1992.146       -1552.322
   8022114.993 9   6107470.317 8  22397502.659    22397502.758    22397511.687
     -2250.722       -1753.809
 96 10 28 17 58 59.9960000  0  9 25 23 31 21  3  1  9 17 28         -0.004010054
  -3271130.816 8  -2531994.85445  23651556.410    23651557.0404   23651566.7864
      4506.942        3511.903
   1189568.927 9    928966.50748  21308033.004    21308033.3414   21308039.8934
      -581.409        -453.046
 -16895407.707 9 -13132936.35547  21430357.701    21430358.0474   21430365.0924
      1607.385        1252.508
  -9341831.163 9  -7270284.18448  19510711.526    19510711.8374   19510718.4924
      1003.745         782.139
  -5910986.363 9  -4589811.22448  20738387.281    20738388.1844   20738395.5154
      -661.884        -515.754
 -19168612.762 9 -14911782.38948  19126574.402    19126574.8484   19126581.6984
      1972.420        1536.951
  -8981995.606 9  -6984776.66847  22720231.772    22720232.4234   22720239.8444
        16.355          12.744
   6189625.617 9   4822632.32546  22431028.254    22431028.8844   22431037.2184
     -1999.632       -1558.155
   8089676.450 9   6160115.486 8  22410359.014    22410359.385    22410368.188
     -2253.521       -1755.990
 96 10 28 17 59 29.9950000  0  9 25 23 31 21  3  1  9 17 28         -0.004034264
  -3406389.190 8  -2637390.89145  23625816.939    23625817.9644   23625827.6804
      4510.900        3514.987
   1207061.347 9    942596.92948  21311361.428    21311362.0034   21311368.6224
      -584.479        -455.438
 -16943367.115 9 -13170307.33647  21421231.276    21421231.6764   21421238.7114
      1590.006        1238.966
  -9371850.151 9  -7293675.61248  19504999.120    19504999.4444   19505006.0034
       997.803         777.509
  -5890903.249 9  -4574162.06648  20742208.829    20742209.8744   20742217.2194
      -676.879        -527.438
 -19227526.158 9 -14957688.91748  19115363.532    19115364.0234   19115370.8854
      1955.578        1523.827
  -8982240.581 9  -6984967.59247  22720184.905    22720185.9164   22720193.4034
         0.086           0.067
   6249714.378 9   4869454.62446  22442462.722    22442463.2844   22442471.9874
     -2006.129       -1563.217
   8157308.594 9   6212815.738 8  22423228.919    22423229.453    22423238.202
     -2255.263       -1757.348
 96 10 28 17 59 59.9950000  0  9 25 23 31 21  3  1  9 17 28         -0.004058480
  -3541749.968 9  -2742866.69746  23600059.025    23600059.5164   23600069.4834
      4514.109        3517.488
   1224656.147 9    956307.11548  21314709.593    21314710.1514   21314716.8704
      -587.545        -457.827
 -16990783.209 9 -13207254.96847  21412208.320    21412208.6404   21412215.6034
      1571.727        1224.722
  -9401667.726 9  -7316910.09248  19499325.047    19499325.3264   19499331.8524
       991.016         772.220
  -5870344.372 9  -4558142.18548  20746120.862    20746122.0424   20746129.4674
      -692.817        -539.857
 -19285925.269 9 -15003194.70448  19104250.479    19104250.9884   19104257.8934
      1938.573        1510.576
  -8981975.920 9  -6984761.42347  22720235.415    22720236.2314   22720243.8824
       -16.905         -13.173
   6310025.338 9   4916450.06046  22453939.198    22453940.0024   22453948.8604
     -2013.683       -1569.104
   8225011.769 9   6265571.345 8  22436113.081    22436112.962    22436121.674
     -2257.420       -1759.029
 96 10 28 18  0 29.9950000  0  9 25 23 31 21  3  1  9 17 28         -0.004082697
  -3677205.360 9  -2848416.22946  23574282.624    23574283.2574   23574292.9904
      4516.619        3519.443
   1242344.217 9    970089.98448  21318075.909    21318076.0924   21318082.8344
      -591.400        -460.831
 -17037637.751 9 -13243765.00048  21403292.222    21403292.5694   21403299.4424
      1552.035        1209.378
  -9431283.115 9  -7339987.02648  19493689.326    19493689.6904   19493696.1704
       983.732         766.544
  -5849301.629 9  -4541745.26448  20750125.165    20750126.2994   20750133.7084
      -709.659        -552.981
 -19343800.188 9 -15048292.02848  19093237.164    19093237.7244   19093244.6684
      1920.054        1496.146
  -8981196.693 9  -6984154.28247  22720383.576    22720384.3594   22720392.2244
       -34.866         -27.168
   6370574.122 9   4963630.83846  22465460.719    22465462.0394   22465471.0554
     -2022.557       -1576.018
   8292784.644 9   6318381.260 8  22449010.047    22449009.801    22449018.452
     -2260.404       -1761.354
 96 10 28 18  0 59.9950000  0  9 25 23 31 21  3  1  9 17 28         -0.004106888
  -3812761.964 8  -2954044.57846  23548487.144    23548487.5484   23548497.2844
      4520.601        3522.546
   1260124.793 9    983944.94148  21321459.500    21321459.6054   21321466.4424
      -593.801        -462.702
 -17083918.062 9 -13279827.59947  21394485.288    21394485.7334   21394492.5644
      1533.283        1194.766
  -9460712.438 9  -7362918.97048  19488089.195    19488089.4754   19488095.9744
       978.210         762.242
  -5827783.475 9  -4524977.89248  20754219.808    20754220.9834   20754228.4114
      -724.715        -564.713
 -19401142.364 9 -15092974.22348  19082325.397    19082325.8864   19082332.8184
      1902.912        1482.789
  -8979893.120 9  -6983138.54147  22720631.555    22720632.5364   22720640.4644
       -51.893         -40.436
   6431358.412 9   5010995.11146  22477026.842    22477028.8274   22477038.1054
     -2029.592       -1581.500
   8360619.750 9   6371239.685 8  22461918.480    22461918.529    22461927.092
     -2261.788       -1762.432
 96 10 28 18  1 29.9950000  0  9 25 23 31 21  3  1  9 17 28         -0.004131104
  -3948426.967 8  -3059757.42446  23522670.660    23522671.2384   23522680.8554
      4524.329        3525.451
   1277983.650 9    997860.89048  21324858.225    21324858.0514   21324864.8864
      -596.116        -464.506
 -17129614.157 9 -13315434.96248  21385789.582    21385790.1204   21385796.8954
      1513.704        1179.510
  -9489954.959 9  -7385705.36148  19482524.526    19482524.7904   19482531.3204
       971.813         757.257
  -5805804.183 9  -4507851.19648  20758402.422    20758403.5174   20758410.9464
      -739.726        -576.410
 -19457961.167 9 -15137248.60548  19071513.111    19071513.6464   19071520.5134
      1885.880        1469.517
  -8978066.029 9  -6981714.83347  22720979.965    22720980.4074   22720988.2744
       -69.226         -53.942
   6492367.650 9   5058534.68046  22488637.104    22488638.7204   22488647.7244
     -2036.976       -1587.254
   8428506.863 9   6424138.606 8  22474837.260    22474837.128    22474845.582
     -2263.313       -1763.620
 96 10 28 18  1 59.9950000  0  9 25 23 31 21  3  1  9 17 28         -0.004155320
  -4084194.319 9  -3165549.94746  23496833.737    23496835.3604   23496845.0774
      4526.896        3527.451
   1295915.514 9   1011833.72448  21328270.323    21328270.4294   21328277.2984
      -599.299        -466.986
 -17174723.073 9 -13350584.77848  21377205.810    21377206.2704   21377213.0354
      1493.691        1163.915
  -9519005.988 9  -7408342.53548  19476996.273    19476996.5984   19477003.1214
       965.092         752.020
  -5783392.321 9  -4490387.44048  20762667.327    20762668.3724   20762675.8114
      -754.191        -587.681
 -19514273.062 9 -15181127.99248  19060797.282    19060797.8224   19060804.6634
      1868.213        1455.750
  -8975715.210 9  -6979883.03847  22721427.370    22721427.9334   22721435.7564
       -87.326         -68.046
   6553597.226 9   5106245.90146  22500288.851    22500290.3414   22500299.4454
     -2044.898       -1593.427
   8496438.673 9   6477072.385 8  22487764.017    22487764.230    22487772.571
     -2265.314       -1765.180
 96 10 28 18  2 29.9950000  0  9 25 23 31 21  3  1  9 17 28         -0.004179549
  -4220055.971 9  -3271415.98546  23470979.812    23470981.5764   23470991.2804
      4530.161        3529.995
   1313925.773 9   1025867.65448  21331697.652    21331697.7654   21331704.6134
      -601.872        -468.991
 -17219255.750 9 -13385285.58948  21368731.593    21368732.0054   21368738.8354
      1474.712        1149.126
  -9547880.205 9  -7430841.93348  19471501.802    19471502.0444   19471508.5374
       959.256         747.472
  -5760578.889 9  -4472610.76948  20767008.767    20767009.6454   20767017.0894
      -767.257        -597.863
 -19570064.466 9 -15224601.79948  19050180.549    19050181.0834   19050187.8944
      1850.821        1442.198
  -8972849.158 9  -6977649.80247  22721972.908    22721973.3274   22721981.3414
      -104.206         -81.199
   6615039.069 9   5154122.51646  22511981.156    22511982.4964   22511991.7334
     -2051.463       -1598.543
   8564405.471 9   6530033.408 8  22500697.822    22500697.957    22500706.388
     -2266.253       -1765.911
 96 10 28 18  2 59.9950000  0  9 25 23 31 21  3  1  9 17 28         -0.004203789
  -4356002.993 8  -3377348.53646  23445110.223    23445111.6424   23445121.2084
      4532.960        3532.177
   1332031.829 9   1039976.23148  21335143.010    21335143.3584   21335150.2314
      -605.103        -471.509
 -17263208.885 9 -13419534.79848  21360367.687    21360367.9954   21360374.8294
      1455.476        1134.137
  -9576550.777 9  -7453182.64748  19466045.954    19466046.2244   19466052.7374
       952.026         741.838
  -5737354.144 9  -4454513.60148  20771428.323    20771429.1804   20771436.5774
      -781.054        -608.614
 -19625328.293 9 -15267664.51748  19039664.295    19039664.7174   19039671.5574
      1833.559        1428.747
  -8969464.521 9  -6975012.45047  22722616.561    22722617.4324   22722625.4554
      -121.410         -94.605
   6676680.720 9   5202154.86646  22523711.856    22523712.7164   22523721.9024
     -2057.925       -1603.578
   8632412.922 9   6583026.109 8  22513639.069    22513639.385    22513647.916
     -2267.570       -1766.938
 96 10 28 18  3 29.9950000  0  9 25 23 31 21  3  1  9 17 28         -0.004228026
  -4492020.447 8  -3483336.01046  23419227.055    23419228.3174   23419237.6014
      4534.130        3533.088
   1350247.978 9   1054170.59748  21338609.387    21338609.8574   21338616.7084
      -610.115        -475.414
 -17306577.231 9 -13453328.32848  21352114.944    21352115.2404   21352122.1434
      1435.038        1118.211
  -9604984.631 9  -7475338.90448  19460635.050    19460635.4304   19460641.9474
       942.944         734.762
  -5713703.788 9  -4436084.78648  20775928.987    20775929.7174   20775937.0664
      -796.387        -620.561
 -19680067.738 9 -15310318.61748  19029247.646    19029248.1174   19029254.9784
      1815.069        1414.339
  -8965548.352 9  -6971960.92346  22723361.654    22723362.5924   22723370.6344
      -140.461        -109.450
   6738536.496 9   5250354.08246  22535482.918    22535483.5984   22535492.4584
     -2066.659       -1610.384
   8700475.190 9   6636061.506 8  22526590.505    22526591.270    22526599.885
     -2270.654       -1769.341
 96 10 28 18  3 59.9950000  0  9 25 23 31 21  3  1  9 17 28         -0.004252268
  -4628117.424 8  -3589385.36946  23393328.600    23393329.8064   23393338.9134
      4537.958        3536.071
   1368563.803 9   1068442.63348  21342094.780    21342095.2804   21342102.1874
      -611.825        -476.747
 -17349389.745 9 -13486688.75448  21343967.624    21343968.2034   21343975.3114
      1418.065        1104.986
  -9633213.522 9  -7497335.44948  19455263.350    19455263.6474   19455270.1384
       937.930         730.855
  -5689638.034 9  -4417332.28748  20780508.582    20780509.3064   20780516.5824
      -809.060        -630.436
 -19734301.384 9 -15352578.59448  19018927.259    19018927.7274   19018934.6504
      1799.449        1402.168
  -8961114.934 9  -6968506.30646  22724205.503    22724206.1774   22724214.0954
      -155.917        -121.494
   6800603.788 9   5298718.09946  22547293.985    22547294.8284   22547303.5274
     -2072.201       -1614.702
   8768575.330 9   6689126.427 8  22539549.223    22539550.424    22539558.987
     -2270.366       -1769.116
 96 10 28 18  4 29.9950000  0  9 25 23 31 21  3  1  9 17 28         -0.004276519
  -4764291.932 9  -3695495.16146  23367415.167    23367416.5934   23367425.6354
      4540.116        3537.753
   1386960.951 9   1082778.03248  21345595.972    21345596.1604   21345603.0214
      -614.896        -479.140
 -17391651.509 9 -13519620.02347  21335925.291    21335926.0064   21335933.1584
      1399.107        1090.213
  -9661249.197 9  -7519181.44048  19449928.282    19449928.6604   19449935.1144
       930.785         725.287
  -5665150.569 9  -4398251.17548  20785168.494    20785169.2244   20785176.3654
      -823.668        -641.819
 -19788039.791 9 -15394452.66148  19008701.048    19008701.6444   19008708.5944
      1782.898        1389.271
  -8956192.260 9  -6964670.48646  22725142.368    22725142.8454   22725150.5854
      -172.601        -134.494
   6862871.531 9   5347238.26946  22559143.268    22559144.0254   22559152.7594
     -2079.059       -1620.046
   8836701.933 9   6742211.969 8  22552513.274    22552514.592    22552523.128
     -2271.703       -1770.158
 96 10 28 18  4 59.9950000  0  9 25 23 31 21  3  1  9 17 28         -0.004300772
  -4900548.146 9  -3801668.64946  23341486.375    23341487.6984   23341496.8234
      4544.018        3540.793
   1405432.146 9   1097171.13748  21349110.870    21349111.1154   21349117.9714
      -615.934        -479.949
 -17433360.196 9 -13552120.31347  21327988.649    21327989.1274   21327996.2074
      1381.926        1076.825
  -9689082.395 9  -7540869.65548  19444631.799    19444632.2164   19444638.6004
       925.450         721.130
  -5640241.947 9  -4378841.89448  20789908.340    20789909.2184   20789916.2644
      -836.161        -651.554
 -19841304.525 9 -15435957.63848  18998565.134    18998565.7634   18998572.6744
      1768.529        1378.075
  -8950777.766 9  -6960451.44547  22726172.791    22726173.2054   22726180.8114
      -187.763        -146.309
   6925331.992 9   5395908.65546  22571028.761    22571029.8494   22571038.5784
     -2084.550       -1624.325
   8904853.952 9   6795317.325 8  22565482.524    22565483.552    22565492.151
     -2271.196       -1769.763
 96 10 28 18  5 29.9950000  0  9 25 23 31 21  3  1  9 17 28         -0.004325015
  -5036858.584 9  -3907884.37646  23315547.982    23315548.6544   23315557.7694
      4545.728        3542.126
   1423986.392 9   1111628.95848  21352641.676    21352641.8934   21352648.8194
      -618.696        -482.101
 -17474495.747 9 -13584174.01147  21320160.774    21320161.3084   21320168.3904
      1362.850        1061.961
  -9716707.300 9  -7562395.56748  19439375.046    19439375.3724   19439381.7324
       918.720         715.886
  -5614917.031 9  -4359108.22948  20794727.623    20794728.4264   20794735.5084
      -849.836        -662.210
 -19894075.569 9 -15477077.92048  18988523.150    18988523.8254   18988530.6654
      1751.796        1365.036
  -8944851.198 9  -6955833.37447  22727300.398    22727301.0994   22727308.6134
      -204.994        -159.736
   6988019.828 9   5444756.18346  22582957.604    22582958.8344   22582967.8844
     -2092.177       -1630.268
   8973047.621 9   6848455.125 8  22578459.186    22578460.455    22578469.030
     -2272.620       -1770.873
 96 10 28 18  5 59.9950000  0  9 25 23 31 21  3  1  9 17 28         -0.004349277
  -5173241.410 8  -4014156.54746  23289594.241    23289595.7424   23289604.6924
      4546.627        3542.826
   1442595.798 9   1126129.76948  21356182.776    21356183.1674   21356190.1074
      -621.962        -484.646
 -17515089.418 9 -13615805.44447  21312436.353    21312436.6284   21312443.6924
      1343.230        1046.673
  -9744163.565 9  -7583790.06548  19434150.278    19434150.6274   19434156.9954
       911.545         710.295
  -5589207.298 9  -4339074.70648  20799619.810    20799620.8424   20799627.9544
      -863.941        -673.201
 -19946360.909 9 -15517819.72948  18978573.680    18978574.2684   18978581.0564
      1733.914        1351.102
  -8938436.495 9  -6950834.92047  22728520.930    22728521.8764   22728529.5344
      -222.503        -173.379
   7050901.458 9   5493754.74746  22594924.045    22594924.9074   22594933.7924
     -2099.737       -1636.159
   9041253.214 9   6901602.219 8  22591437.816    22591439.633    22591448.318
     -2274.337       -1772.211
 96 10 28 18  6 29.9950000  0  9 25 23 31 21  3  1  9 17 28         -0.004373548
  -5309690.104 9  -4120479.99646  23263628.602    23263630.1704   23263639.4874
      4549.348        3544.946
   1461277.425 9   1140686.84548  21359738.124    21359738.2344   21359745.2214
      -624.208        -486.396
 -17555113.084 9 -13646992.71348  21304820.118    21304820.4644   21304827.4454
      1324.405        1032.004
  -9771417.708 9  -7605027.06048  19428963.924    19428964.3524   19428970.7324
       904.739         704.991
  -5563111.520 9  -4318740.37048  20804585.754    20804586.6664   20804593.7984
      -876.512        -682.996
 -19998136.527 9 -15558164.35348  18968721.073    18968721.6974   18968728.4354
      1717.094        1337.995
  -8931521.021 9  -6945446.27246  22729837.078    22729837.9164   22729845.4554
      -239.263        -186.439
   7113976.282 9   5542903.86946  22606927.197    22606927.7674   22606936.6064
     -2105.735       -1640.832
   9109482.231 9   6954767.571 8  22604421.317    22604423.244    22604432.037
     -2274.893       -1772.644
 96 10 28 18  6 59.9950000  0  9 25 23 31 21  3  1  9 17 28         -0.004397834
  -5446214.920 9  -4226862.82546  23237649.539    23237650.1274   23237659.6604
      4552.420        3547.340
   1480038.907 9   1155306.14848  21363308.022    21363308.4294   21363315.4464
      -626.489        -488.173
 -17594569.306 9 -13677737.83048  21297311.784    21297312.2074   21297319.1834
      1306.182        1017.804
  -9798467.586 9  -7626104.88848  19423816.475    19423816.9324   19423823.3794
       898.791         700.357
  -5536630.579 9  -4298105.90148  20809624.648    20809625.8454   20809632.9734
      -888.822        -692.589
 -20049398.071 9 -15598108.40148  18958966.451    18958966.9524   18958973.6144
      1700.584        1325.130
  -8924098.254 9  -6939662.32346  22731249.392    22731250.2284   22731257.8214
      -255.313        -198.945
   7177235.212 9   5592196.40046  22618964.999    22618965.5344   22618974.4234
     -2111.528       -1645.346
   9177728.704 9   7007946.523 8  22617409.459    22617410.225    22617419.043
     -2274.658       -1772.461
 96 10 28 18  7 29.9950000  0  9 25 23 31 21  3  1  9 17 28         -0.004422138
  -5582826.162 9  -4333312.97946  23211653.447    23211653.8494   23211663.4714
      4555.683        3549.883
   1498885.583 9   1169991.84348  21366894.617    21366894.8674   21366901.9424
      -629.339        -490.394
 -17633472.802 9 -13708052.25047  21289908.879    21289909.1604   21289916.0214
      1288.164        1003.764
  -9825327.621 9  -7647034.78148  19418705.274    19418705.6264   19418712.1524
       892.630         695.556
  -5509759.474 9  -4277167.39948  20814738.172    20814739.2974   20814746.4084
      -901.967        -702.831
 -20100152.293 9 -15637657.13848  18949308.266    18949308.6774   18949315.3224
      1683.797        1312.050
  -8916187.161 9  -6933497.86847  22732754.776    22732755.8064   22732763.3164
      -271.317        -211.416
   7240678.077 9   5641632.29146  22631038.037    22631038.5154   22631047.0994
     -2117.142       -1649.721
   9245978.182 9   7061127.815 8  22630396.919    22630397.687    22630406.615
     -2274.562       -1772.386
 96 10 28 18  7 59.9950000  0  9 25 23 31 21  3  1  9 17 28         -0.004446459
  -5719526.781 9  -4439832.78846  23185638.819    23185640.3664   23185650.1844
      4557.813        3551.543
   1517830.892 9   1184754.38748  21370499.492    21370500.0824   21370507.2424
      -633.489        -493.628
 -17671825.696 9 -13737937.62447  21282610.477    21282610.8184   21282617.6584
      1268.668         988.572
  -9851993.476 9  -7667813.37048  19413630.815    19413631.2404   19413637.8774
       885.219         689.781
  -5482479.521 9  -4255910.32148  20819929.291    20819930.4934   20819937.6104
      -916.413        -714.088
 -20150400.003 9 -15676811.18448  18939746.409    18939746.8324   18939753.4984
      1666.401        1298.494
  -8907794.106 9  -6926957.87847  22734352.268    22734353.2184   22734360.5924
      -287.917        -224.351
   7304300.257 8   5691207.90946  22643145.245    22643145.6784   22643154.3124
     -2124.172       -1655.199
   9314228.989 9   7114310.122 8  22643384.450    22643385.404    22643394.454
     -2275.295       -1772.957
 96 10 28 18  8 29.9950000  0  9 25 23 31 21  3  1  9 17 28         -0.004470764
  -5856284.992 9  -4546397.45746  23159615.655    23159616.0354   23159625.8174
      4559.282        3552.687
   1536900.392 9   1199613.70448  21374128.257    21374128.9184   21374136.1534
      -637.649        -496.869
 -17709583.409 9 -13767359.23347  21275425.192    21275425.7044   21275432.6004
      1248.719         973.028
  -9878426.273 9  -7688410.35248  19408600.847    19408601.2464   19408607.9054
       877.129         683.477
  -5454759.804 9  -4234310.57048  20825204.269    20825205.4094   20825212.4374
      -931.458        -725.811
 -20200131.228 9 -15715562.77348  18930282.790    18930283.2844   18930289.9544
      1649.196        1285.088
  -8898902.001 9  -6920029.04146  22736044.996    22736045.4524   22736052.6514
      -304.895        -237.581
   7368130.219 8   5740945.41246  22655292.023    22655291.9344   22655301.0124
     -2131.305       -1660.757
   9382504.488 9   7167511.691 8  22656377.122    22656377.866    22656387.010
     -2276.293       -1773.735
 96 10 28 18  8 59.9950000  0  9 25 23 31 21  3  1  9 17 28         -0.004495067
  -5993099.957 9  -4653006.37146  23133580.274    23133580.8454   23133590.6574
      4560.650        3553.753
   1556065.077 9   1214547.19148  21377775.282    21377775.8514   21377783.2014
      -640.959        -499.449
 -17746782.720 9 -13796345.71647  21268346.391    21268346.9754   21268353.8674
      1229.961         958.411
  -9904651.997 9  -7708845.97648  19403610.237    19403610.6744   19403617.2914
       870.146         678.036
  -5426619.754 9  -4212383.28248  20830559.439    20830560.3864   20830567.3434
      -945.585        -736.819
 -20249378.309 9 -15753937.10448  18920911.382    18920911.8384   18920918.5034
      1632.804        1272.315
  -8889522.104 9  -6912720.08746  22737829.228    22737830.3824   22737837.4824
      -321.511        -250.528
   7432158.770 9   5790837.71246  22667475.667    22667476.2344   22667485.0714
     -2138.497       -1666.361
   9450779.048 9   7220712.520 8  22669369.199    22669370.207    22669379.320
     -2276.470       -1773.873
 96 10 28 18  9 29.9950000  0  9 25 23 31 21  3  1  9 17 28         -0.004519364
  -6129962.685 9  -4759652.49846  23107535.535    23107536.4354   23107546.4134
      4562.994        3555.580
   1575309.373 9   1229542.72748  21381437.175    21381437.9174   21381445.4034
      -642.357        -500.538
 -17783420.346 9 -13824894.53147  21261374.329    21261375.0324   21261381.9944
      1211.866         944.311
  -9930674.209 9  -7729123.02448  19398658.416    19398658.8204   19398665.3874
       864.342         673.513
  -5398072.809 9  -4190138.93448  20835991.837    20835992.7244   20835999.7124
      -957.780        -746.322
 -20298140.652 9 -15791933.71348  18911632.179    18911632.6304   18911639.3004
      1617.486        1260.379
  -8879648.981 9  -6905026.79246  22739707.794    22739709.1524   22739716.2324
      -337.202        -262.755
   7496393.792 9   5840890.83246  22679699.309    22679700.1044   22679708.7824
     -2144.136       -1670.755
   9519054.905 9   7273914.347 8  22682361.792    22682362.759    22682371.963
     -2275.644       -1773.229
 96 10 28 18  9 59.9950000  0  9 25 23 31 21  3  1  9 17 28         -0.004543657
  -6266870.759 8  -4866334.02546  23081483.466    23081483.6924   23081493.5694
      4564.036        3556.392
   1594614.909 9   1244585.97848  21385110.812    21385111.5924   21385119.1214
      -644.774        -502.421
 -17819479.767 9 -13852992.79548  21254512.452    21254513.1284   21254520.1554
      1191.869         928.729
  -9956504.450 9  -7749250.48648  19393743.100    19393743.4864   19393750.0084
       857.451         668.144
  -5369151.690 9  -4167603.03648  20841495.349    20841496.2234   20841503.2814
      -970.453        -756.197
 -20346424.161 9 -15829557.21648  18902444.019    18902444.5484   18902451.2304
      1601.175        1247.669
  -8869284.522 9  -6896950.61947  22741680.699    22741681.4684   22741688.5734
      -353.916        -275.779
   7560815.081 9   5891089.05846  22691958.353    22691958.9704   22691968.1174
     -2150.934       -1676.052
   9587321.625 9   7327109.087 8  22695352.513    22695353.559    22695362.646
     -2275.682       -1773.259
 96 10 28 18 10 29.9950000  0  9 25 23 31 21  3  1  9 17 28         -0.004567951
  -6403827.938 9  -4973053.81546  23055420.640    23055421.6444   23055431.0774
      4566.460        3558.281
   1613970.266 9   1259668.03148  21388794.098    21388794.8114   21388802.3304
      -645.621        -503.081
 -17854963.381 9 -13880642.37848  21247760.207    21247760.8854   21247767.7864
      1173.790         914.642
  -9982145.271 9  -7769230.35348  19388863.782    19388864.2014   19388870.6994
       851.928         663.840
  -5339874.699 9  -4144789.81948  20847066.536    20847067.4824   20847074.5624
      -981.428        -764.749
 -20394231.245 9 -15866809.47748  18893346.707    18893347.1544   18893353.7864
      1585.826        1235.708
  -8858428.502 9  -6888491.44547  22743746.521    22743747.2724   22743754.5394
      -369.912        -288.243
   7625418.596 9   5941429.33846  22704252.351    22704252.6314   22704261.8464
     -2156.111       -1680.086
   9655572.146 9   7380291.179 8  22708341.236    22708341.399    22708350.360
     -2274.435       -1772.287
 96 10 28 18 10 59.9950000  0  9 25 23 31 21  3  1  9 17 28         -0.004592256
  -6540847.521 8  -5079822.22146  23029346.772    23029347.5244   23029356.9164
      4568.078        3559.541
   1633375.223 9   1274788.74048  21392486.891    21392487.4554   21392494.9284
      -648.169        -505.067
 -17889891.762 9 -13907859.31648  21241113.847    21241114.2374   21241121.2774
      1154.539         899.641
 -10007606.836 9  -7789070.53648  19384018.621    19384019.0334   19384025.5094
       845.359         658.721
  -5310250.410 9  -4121705.98548  20852703.790    20852704.8444   20852712.0104
      -993.757        -774.356
 -20441557.402 9 -15903686.98948  18884340.670    18884341.2334   18884347.9384
      1569.109        1222.682
  -8847071.948 9  -6879642.23647  22745907.055    22745908.3594   22745915.8214
      -387.135        -301.664
   7690200.999 9   5991908.99146  22716580.100    22716580.3504   22716589.7634
     -2162.672       -1685.199
   9723805.086 9   7433459.567 8  22721325.552    22721325.894    22721334.681
     -2274.548       -1772.375
 96 10 28 18 11 29.9950000  0  9 25 23 31 21  3  1  9 17 28         -0.004616569
  -6677932.882 9  -5186641.86646  23003260.061    23003260.8094   23003270.2344
      4570.620        3561.522
   1652851.293 9   1289964.87447  21396193.171    21396193.6424   21396201.0234
      -650.725        -507.058
 -17924250.409 9 -13934632.31248  21234575.370    21234575.9404   21234583.1124
      1135.750         885.000
 -10032884.430 9  -7808767.36148  19379208.514    19379208.8574   19379215.3474
       839.421         654.094
  -5280268.477 9  -4098343.47148  20858409.219    20858410.2034   20858417.5074
     -1005.335        -783.378
 -20488390.966 9 -15940180.66648  18875428.657    18875429.1124   18875435.8424
      1552.857        1210.018
  -8835226.496 9  -6870412.05446  22748160.883    22748162.4604   22748170.1384
      -402.931        -313.972
   7755159.730 8   6042526.05846  22728941.409    22728941.7544   22728951.3564
     -2168.118       -1689.443
   9792025.409 9   7486618.156 8  22734307.558    22734307.928    22734316.635
     -2273.770       -1771.769
 96 10 28 18 11 59.9950000  0  9 25 23 31 21  3  1  9 17 28         -0.004640875
  -6815064.019 9  -5293497.25746  22977164.193    22977165.4744   22977174.8434
      4571.743        3562.397
   1672438.560 9   1305227.63747  21399920.354    21399920.9864   21399928.2494
      -654.711        -510.164
 -17958029.620 9 -13960953.79048  21228147.771    21228148.0394   21228155.1054
      1116.736         870.184
 -10057953.357 9  -7828301.60048  19374438.081    19374438.4144   19374444.8914
       832.105         648.394
  -5249904.589 9  -4074683.33048  20864187.454    20864188.3064   20864195.6594
     -1018.626        -793.735
 -20534710.911 9 -15976274.12348  18866614.228    18866614.7594   18866621.4534
      1535.535        1196.521
  -8822876.040 9  -6860788.33846  22750511.606    22750512.5414   22750520.3764
      -420.073        -327.330
   7820317.530 8   6093298.28046  22741340.253    22741340.9534   22741350.3234
     -2175.350       -1695.078
   9860247.213 9   7539777.829 8  22747289.718    22747290.116    22747298.839
     -2274.002       -1771.950
 96 10 28 18 12 29.9950000  0 10 25 15 23 31 21  3  1  9 17 28      -0.004665187
  -6952247.298 9  -5400393.24046  22951059.140    22951060.4514   22951069.7504
      4573.955        3564.121
   -407573.75818   -303631.41755  23357904.518           0.0005   23357914.3305
      4855.440        3783.460
   1692122.522 9   1320565.75647  21403665.971    21403666.6784   21403673.9454
      -657.414        -512.271
 -17991269.975 9 -13986855.37548  21221822.338    21221822.6164   21221829.6974
      1099.398         856.674
 -10082822.712 9  -7847680.32248  19369705.598    19369705.9694   19369712.4314
       826.104         643.717
  -5219156.905 9  -4050724.11248  20870038.605    20870039.4434   20870046.7584
     -1030.983        -803.363
 -20580536.188 9 -16011982.11848  18857893.990    18857894.5034   18857901.1864
      1519.752        1184.222
  -8810033.602 9  -6850781.27846  22752955.981    22752956.3074   22752964.1834
      -435.927        -339.683
   7885654.135 8   6144209.70746  22753773.390    22753774.1544   22753783.9984
     -2180.221       -1698.874
   9928453.310 9   7592925.310 8  22760269.441    22760269.526    22760278.233
     -2272.842       -1771.046
 96 10 28 18 12 59.9950000  0 10 25 15 23 31 21  3  1  9 17 28      -0.004689499
  -7089468.003 9  -5507318.43546  22924947.303    22924948.3404   22924957.4544
      4575.253        3565.132
   -553227.623 9   -417127.92145  23330196.856    23330189.7735   23330197.4614
      4856.015        3783.908
   1711915.690 9   1335988.98747  21407432.424    21407433.2494   21407440.4294
      -660.837        -514.938
 -18023966.111 9 -14012332.90947  21215600.541    21215600.7534   21215607.8344
      1081.497         842.725
 -10107495.790 9  -7866906.11148  19365010.541    19365010.8644   19365017.2894
       819.990         638.953
  -5188017.033 9  -4026459.30948  20875964.501    20875965.2394   20875972.5054
     -1043.688        -813.263
 -20625876.551 9 -16047312.25748  18849266.023    18849266.5054   18849273.1954
      1504.130        1172.049
  -8796705.253 9  -6840395.58947  22755491.539    22755492.6854   22755500.4444
      -451.266        -351.636
   7951159.101 9   6195252.40246  22766239.139    22766239.3954   22766249.3774
     -2185.442       -1702.942
   9996641.101 9   7646058.531 8  22773245.593    22773245.425    22773254.067
     -2271.718       -1770.170
 96 10 28 18 13 29.9950000  0 10 25 15 23 31 21  3  1  9 17 28      -0.004713806
  -7226702.436 9  -5614254.32746  22898832.435    22898833.6204   22898842.4344
      4573.918        3564.092
   -698881.147 9   -530624.22055  23302476.138    23302470.3994   23302479.1665
      4854.346        3782.607
   1731826.244 9   1351503.68747  21411221.590    21411222.0434   21411229.2744
      -666.308        -519.201
 -18056105.475 9 -14037376.57747  21209484.763    21209484.8394   21209491.8054
      1061.243         826.942
 -10131966.575 9  -7885974.26148  19360353.877    19360354.2344   19360360.6594
       811.624         632.434
  -5156486.188 9  -4001889.84848  20881964.699    20881965.3944   20881972.6564
     -1058.073        -824.472
 -20670724.111 9 -16082258.39648  18840731.723    18840732.3294   18840738.9844
      1486.032        1157.947
  -8782905.090 9  -6829642.25247  22758117.719    22758118.8224   22758126.6694
      -468.750        -365.260
   8016836.452 9   6246429.47446  22778736.986    22778737.4304   22778746.8264
     -2192.762       -1708.646
  10064812.128 9   7699178.662 8  22786217.950    22786218.076    22786226.793
     -2272.830       -1771.036
 96 10 28 18 13 59.9950000  0 10 25 15 23 31 21  3  1  9 17 28      -0.004738122
  -7363956.950 9  -5721205.81146  22872714.140    22872714.9714   22872723.7214
      4575.269        3565.145
   -844549.042 9   -644131.64445  23274755.544    23274752.9615   23274760.3654
      4855.797        3783.738
   1751825.649 9   1367087.60147  21415027.076    21415027.6804   21415035.0804
      -667.905        -520.445
 -18087710.341 9 -14062003.75348  21203470.565    21203470.6284   21203477.5534
      1044.614         813.985
 -10156253.836 9  -7904899.41248  19355732.167    19355732.4864   19355738.9684
       806.483         628.428
  -5124595.667 9  -3977040.11548  20888033.259    20888033.9924   20888041.1874
     -1069.001        -832.988
 -20715099.159 9 -16116836.33948  18832287.389    18832288.0274   18832294.6554
      1471.174        1146.369
  -8768641.848 9  -6818528.06447  22760831.913    22760833.0464   22760840.7554
      -483.124        -376.460
   8082659.107 8   6297719.68445  22791262.892    22791263.1054   22791272.7954
     -2196.356       -1711.446
  10132947.094 9   7752270.728 8  22799183.610    22799183.894    22799192.496
     -2270.581       -1769.284
 96 10 28 18 14 29.9950000  0 10 25 15 23 31 21  3  1  9 17 28      -0.004762448
  -7501217.660 9  -5828162.11646  22846594.388    22846595.0644   22846603.7854
      4575.525        3565.344
   -990222.642 9   -757643.56045  23247033.525    23247031.9484   23247039.8204
      4855.839        3783.771
   1771910.834 9   1382738.36347  21418849.127    21418849.7594   21418857.1794
      -671.012        -522.866
 -18118771.449 9 -14086207.24048  21197559.654    21197559.9264   21197566.9184
      1026.152         799.599
 -10180354.165 9  -7923678.90148  19351145.923    19351146.2904   19351152.8104
       800.180         623.517
  -5092348.078 9  -3951912.15248  20894169.496    20894170.4624   20894177.5764
     -1080.823        -842.200
 -20758988.755 9 -16151036.01248  18823935.484    18823936.0734   18823942.7344
      1454.711        1133.541
  -8753915.145 9  -6807052.72446  22763634.903    22763635.3994   22763643.0934
      -498.541        -388.474
   8148618.757 8   6349116.69446  22803814.772    22803815.1264   22803824.7024
     -2201.107       -1715.148
  10201050.004 9   7805337.776 8  22812143.171    22812143.471    22812152.208
     -2269.583       -1768.506
 96 10 28 18 14 59.9950000  0 10 25 15 23 31 21  3  1  9 17 28      -0.004786781
  -7638473.371 9  -5935114.53146  22820475.524    22820476.2334   22820484.7384
      4575.192        3565.085
  -1135880.455 9   -871143.16645  23219315.175    23219314.1074   23219322.0114
      4854.971        3783.094
   1792100.708 9   1398470.68947  21422691.292    21422691.7814   21422699.2874
      -674.733        -525.766
 -18149266.035 9 -14109969.25948  21191756.772    21191757.0904   21191764.1204
      1007.031         784.699
 -10204244.749 9  -7942294.94648  19346599.678    19346600.0544   19346606.5684
       792.673         617.667
  -5059736.265 9  -3926500.38048  20900375.213    20900376.2064   20900383.3084
     -1092.983        -851.675
 -20802360.894 9 -16184832.46648  18815682.123    18815682.6324   18815689.2834
      1436.972        1119.718
  -8738718.257 9  -6795211.01246  22766526.632    22766527.2494   22766534.9504
      -514.433        -400.857
   8214752.036 8   6400649.05246  22816399.737    22816400.2344   22816409.1684
     -2207.493       -1720.124
  10269137.250 9   7858392.626 8  22825099.880    22825100.117    22825109.000
     -2269.392       -1768.357
 96 10 28 18 15 29.9950000  0 10 25 15 23 31 21  3  1  9 17 28      -0.004811128
  -7775739.031 9  -6042074.65446  22794354.155    22794355.2294   22794363.8994
      4576.060        3565.761
  -1281523.090 9   -984630.91745  23191599.914    23191599.1974   23191607.1724
      4854.718        3782.897
   1812386.067 9   1414277.42447  21426551.528    21426551.9974   21426559.4214
      -677.526        -527.942
 -18179201.205 9 -14133295.38048  21186060.390    21186060.5564   21186067.7214
       988.667         770.390
 -10227917.034 9  -7960740.89548  19342095.126    19342095.3704   19342101.8584
       785.679         612.217
  -5026781.721 9  -3900821.54648  20906646.307    20906647.2764   20906654.4584
     -1103.952        -860.222
 -20845210.654 9 -16218221.87948  18807528.185    18807528.6204   18807535.2074
      1419.955        1106.458
  -8723046.761 9  -6782999.50446  22769508.449    22769509.5434   22769517.1784
      -530.286        -413.210
   8281060.450 8   6452317.74645  22829018.144    22829018.5774   22829027.7074
     -2212.959       -1724.384
  10337203.632 9   7911431.208 8  22838053.059    22838052.755    22838061.701
     -2268.253       -1767.470
 96 10 28 18 15 59.9950000  0 10 25 15 23 31 21  3  1  9 17 28      -0.004835491
  -7913032.167 9  -6149056.17346  22768227.158    22768229.1214   22768237.7464
      4577.138        3566.601
  -1427163.361 9  -1098116.90345  23163884.422    23163884.6874   23163892.7874
      4854.838        3782.991
   1832754.212 9   1430148.66447  21430427.518    21430428.0274   21430435.2814
      -680.022        -529.887
 -18208587.819 9 -14156194.05748  21180468.184    21180468.4684   21180475.6784
       970.653         756.353
 -10251380.556 9  -7979024.17348  19337630.139    19337630.4434   19337636.9094
       778.710         606.787
  -4993496.438 9  -3874885.00748  20912980.287    20912981.2364   20912988.4524
     -1114.876        -868.735
 -20887558.927 9 -16251220.52348  18799469.548    18799470.0384   18799476.5694
      1403.524        1093.655
  -8706898.912 9  -6770416.80546  22772581.498    22772582.4654   22772589.9214
      -545.881        -425.362
   8347531.758 9   6504113.46346  22841667.542    22841667.7064   22841676.9624
     -2218.247       -1728.504
  10405231.468 9   7964439.758 8  22850998.875    22850997.986    22851007.195
     -2266.716       -1766.272
 96 10 28 18 16 29.9950000  0 10 25 15 23 31 21  3  1  9 17 28      -0.004859860
  -8050357.797 9  -6256063.00746  22742095.106    22742096.7764   22742105.4214
      4578.502        3567.664
  -1572793.704 9  -1211595.05045  23136171.428    23136171.9154   23136180.0724
      4854.470        3782.704
   1853209.606 9   1446087.89747  21434320.232    21434320.6144   21434327.7784
      -683.061        -532.255
 -18237419.598 9 -14178660.38047  21174981.570    21174982.0184   21174989.1524
       951.994         741.814
 -10274616.508 9  -7997130.11748  19333208.481    19333208.8294   19333215.2144
       770.924         600.720
  -4959867.374 9  -3848680.57648  20919379.796    20919380.6974   20919387.8714
     -1126.534        -877.819
 -20929405.983 9 -16283828.60548  18791506.438    18791506.8104   18791513.3284
      1387.020        1080.795
  -8690270.105 9  -6757459.32146  22775746.204    22775746.8874   22775754.1414
      -561.952        -437.885
   8414180.594 8   6556047.45845  22854350.664    22854350.6404   22854360.4204
     -2224.473       -1733.356
  10473223.385 9   8017420.343 8  22863936.930    22863936.370    22863945.606
     -2265.507       -1765.330
 96 10 28 18 16 59.9950000  0 10 25 15 23 31 21  3  1  9 17 28      -0.004884225
  -8187720.099 9  -6363098.40146  22715956.682    22715957.4384   22715966.0504
      4579.103        3568.132
  -1718405.357 9  -1325058.69045  23108462.787    23108462.9924   23108471.1544
      4853.109        3781.643
   1873759.975 9   1462101.11947  21438230.794    21438231.2694   21438238.4844
      -686.861        -535.216
 -18265685.922 9 -14200686.09247  21169602.565    21169603.0474   21169610.1604
       932.507         726.629
 -10297610.773 9  -8015047.73548  19328832.850    19328833.1884   19328839.5864
       762.235         593.949
  -4925879.401 9  -3822196.45048  20925847.407    20925848.4464   20925855.5094
     -1139.081        -887.596
 -20970755.981 9 -16316049.37148  18783637.793    18783638.0884   18783644.6484
      1369.909        1067.462
  -8673152.552 9  -6744121.01446  22779003.932    22779004.3124   22779011.6944
      -579.063        -451.218
   8481019.301 8   6608129.49746  22867069.602    22867069.8174   22867079.5164
     -2231.078       -1738.502
  10541183.482 9   8070376.093 8  22876868.834    22876868.867    22876878.300
     -2264.999       -1764.934
 96 10 28 18 17 29.9950000  0 10 25 15 23 31 21  3  1  9 17 28      -0.004908589
  -8325125.203 9  -6470167.13046  22689808.673    22689809.9324   22689818.7214
      4581.408        3569.928
  -1864007.731 9  -1438515.08945  23080755.764    23080755.8904   23080763.7664
      4853.933        3782.285
   1894393.207 9   1478178.92747  21442157.221    21442157.7354   21442164.8794
      -688.352        -536.378
 -18293404.339 9 -14222284.87547  21164328.044    21164328.3994   21164335.4334
       915.599         713.454
 -10320387.443 9  -8032795.79849  19324498.623    19324498.9524   19324505.3764
       756.510         589.488
  -4891546.999 9  -3795443.96448  20932380.705    20932381.7304   20932388.8254
     -1149.632        -895.817
 -21011628.394 9 -16347897.99748  18775859.960    18775860.2924   18775866.8994
      1355.135        1055.949
  -8655548.994 9  -6730403.98946  22782353.845    22782354.1704   22782361.6234
      -594.232        -463.038
   8548027.685 8   6660343.64746  22879820.457    22879821.1434   22879831.0964
     -2235.800       -1742.182
  10609097.233 9   8123295.762 8  22889792.030    22889792.613    22889802.188
     -2262.291       -1762.824
 96 10 28 18 17 59.9950000  0 10 25 15 23 31 21  3  1  9 17 28      -0.004932951
  -8462549.109 9  -6577250.51646  22663658.055    22663658.8974   22663667.8534
      4580.783        3569.441
  -2009589.520 8  -1551955.47845  23053052.076    23053052.5534   23053060.5444
      4852.172        3780.913
   1915108.489 9   1494320.66247  21446099.225    21446099.7994   21446106.9324
      -692.014        -539.232
 -18320580.185 9 -14243460.85347  21159157.073    21159157.0164   21159163.9264
       896.816         698.818
 -10342948.259 9  -8050375.66449  19320205.500    19320205.7804   19320212.2934
       748.213         583.023
  -4856847.560 9  -3768405.48548  20938983.857    20938984.7934   20938992.0244
     -1162.969        -906.210
 -21052009.959 9 -16379364.13848  18768175.448    18768175.8734   18768182.5584
      1337.595        1042.282
  -8637449.594 9  -6716300.62146  22785797.235    22785798.3584   22785805.9564
      -611.688        -476.640
   8615220.840 8   6712701.79946  22892606.758    22892607.4964   22892617.5514
     -2243.081       -1747.855
  10676971.535 9   8176184.692 8  22902708.702    22902708.771    22902718.464
     -2261.964       -1762.569
 96 10 28 18 18 29.9950000  0 10 25 15 23 31 21  3  1  9 17 28      -0.004957318
  -8599983.266 9  -6684341.89046  22637505.142    22637505.9204   22637514.9014
      4580.839        3569.485
  -2155150.715 9  -1665379.77946  23025351.937    23025352.9674   23025360.9034
      4851.331        3780.258
   1935897.134 9   1510519.55547  21450055.059    21450055.6834   21450062.9414
      -694.533        -541.195
 -18347223.935 9 -14264222.22647  21154086.593    21154086.8674   21154093.7924
       878.823         684.797
 -10365306.798 9  -8067797.91249  19315950.897    19315951.0974   19315957.6714
       741.878         578.087
  -4821780.787 9  -3741080.75748  20945656.863    20945657.8344   20945665.0454
     -1175.348        -915.856
 -21091896.139 9 -16410444.27048  18760585.301    18760585.7644   18760592.5054
      1320.868        1029.248
  -8618866.061 9  -6701819.99046  22789334.647    22789334.6624   22789342.2764
      -627.756        -489.161
   8682598.427 8   6765203.69746  22905428.483    22905429.1604   22905438.9774
     -2249.442       -1752.812
  10744801.469 9   8229039.009 8  22915616.264    22915616.432    22915626.337
     -2260.551       -1761.468
 96 10 28 18 18 59.9950000  0 10 25 15 23 31 21  3  1  9 17 28      -0.004981700
  -8737423.432 9  -6791437.93146  22611350.726    22611351.8134   22611360.8664
      4581.108        3569.695
  -2300698.129 9  -1778793.30545  22997655.946    22997656.2144   22997664.1194
      4851.063        3780.049
   1956753.185 9   1526770.97847  21454024.047    21454024.5244   21454031.7554
      -696.619        -542.820
 -18373344.808 9 -14284576.15747  21149116.237    21149116.2814   21149123.1674
       861.676         671.436
 -10387497.730 9  -8085089.55949  19311728.050    19311728.3424   19311734.9434
       736.813         574.140
  -4786365.870 9  -3713484.74248  20952396.231    20952397.1094   20952404.2254
     -1186.180        -924.296
 -21131293.065 9 -16441143.16348  18753088.480    18753088.8374   18753095.5144
      1304.959        1016.851
  -8599811.035 8  -6686971.96346  22792960.153    22792960.6374   22792968.4534
      -643.194        -501.190
   8750156.361 8   6817846.05046  22918284.261    22918285.0854   22918295.1474
     -2255.185       -1757.287
  10812575.511 9   8281849.798 8  22928513.209    22928513.640    22928523.450
     -2258.436       -1759.820
 96 10 28 18 19 29.9950000  0 10 25 15 23 31 21  3  1  9 17 28      -0.005006082
  -8874838.538 9  -6898514.46646  22585201.121    22585202.4844   22585211.4244
      4579.821        3568.692
  -2446210.653 9  -1892179.72946  22969966.398    22969966.1004   22969973.9854
      4849.670        3778.964
   1977697.816 9   1543091.42747  21458009.680    21458010.2164   21458017.4534
      -699.808        -545.305
 -18398929.062 9 -14304511.95247  21144247.869    21144247.6994   21144254.7324
       843.477         657.255
 -10409510.721 9  -8102242.54349  19307539.182    19307539.4584   19307546.0074
       730.477         569.203
  -4750605.995 9  -3685619.93348  20959201.090    20959201.9894   20959209.1764
     -1197.942        -933.461
 -21170193.984 9 -16471455.55248  18745685.758    18745686.2334   18745692.9044
      1288.412        1003.957
  -8580266.408 9  -6671742.44546  22796677.645    22796679.6084   22796687.7364
      -659.768        -514.105
   8817915.082 8   6870644.91045  22931178.729    22931179.1024   22931189.0734
     -2262.132       -1762.700
  10880309.936 9   8334629.685 8  22941402.927    22941403.137    22941413.028
     -2257.303       -1758.937
 96 10 28 18 19 59.9940000  0 10 25 15 23 31 21  3  1  9 17 28      -0.005030455
  -9012219.643 9  -7005564.48146  22559058.843    22559059.6044   22559068.4894
      4579.086        3568.119
  -2591685.518 9  -2005536.72846  22942283.258    22942283.4074   22942291.0984
      4848.773        3778.265
   1998725.630 9   1559476.67747  21462011.520    21462011.7234   21462018.9974
      -702.483        -547.389
 -18423961.679 9 -14324017.89847  21139483.925    21139484.0734   21139491.2324
       824.947         642.816
 -10431334.474 9  -8119248.06748  19303386.265    19303386.5534   19303393.0614
       724.270         564.366
  -4714511.710 9  -3657494.55148  20966069.504    20966070.5074   20966077.7794
     -1208.615        -941.778
 -21208612.378 9 -16501391.95048  18738375.000    18738375.4624   18738382.0704
      1272.761         991.762
  -8560249.182 9  -6656144.64546  22800487.336    22800488.9614   22800496.9514
      -674.880        -525.880
   8885856.823 8   6923586.37345  22944107.413    22944108.1164   22944117.9424
     -2267.689       -1767.030
  10947995.485 8   8387371.518 8  22954283.778    22954283.392    22954293.290
     -2255.435       -1757.482
 96 10 28 18 20 29.9940000  0 10 25 15 23 31 21  3  1  9 17 28      -0.005054820
  -9149588.604 9  -7112605.03246  22532918.050    22532918.9554   22532927.8174
      4579.024        3568.071
  -2737138.712 9  -2118876.91346  22914604.530    22914604.6464   22914612.2324
      4848.279        3777.880
   2019845.785 9   1575933.92047  21466030.669    21466030.8424   21466037.9474
      -705.440        -549.693
 -18448425.192 9 -14343080.38947  21134828.219    21134828.8464   21134835.9364
       805.992         628.046
 -10452974.442 9  -8136110.38748  19299268.344    19299268.6224   19299275.1184
       718.411         559.801
  -4678098.628 9  -3629120.75248  20972998.629    20972999.6794   20973006.9884
     -1218.646        -949.594
 -21246566.126 9 -16530966.28848  18731152.516    18731153.0674   18731159.6604
      1257.585         979.936
  -8539786.035 9  -6640199.36246  22804382.320    22804383.1254   22804391.0394
      -689.113        -536.971
   8953961.974 8   6976655.15845  22957067.736    22957068.1924   22957078.3044
     -2272.492       -1770.773
  11015625.542 9   8440070.055 8  22967153.548    22967153.137    22967163.230
     -2253.132       -1755.687
 96 10 28 18 20 59.9940000  0 10 25 15 23 31 21  3  1  9 17 28      -0.005079150
  -9286943.263 9  -7219634.48546  22506780.252    22506781.1164   22506789.9624
      4578.198        3567.427
  -2882559.837 9  -2232192.02746  22886931.575    22886931.8694   22886939.5114
      4846.779        3776.711
   2041078.676 9   1592478.97147  21470070.982    21470071.3854   21470078.4544
      -709.722        -553.030
 -18472310.269 9 -14361692.14147  21130283.354    21130283.6894   21130290.6884
       786.628         612.957
 -10474407.466 9  -8152811.44648  19295189.855    19295190.0824   19295196.5264
       710.644         553.749
  -4641379.658 9  -3600508.59548  20979985.747    20979987.0164   20979994.4124
     -1228.999        -957.662
 -21284049.964 9 -16560174.46348  18724019.309    18724020.0824   18724026.6874
      1241.674         967.538
  -8518883.117 9  -6623911.42446  22808360.350    22808360.9364   22808368.6144
      -703.994        -548.567
   9022211.914 8   7029836.80845  22970055.524    22970056.0174   22970065.6594
     -2277.213       -1774.452
  11083198.724 9   8492724.333 8  22980011.456    22980011.969    22980021.877
     -2251.469       -1754.391
 96 10 28 18 21 29.9940000  0 10 25 15 23 31 21  3  1  9 17 28      -0.005103483
  -9424253.066 9  -7326628.96346  22480650.983    22480651.8164   22480660.5564
      4575.660        3565.449
  -3027924.268 9  -2345463.03346  22859269.924    22859269.9814   22859277.4514
      4844.104        3774.626
   2062446.907 9   1609129.50247  21474136.782    21474137.6694   21474144.6614
      -714.867        -557.039
 -18495595.193 9 -14379836.25447  21125852.588    21125852.6704   21125859.7014
       765.601         596.572
 -10495586.900 9  -8169314.90548  19291159.505    19291159.7754   19291166.2334
       701.252         546.430
  -4604333.911 9  -3571641.80148  20987035.373    20987036.5924   20987044.0144
     -1240.951        -966.975
 -21321035.209 9 -16588994.12248  18716981.297    18716982.0354   18716988.5934
      1223.877         953.670
  -8497524.154 9  -6607268.08846  22812425.018    22812425.3744   22812433.1124
      -720.163        -561.166
   9090615.135 8   7083137.88245  22983072.375    22983072.8834   22983082.7074
     -2282.948       -1778.921
  11150734.365 9   8545349.300 8  22992862.937    22992863.736    22992873.495
     -2250.965       -1753.999
 96 10 28 18 21 59.9940000  0 10 25 15 23 31 21  3  1  9 17 28      -0.005127808
  -9561518.261 9  -7433588.68546  22454529.466    22454531.0794   22454539.6464
      4575.685        3565.469
  -3173236.370 9  -2458693.22346  22831617.539    22831618.0284   22831625.5544
      4843.663        3774.283
   2083944.074 9   1625880.51447  21478227.567    21478228.4714   21478235.4694
      -718.056        -559.524
 -18518279.172 9 -14397512.09547  21121535.921    21121536.0214   21121543.0254
       747.072         582.134
 -10516515.425 9  -8185622.85048  19287177.012    19287177.1954   19287183.6814
       694.419         541.106
  -4566952.592 9  -3542513.53748  20994148.928    20994150.0394   20994157.5334
     -1250.891        -974.720
 -21357504.650 9 -16617411.86248  18710041.360    18710042.1294   18710048.6894
      1207.681         941.050
  -8475715.295 9  -6590274.22346  22816574.787    22816575.5364   22816583.1644
      -733.698        -571.713
   9159161.867 9   7136550.71946  22996116.538    22996116.8374   22996127.3804
     -2286.583       -1781.753
  11218223.879 8   8597938.327 8  23005706.391    23005706.803    23005716.474
     -2247.948       -1751.648
 96 10 28 18 22 29.9940000  0 10 25 15 23 31 21  3  1  9 17 28      -0.005152142
  -9698773.524 9  -7540540.69346  22428411.361    22428412.2024   22428420.6064
      4574.271        3564.367
  -3318520.321 9  -2571901.45446  22803971.421    22803971.3864   22803979.0284
      4841.475        3772.578
   2105557.865 9   1642722.37347  21482340.548    21482341.4804   21482348.6174
      -723.029        -563.399
 -18540410.356 9 -14414757.18247  21117324.095    21117324.6464   21117331.5894
       727.932         567.220
 -10537225.159 9  -8201760.31048  19283235.863    19283236.2024   19283242.7734
       685.830         534.413
  -4529257.605 9  -3513140.84648  21001322.134    21001323.2584   21001330.7104
     -1262.390        -983.681
 -21393473.111 9 -16645439.22048  18703196.834    18703197.5834   18703204.1584
      1189.881         927.180
  -8453471.587 9  -6572941.51046  22820806.942    22820808.3684   22820816.0944
      -749.645        -584.139
   9227839.367 9   7190065.50945  23009186.007    23009186.0964   23009196.2184
     -2292.273       -1786.187
  11285637.948 9   8650468.620 8  23018535.401    23018535.587    23018545.058
     -2246.655       -1750.640
 96 10 28 18 22 59.9940000  0 10 25 15 23 31 21  3  1  9 17 28      -0.005176473
  -9835999.943 9  -7647470.23046  22402298.387    22402298.8104   22402307.0544
      4574.486        3564.535
  -3463755.072 9  -2685071.40746  22776332.990    22776334.0304   22776341.8284
      4841.015        3772.219
   2127288.421 9   1659655.23547  21486475.998    21486476.6854   21486483.7954
      -725.275        -565.149
 -18561990.053 9 -14431572.55047  21113217.720    21113218.1414   21113225.2344
       710.909         553.955
 -10557692.640 9  -8217708.99748  19279341.007    19279341.3664   19279347.8904
       679.113         529.179
  -4491237.282 9  -3483514.65648  21008557.137    21008558.2954   21008565.7234
     -1272.055        -991.212
 -21428934.698 9 -16673071.61748  18696448.932    18696449.4944   18696456.0754
      1174.642         915.305
  -8430754.587 9  -6555239.98746  22825130.656    22825131.2814   22825139.1984
      -764.642        -595.825
   9296680.662 8   7243707.96945  23022285.074    23022286.0744   23022296.1974
     -2296.935       -1789.819
  11352992.761 8   8702952.631 8  23031352.537    23031352.839    23031362.548
     -2243.460       -1748.151
 96 10 28 18 23 29.9940000  0 10 25 15 23 31 21  3  1  9 17 28      -0.005200816
  -9973232.941 9  -7754404.88346  22376183.291    22376184.1434   22376192.4114
      4573.681        3563.907
  -3608975.317 9  -2798229.98546  22748698.396    22748699.5044   22748707.5594
      4839.432        3770.986
   2149076.428 9   1676632.85447  21490622.344    21490622.8254   21490629.9044
      -728.240        -567.460
 -18583055.574 9 -14447987.26247  21109209.235    21109209.5724   21109216.5624
       692.741         539.798
 -10577972.160 9  -8233511.21948  19275481.946    19275482.2864   19275488.8094
       672.029         523.659
  -4452923.440 9  -3453659.73448  21015848.130    21015849.1654   21015856.5904
     -1283.068        -999.793
 -21463941.210 9 -16700349.41248  18689787.370    18689787.9934   18689794.5844
      1158.358         902.617
  -8407583.449 9  -6537184.59746  22829539.843    22829540.6104   22829548.6904
      -780.958        -608.539
   9365669.191 8   7297465.08646  23035413.518    23035414.2124   23035424.5824
     -2303.132       -1794.648
  11420249.090 9   8755359.962 8  23044152.021    23044151.494    23044161.018
     -2241.199       -1746.389
 96 10 28 18 23 59.9940000  0 10 25 15 23 31 21  3  1  9 17 28      -0.005225156
 -10110434.783 9  -7861315.26446  22350074.680    22350075.3794   22350083.6944
      4573.410        3563.696
  -3754136.342 9  -2911342.47346  22721074.976    22721076.1644   22721084.2844
      4838.149        3769.986
   2170971.592 9   1693693.95547  21494788.791    21494789.3514   21494796.5164
      -731.126        -569.709
 -18603581.751 9 -14463981.69547  21105303.777    21105303.6474   21105310.5734
       675.868         526.650
 -10598033.227 9  -8249143.22549  19271664.395    19271664.8144   19271671.2754
       665.560         518.618
  -4414268.238 9  -3423538.83448  21023203.525    21023204.9004   21023212.4394
     -1293.642       -1008.033
 -21498455.464 9 -16727243.63248  18683219.529    18683220.1744   18683226.7554
      1142.841         890.525
  -8383918.290 9  -6518744.25746  22834043.206    22834043.9594   22834052.1334
      -796.433        -620.597
   9434847.977 8   7351370.53245  23048577.474    23048578.5784   23048588.7254
     -2308.509       -1798.838
  11487446.774 8   8807721.574 8  23056939.526    23056938.889    23056948.285
     -2238.453       -1744.249
 96 10 28 18 24 29.9940000  0 10 25 15 23 31 21  3  1  9 17 28      -0.005249478
 -10247623.731 9  -7968215.59446  22323968.199    22323969.0854   22323977.3974
      4572.138        3562.705
  -3899258.084 9  -3024424.35746  22693459.960    22693460.3944   22693468.6734
      4836.327        3768.566
   2192942.698 9   1710814.26747  21498969.768    21498970.3204   21498977.4634
      -733.731        -571.738
 -18623607.374 9 -14479586.08947  21101492.660    21101492.8294   21101499.8074
       658.707         513.278
 -10617902.088 9  -8264625.45948  19267883.636    19267883.9444   19267890.3734
       658.736         513.301
  -4375303.723 9  -3393176.89948  21030618.243    21030619.5704   21030627.1744
     -1304.204       -1016.263
 -21532510.907 9 -16753780.33848  18676739.004    18676739.6094   18676746.2104
      1127.228         878.359
  -8359792.645 9  -6499945.07746  22838634.092    22838634.8124   22838642.9744
      -812.170        -632.860
   9504184.137 8   7405398.64245  23061772.649    23061772.7774   23061782.5894
     -2313.974       -1803.097
  11554561.011 9   8860018.152 8  23069710.851    23069710.485    23069719.993
     -2236.115       -1742.427
 96 10 28 18 24 59.9940000  0 10 25 15 23 31 21  3  1  9 17 28      -0.005273809
 -10384767.456 9  -8075080.70246  22297870.735    22297871.4394   22297879.7304
      4570.775        3561.643
  -4044321.836 9  -3137461.06746  22665855.716    22665855.7574   22665863.9614
      4834.542        3767.176
   2214980.766 9   1727986.73547  21503163.468    21503163.9874   21503171.2374
      -735.790        -573.343
 -18643109.593 9 -14494782.64148  21097781.307    21097781.7114   21097788.6464
       641.485         499.858
 -10637567.646 9  -8279949.27648  19264141.357    19264141.7124   19264148.1154
       652.293         508.280
  -4336022.878 9  -3362568.48148  21038092.832    21038094.4744   21038102.0874
     -1314.557       -1024.330
 -21566093.369 9 -16779948.48648  18670348.427    18670349.0304   18670355.6354
      1111.377         866.008
  -8335198.449 9  -6480780.78146  22843313.754    22843314.9844   22843323.0344
      -827.453        -644.769
   9573678.841 8   7459550.22946  23074996.907    23074997.3864   23075007.4884
     -2318.843       -1806.891
  11621605.421 8   8912260.346 8  23082468.609    23082468.660    23082478.202
     -2233.527       -1740.411
 96 10 28 18 25 29.9940000  0 10 25 15 23 31 21  3  1  9 17 28      -0.005298155
 -10521878.337 9  -8181920.22847  22271778.800    22271779.8854   22271788.3064
      4569.286        3560.483
  -4189341.559 9  -3250463.41646  22638259.155    22638259.4484   22638267.6624
      4832.782        3765.804
   2237087.081 9   1745212.39047  21507370.204    21507370.6794   21507378.0114
      -738.673        -575.589
 -18662112.423 9 -14509590.05748  21094164.998    21094165.6544   21094172.6354
       624.655         486.744
 -10657045.547 9  -8295126.86148  19260434.847    19260435.1784   19260441.5974
       645.543         503.021
  -4296438.217 9  -3331723.29848  21045625.971    21045627.2614   21045634.8024
     -1324.963       -1032.439
 -21599195.254 9 -16805742.15248  18664049.389    18664049.9114   18664056.5594
      1094.780         853.075
  -8310168.609 9  -6461277.04646  22848076.818    22848078.1934   22848086.0544
      -841.782        -655.934
   9643298.638 8   7513799.33245  23088245.179    23088245.7984   23088255.7804
     -2323.019       -1810.145
  11688561.176 9   8964433.458 8  23095210.027    23095210.041    23095219.551
     -2230.740       -1738.239
 96 10 28 18 25 59.9940000  0 10 25 15 23 31 21  3  1  9 17 28      -0.005322522
 -10658955.981 9  -8288733.83446  22245693.906    22245694.7394   22245703.1624
      4568.077        3559.541
  -4334320.464 9  -3363433.98446  22610670.667    22610670.9674   22610679.2244
      4831.351        3764.689
   2259264.726 9   1762493.63047  21511590.771    21511590.9894   21511598.3114
      -740.946        -577.361
 -18680623.673 9 -14524014.42147  21090642.573    21090643.1594   21090650.1884
       607.957         473.733
 -10676332.305 9  -8310155.51348  19256764.598    19256765.0314   19256771.4834
       639.138         498.030
  -4256561.294 9  -3300650.40048  21053214.730    21053215.6914   21053223.2004
     -1334.529       -1039.893
 -21631815.418 9 -16831160.46248  18657841.759    18657842.4774   18657849.1274
      1078.805         840.627
  -8284729.577 9  -6441454.46346  22852918.008    22852919.1104   22852927.0944
      -855.374        -666.525
   9713026.377 9   7568132.49745  23101514.041    23101514.5164   23101524.4934
     -2326.730       -1813.036
  11755420.225 9   9016531.198 8  23107933.226    23107933.039    23107942.632
     -2227.560       -1735.761
 96 10 28 18 26 29.9940000  0 10 25 15 23 31 21  3  1  9 17 28      -0.005346904
 -10795987.639 9  -8395511.63446  22219617.506    22219618.4114   22219626.7684
      4567.210        3558.865
  -4479247.758 9  -3476364.34046  22583091.350    22583092.1434   22583100.5154
      4830.286        3763.859
   2281515.200 9   1779831.61247  21515824.737    21515825.1394   21515832.5054
      -742.697        -578.725
 -18698606.622 9 -14538027.12047  21087220.599    21087221.0924   21087228.1944
       590.647         460.244
 -10695419.953 9  -8325029.01448  19253132.291    19253132.7624   19253139.2484
       633.176         493.384
  -4216402.116 9  -3269357.57448  21060856.890    21060857.7784   21060865.3224
     -1342.889       -1046.407
 -21663954.977 9 -16856204.27248  18651725.773    18651726.5184   18651733.1564
      1063.700         828.857
  -8258867.913 9  -6421302.58246  22857839.193    22857840.5514   22857848.4024
      -869.050        -677.182
   9782877.896 8   7622562.26645  23114806.930    23114807.1044   23114816.7444
     -2330.370       -1815.873
  11822188.903 9   9068558.470 8  23120639.200    23120638.855    23120648.592
     -2223.848       -1732.869
 96 10 28 18 26 59.9940000  0 10 25 15 23 31 21  3  1  9 17 28      -0.005371276
 -10932959.878 9  -8502243.12346  22193552.446    22193553.4364   22193561.5264
      4563.935        3556.313
  -4624100.909 9  -3589236.92546  22555527.903    22555527.5974   22555535.7944
      4826.299        3760.752
   2303872.815 9   1797253.09747  21520079.184    21520079.7724   21520087.0354
      -748.285        -583.079
 -18716027.080 9 -14551601.52048  21083905.696    21083906.1154   21083913.2694
       570.423         444.485
 -10714280.780 9  -8339725.76948  19249543.164    19249543.6254   19249550.1684
       623.999         486.233
  -4175948.033 9  -3237834.94748  21068555.720    21068555.9994   21068563.6184
     -1354.382       -1055.362
 -21695599.135 9 -16880862.05648  18645704.236    18645704.8454   18645711.4684
      1045.681         814.816
  -8232548.781 9  -6400794.19746  22862848.073    22862848.9054   22862856.6914
      -885.830        -690.257
   9852887.168 8   7677114.73845  23128129.616    23128129.5844   23128139.5894
     -2337.122       -1821.134
  11888884.660 8   9120528.990 8  23133331.031    23133330.772    23133340.507
     -2222.848       -1732.089
 96 10 28 18 27 29.9940000  0 10 25 15 23 31 21  3  1  9 17 28      -0.005395636
 -11069884.604 9  -8608937.59646  22167496.810    22167497.3594   22167505.4334
      4562.816        3555.441
  -4768887.694 9  -3702057.84646  22527976.271    22527975.9314   22527983.7604
      4824.641        3759.461
   2326352.541 9   1814769.70447  21524357.321    21524357.5744   21524364.8974
      -751.772        -585.796
 -18732885.410 9 -14564737.89847  21080697.717    21080698.1044   21080705.3284
       551.844         430.008
 -10732920.549 9  -8354250.27248  19245996.093    19245996.5624   19246003.1184
       617.129         480.880
  -4135204.009 9  -3206086.39648  21076308.974    21076309.3914   21076317.0374
     -1363.441       -1062.422
 -21726768.376 9 -16905149.77348  18639772.852    18639773.5084   18639780.1624
      1030.925         803.318
  -8205782.398 9  -6379937.28646  22867941.258    22867942.3134   22867950.4104
      -900.102        -701.378
   9923048.197 9   7731785.63545  23141480.654    23141480.9484   23141490.7934
     -2341.818       -1824.793
  11955494.320 9   9172432.329 8  23146006.737    23146006.291    23146016.259
     -2219.281       -1729.310
 96 10 28 18 27 59.9940000  0 10 25 15 23 31 21  3  1  9 17 28      -0.005419955
 -11206722.934 9  -8715564.74046  22141456.196    22141457.7084   22141465.7154
      4561.064        3554.076
  -4913578.359 9  -3814803.81146  22500442.570    22500442.2094   22500450.1474
      4822.590        3757.862
   2348979.613 9   1832401.14447  21528662.849    21528663.4124   21528670.8194
      -755.448        -588.661
 -18749128.668 9 -14577395.00947  21077606.406    21077607.0474   21077614.3924
       532.302         414.781
 -10751308.295 9  -8368578.39549  19242496.920    19242497.4844   19242504.0834
       609.839         475.199
  -4094142.189 9  -3174090.20948  21084122.767    21084123.2204   21084130.8494
     -1372.857       -1069.759
 -21757453.111 9 -16929059.94948  18633933.719    18633934.3904   18633941.0134
      1015.868         791.585
  -8178532.701 9  -6358703.77246  22873126.594    22873127.8544   22873135.8554
      -915.432        -713.324
   9993402.321 8   7786606.99745  23154868.624    23154869.1684   23154879.1954
     -2347.313       -1829.075
  12022043.213 9   9224288.351 8  23158671.261    23158670.316    23158680.421
     -2216.081       -1726.816
 96 10 28 18 28 29.9940000  0 10 25 15 23 31 21  3  1  9 17 28      -0.005444249
 -11343503.898 9  -8822147.19646  22115427.792    22115429.0114   22115437.0484
      4557.844        3551.567
  -5058196.735 9  -3927493.46046  22472921.925    22472922.1014   22472930.3484
      4818.847        3754.946
   2371719.513 9   1850120.49347  21532990.018    21532990.6954   21532998.2304
      -760.371        -592.497
 -18764788.479 9 -14589597.46347  21074625.995    21074627.1594   21074634.3824
       511.988         398.952
 -10769463.279 9  -8382725.14449  19239042.189    19239042.7214   19239049.2924
       600.636         468.028
  -4052789.502 9  -3141867.37748  21091991.718    21091992.2994   21092000.0564
     -1383.895       -1078.360
 -21787678.089 9 -16952611.88048  18628182.037    18628182.7734   18628189.3794
       999.165         778.570
  -8150808.540 9  -6337100.54946  22878402.300    22878403.6114   22878411.7204
      -932.662        -726.750
  10063928.840 9   7841562.53146  23168289.537    23168290.1884   23168300.8614
     -2354.123       -1834.382
  12088502.669 8   9276074.732 8  23171318.083    23171317.108    23171327.488
     -2214.366       -1725.480
 96 10 28 18 28 59.9940000  0 10 25 15 23 31 21  3  1  9 17 28      -0.005468522
 -11480226.930 9  -8928684.51346  22089410.595    22089411.4314   22089419.4054
      4556.998        3550.908
  -5202739.677 9  -4040124.28346  22445416.110    22445416.3034   22445424.6144
      4817.460        3753.865
   2394569.058 9   1867925.27247  21537338.390    21537338.8364   21537346.3084
      -762.787        -594.379
 -18779887.558 9 -14601362.98247  21071753.075    21071753.9194   21071761.0634
       494.664         385.452
 -10787371.855 9  -8396679.88849  19235634.361    19235634.8374   19235641.4094
       593.432         462.415
  -4011135.553 9  -3109409.79447  21099917.832    21099918.6934   21099926.6294
     -1392.838       -1085.328
 -21817429.908 9 -16975795.10648  18622520.255    18622521.1324   18622527.8114
       984.462         767.113
  -8122609.696 9  -6315127.45246  22883768.522    22883769.5574   22883777.7604
      -946.903        -737.846
  10134619.171 8   7896645.87545  23181742.106    23181742.0254   23181752.1514
     -2358.167       -1837.533
  12154870.909 9   9327789.992 8  23183947.628    23183946.830    23183957.347
     -2210.154       -1722.198
 96 10 28 18 29 29.9940000  0 10 25 15 23 31 21  3  1  9 17 28      -0.005492796
 -11616902.314 9  -9035184.70546  22063401.380    22063402.8554   22063410.8294
      4555.135        3549.456
  -5347221.139 9  -4152707.24546  22417922.046    22417922.4104   22417930.5884
      4814.983        3751.935
   2417503.063 9   1885795.86947  21541702.479    21541703.0704   21541710.4484
      -765.632        -596.596
 -18794447.150 9 -14612708.13547  21068982.454    21068983.2724   21068990.5324
       476.550         371.338
 -10805049.034 9  -8410454.32549  19232270.567    19232270.9964   19232277.5494
       585.290         456.070
  -3969201.206 9  -3076733.72347  21107897.606    21107898.4754   21107906.4734
     -1402.365       -1092.752
 -21846727.767 9 -16998624.60448  18616945.199    18616945.8574   18616952.6084
       968.976         755.046
  -8093978.694 9  -6292817.60546  22889216.057    22889217.7274   22889226.0864
      -961.380        -749.127
  10205446.990 8   7951836.29145  23195219.620    23195220.1164   23195230.4844
     -2363.158       -1841.422
  12221129.194 9   9379419.519 8  23196556.478    23196555.620    23196566.256
     -2206.784       -1719.572
 96 10 28 18 29 59.9940000  0 10 25 15 23 31 21  3  1  9 17 28      -0.005517078
 -11753526.662 9  -9141645.13246  22037402.532    22037403.9154   22037412.0064
      4553.800        3548.416
  -5491629.307 9  -4265233.05646  22390442.518    22390442.4474   22390450.5804
      4812.819        3750.249
   2440510.978 9   1903724.04547  21546081.027    21546081.4164   21546088.7764
      -767.640        -598.161
 -18808485.517 9 -14623647.13647  21066311.225    21066311.9244   21066319.1114
       460.023         358.459
 -10822484.908 9  -8424040.73049  19228952.639    19228953.0964   19228959.6244
       577.809         450.241
  -3926992.978 9  -3043844.22547  21115929.439    21115930.3864   21115938.3604
     -1410.752       -1099.287
 -21875549.871 9 -17021083.38348  18611460.526    18611461.1964   18611467.9914
       953.055         742.640
  -8064917.448 9  -6270172.48546  22894746.685    22894747.8664   22894756.3114
      -975.345        -760.009
  10276424.065 9   8007142.98646  23208726.496    23208726.9054   23208737.1464
     -2367.841       -1845.071
  12287284.128 8   9430968.545 8  23209145.520    23209144.700    23209155.470
     -2202.939       -1716.576
 96 10 28 18 30 29.9940000  0 10 25 15 23 31 21  3  1  9 17 28      -0.005541387
 -11890107.506 9  -9248071.65546  22011412.016    22011413.3134   22011421.4004
      4550.695        3545.996
  -5635969.748 9  -4377706.13446  22362975.220    22362975.3884   22362983.3214
      4809.096        3747.348
   2463583.981 9   1921702.98447  21550471.398    21550472.1204   21550479.3384
      -771.400        -601.091
 -18822035.462 9 -14634205.53347  21063732.690    21063733.4404   21063740.5804
       442.290         344.642
 -10839702.820 9  -8437457.29549  19225676.122    19225676.6684   19225683.2394
       569.343         443.644
  -3884538.314 9  -3010762.69847  21124008.062    21124009.2914   21124017.1384
     -1420.452       -1106.846
 -21903892.976 9 -17043168.91848  18606067.034    18606067.6814   18606074.5194
       935.814         729.206
  -8035441.024 9  -6247203.85146  22900355.589    22900356.8764   22900365.3214
      -990.470        -771.795
  10347529.945 8   8062550.10645  23222257.484    23222257.5654   23222268.1714
     -2373.254       -1849.289
  12353325.951 8   9482429.446 8  23221712.565    23221712.322    23221723.196
     -2200.599       -1714.752
 96 10 28 18 30 59.9940000  0 10 25 15 23 31 21  3  1  9 17 28      -0.005565711
 -12026626.783 9  -9354450.19647  21985433.369    21985434.4194   21985442.5674
      4549.466        3545.038
  -5780230.275 9  -4490116.91546  22335522.930    22335523.4114   22335531.4034
      4807.194        3745.865
   2486745.074 9   1939750.53247  21554878.594    21554879.5074   21554886.9264
      -773.777        -602.943
 -18835080.736 9 -14644370.69147  21061250.266    21061250.9844   21061258.1114
       426.163         332.075
 -10856701.452 9  -8450702.99349  19222441.560    19222441.9724   19222448.5514
       562.853         438.587
  -3841820.047 9  -2977475.76847  21132136.888    21132138.3564   21132146.0964
     -1428.505       -1113.121
 -21931755.897 9 -17064880.28448  18600765.026    18600765.5694   18600772.3224
       920.771         717.484
  -8005559.184 9  -6223919.32446  22906041.455    22906043.2484   22906051.7114
     -1002.739        -781.355
  10418755.772 8   8118050.63845  23235810.772    23235811.1474   23235821.7954
     -2376.243       -1851.618
  12419261.831 9   9533807.742 8  23234259.276    23234259.801    23234270.765
     -2196.218       -1711.339
 96 10 28 18 31 29.9940000  0 10 25 15 23 31 21  3  1  9 17 28      -0.005590052
 -12163096.984 9  -9460790.51146  21959463.460    21959464.8954   21959473.0284
      4548.828        3544.541
  -5924426.141 9  -4602477.34546  22308083.294    22308083.7284   22308091.9244
      4806.214        3745.102
   2509985.614 9   1957859.99547  21559301.419    21559301.9984   21559309.4954
      -775.309        -604.137
 -18847632.979 9 -14654151.66747  21058861.976    21058862.4284   21058869.5044
       411.089         320.329
 -10873508.360 9  -8463799.29749  19219243.204    19219243.7304   19219250.3154
       557.819         434.664
  -3798852.686 9  -2943994.74647  21140313.107    21140314.8414   21140322.5024
     -1435.772       -1118.783
 -21959162.972 9 -17086236.44648  18595549.795    18595550.2634   18595556.8754
       906.534         706.390
  -7975302.141 9  -6200342.45346  22911799.524    22911801.0844   22911809.5144
     -1014.272        -790.342
  10490080.057 8   8173627.94945  23249383.162    23249383.6364   23249394.1934
     -2378.231       -1853.167
  12485071.361 9   9585087.661 8  23246782.680    23246783.175    23246793.937
     -2190.759       -1707.085
 96 10 28 18 31 59.9940000  0 10 25 15 23 31 21  3  1  9 17 28      -0.005614410
 -12299503.159 9  -9567080.93446  21933505.801    21933507.6764   21933515.5714
      4545.074        3541.616
  -6068550.522 9  -4714782.03146  22280656.128    22280657.6414   22280666.0004
      4802.402        3742.131
   2533317.433 9   1976040.57947  21563741.247    21563741.9374   21563749.4134
      -779.932        -607.739
 -18859702.211 9 -14663556.28147  21056565.120    21056565.6404   21056572.7744
       393.591         306.694
 -10890121.645 9  -8476744.72649  19216081.655    19216082.3174   19216088.9214
       550.059         428.617
  -3755624.779 9  -2910310.70147  21148539.437    21148540.9114   21148548.5374
     -1445.802       -1126.599
 -21986096.562 9 -17107223.66048  18590424.427    18590425.0294   18590431.5754
       889.569         693.171
  -7944644.535 9  -6176453.42246  22917634.436    22917635.1164   22917643.2334
     -1029.217        -801.987
  10561498.571 8   8229278.54845  23262973.265    23262973.9034   23262984.6624
     -2382.644       -1856.606
  12550756.859 8   9636270.835 8  23259283.045    23259282.930    23259293.537
     -2187.923       -1704.875
 96 10 28 18 32 29.9940000  0 10 25 15 23 31 21  3  1  9 17 28      -0.005638764
 -12435828.396 9  -9673308.28346  21907564.352    21907565.7264   21907573.5194
      4543.182        3540.142
  -6212601.674 9  -4827029.69846  22253243.777    22253245.5444   22253253.9004
      4800.817        3740.896
   2556752.400 9   1994301.53847  21568200.788    21568201.5534   21568208.9444
      -782.470        -609.717
 -18871277.244 9 -14672575.80747  21054362.584    21054362.9874   21054370.0784
       377.744         294.346
 -10906532.386 9  -8489532.33449  19212959.022    19212959.4774   19212966.0434
       543.782         423.726
  -3712122.052 9  -2876412.50447  21156817.930    21156819.2374   21156826.8994
     -1454.643       -1133.488
 -22012577.617 9 -17127858.25148  18585385.324    18585385.8694   18585392.4194
       875.756         682.407
  -7913577.910 9  -6152245.67546  22923546.043    22923546.9284   22923554.8614
     -1041.925        -811.890
  10632997.130 8   8284991.72445  23276579.485    23276579.7244   23276589.7334
     -2384.205       -1857.822
  12616314.839 8   9687354.701 8  23271757.611    23271758.251    23271768.974
     -2182.703       -1700.808
 96 10 28 18 32 59.9940000  0 10 25 15 23 31 21  3  1  9 17 28      -0.005663127
 -12572092.605 9  -9779488.08747  21881634.382    21881635.4474   21881643.0144
      4540.936        3538.392
  -6356606.952 9  -4939241.57846  22225840.691    22225842.3264   22225850.6034
      4799.249        3739.675
   2580259.176 9   2012618.43447  21572674.099    21572674.6424   21572682.2784
      -784.894        -611.606
 -18882379.838 9 -14681227.18247  21052249.728    21052250.3094   21052257.3404
       362.096         282.153
 -10922756.066 9  -8502174.18249  19209871.673    19209872.2434   19209878.7654
       537.580         418.894
  -3668358.617 9  -2842311.18047  21165145.897    21165147.1554   21165154.9414
     -1462.965       -1139.973
 -22038642.869 9 -17148168.84548  18580425.193    18580425.7744   18580432.3754
       861.641         671.409
  -7882135.357 9  -6127745.00946  22929529.340    22929530.3204   22929538.2084
     -1054.471        -821.666
  10704551.566 7   8340748.30245  23290196.354    23290196.2544   23290206.9524
     -2386.337       -1859.483
  12681713.081 8   9738314.130 8  23284202.233    23284203.089    23284213.986
     -2177.381       -1696.661
 96 10 28 18 33 29.9940000  0 10 25 15 23 31 21  3  1  9 17 28      -0.005687495
 -12708271.630 9  -9885601.51047  21855720.502    21855721.4024   21855728.8844
      4537.987        3536.094
  -6500544.730 9  -5051400.90146  22198450.727    22198451.8844   22198460.0554
      4796.810        3737.774
   2603855.513 9   2031005.13947  21577164.486    21577164.9384   21577172.5784
      -787.812        -613.879
 -18893000.534 9 -14689503.05747  21050228.722    21050229.2814   21050236.3194
       346.148         269.726
 -10938781.231 9  -8514661.33449  19206822.059    19206822.7554   19206829.2914
       530.877         413.670
  -3624342.384 9  -2808012.85947  21173522.082    21173523.1374   21173531.0394
     -1471.198       -1146.388
 -22064264.538 9 -17168133.78248  18575549.341    18575550.0594   18575556.7374
       846.713         659.776
  -7850295.369 9  -6102934.66246  22935588.112    22935589.3714   22935597.2844
     -1068.038        -832.237
  10776189.519 8   8396569.82045  23303827.381    23303828.3834   23303839.6654
     -2389.319       -1861.807
  12746968.691 9   9789162.328 8  23296619.605    23296620.753    23296631.908
     -2172.695       -1693.009
 96 10 28 18 33 59.9940000  0 10 25 15 23 31 21  3  1  9 17 28      -0.005711860
 -12844353.682 9  -9991639.37147  21829825.138    21829825.8464   21829833.2474
      4533.719        3532.768
  -6644399.019 9  -5163495.13046  22171076.251    22171077.2894   22171085.6094
      4792.903        3734.730
   2627538.757 9   2049459.57347  21581671.574    21581671.7604   21581679.5084
      -791.536        -616.781
 -18903125.929 9 -14697392.99747  21048301.989    21048302.4604   21048309.5614
       328.178         255.723
 -10954588.316 9  -8526978.55549  19203814.264    19203814.8114   19203821.3224
       522.425         407.084
  -3580076.552 9  -2773520.05247  21181945.665    21181946.6324   21181954.6014
     -1480.348       -1153.518
 -22089437.177 9 -17187748.82448  18570759.050    18570759.8044   18570766.5464
       831.011         647.541
  -7818033.706 9  -6077795.76846  22941727.861    22941728.5494   22941736.5714
     -1083.195        -844.048
  10847934.083 8   8452474.61145  23317479.919    23317481.3214   23317491.6994
     -2394.240       -1865.642
  12812092.304 8   9839907.767 8  23309012.185    23309013.588    23309024.462
     -2169.379       -1690.425
 96 10 28 18 34 29.9940000  0 10 25 15 23 31 21  3  1  9 17 28      -0.005736233
 -12980340.181 9 -10097602.77747  21803947.639    21803948.3964   21803955.8164
      4531.428        3530.983
  -6788159.698 9  -5275516.41646  22143719.564    22143720.5524   22143728.9714
      4790.358        3732.746
   2651301.677 9   2067976.08347  21586193.447    21586193.7564   21586201.5324
      -793.477        -618.294
 -18912728.677 9 -14704875.67247  21046474.706    21046475.1814   21046482.2504
       311.272         242.550
 -10970173.646 9  -8539122.98449  19200848.649    19200849.0494   19200855.5464
       515.924         402.019
  -3535558.487 9  -2738830.69147  21190417.796    21190418.2294   21190426.1404
     -1488.205       -1159.640
 -22114163.244 9 -17207015.89148  18566053.711    18566054.5344   18566061.3274
       816.450         636.195
  -7785348.966 9  -6052327.18946  22947947.921    22947948.3404   22947956.4904
     -1096.529        -854.438
  10919802.438 8   8508475.80445  23331156.360    23331157.5264   23331168.3744
     -2397.845       -1868.451
  12877089.404 8   9890554.538 8  23321381.023    23321382.350    23321393.322
     -2164.531       -1686.648
 96 10 28 18 34 59.9940000  0 10 25 15 23 31 21  3  1  9 17 28      -0.005760612
 -13116259.638 9 -10203513.92847  21778082.675    21778083.7174   21778091.2224
      4530.173        3530.005
  -6931837.216 9  -5387472.91946  22116378.487    22116379.5624   22116388.1284
      4788.313        3731.153
   2675134.570 9   2086547.11647  21590729.041    21590729.1104   21590736.8624
      -795.328        -619.736
 -18921819.350 9 -14711959.33247  21044744.963    21044745.2974   21044752.3774
       295.039         229.901
 -10985566.594 9  -8551117.50448  19197919.382    19197919.8594   19197926.3594
       510.410         397.722
  -3490817.987 9  -2703968.00847  21198930.832    21198932.1034   21198939.9454
     -1494.205       -1164.316
 -22138437.100 9 -17225930.58548  18561434.661    18561435.4004   18561442.1694
       802.108         625.019
  -7752264.095 8  -6026546.79846  22954243.968    22954244.2474   22954252.4924
     -1108.912        -864.087
  10991788.952 9   8564568.96646  23344856.354    23344856.3784   23344867.3524
     -2400.977       -1870.891
  12941944.671 8   9941090.866 8  23333723.688    23333724.282    23333735.058
     -2158.902       -1682.261
 96 10 28 18 35 29.9940000  0 10 25 15 23 31 21  3  1  9 17 28      -0.005785006
 -13252137.898 9 -10309393.00347  21752226.282    21752226.8524   21752234.3754
      4529.984        3529.858
  -7075435.490 9  -5499367.66646  22089053.327    22089053.7964   22089062.4104
      4786.586        3729.807
   2699045.680 9   2105179.10647  21595279.432    21595279.2824   21595286.9784
      -797.073        -621.096
 -18930404.747 9 -14718649.26347  21043111.017    21043111.4664   21043118.5794
       279.134         217.507
 -11000771.152 9  -8562965.22549  19195026.061    19195026.5374   19195033.0044
       504.899         393.428
  -3445881.857 9  -2668952.89547  21207482.683    21207483.2264   21207491.1214
     -1499.893       -1168.748
 -22162275.352 9 -17244505.84948  18556898.304    18556899.1664   18556905.8874
       788.767         614.624
  -7718785.602 8  -6000459.69446  22960615.173    22960614.8984   22960623.1454
     -1121.271        -873.718
  11063884.266 8   8620747.03545  23358575.677    23358576.1374   23358586.5584
     -2403.694       -1873.008
  13006649.193 8   9991509.662 8  23346036.829    23346037.269    23346048.218
     -2152.914       -1677.595
 96 10 28 18 35 59.9940000  0 10 25 15 23 31 21  3  1  9 17 28      -0.005809429
 -13387999.662 9 -10415259.22947  21726372.443    21726373.1724   21726380.6244
      4527.930        3528.257
  -7218974.240 9  -5611216.04846  22061738.510    22061739.2664   22061747.8274
      4783.286        3727.236
   2723024.821 9   2123864.09047  21599842.479    21599842.4274   21599849.9944
      -801.141        -624.266
 -18938508.205 9 -14724963.67547  21041568.802    21041569.3494   21041576.6644
       261.681         203.907
 -11015805.648 9  -8574680.42948  19192165.188    19192165.5694   19192172.0674
       498.154         388.172
  -3400764.626 9  -2633796.65747  21216067.921    21216068.7964   21216076.7434
     -1507.228       -1174.463
 -22185705.455 9 -17262763.06948  18552439.858    18552440.6294   18552447.2624
       773.902         603.041
  -7684929.137 8  -5974078.09346  22967057.953    22967057.5004   22967065.7444
     -1135.065        -884.466
  11136073.170 8   8676998.01145  23372312.420    23372313.5294   23372323.9014
     -2408.051       -1876.403
  13071178.538 8  10041791.974 8  23358316.052    23358316.987    23358328.213
     -2148.329       -1674.023
 96 10 28 18 36 29.9940000  0 10 25 15 23 31 21  3  1  9 17 28      -0.005833853
 -13523819.920 9 -10521093.11647  21700526.691    21700527.3444   21700534.8064
      4525.765        3526.570
  -7362440.022 9  -5723007.55846  22034438.471    22034438.5994   22034447.1354
      4780.290        3724.901
   2747119.396 9   2142639.05347  21604427.223    21604427.6344   21604435.0854
      -806.042        -628.085
 -18946123.715 9 -14730897.87047  21040119.935    21040120.2044   21040127.5014
       245.232         191.090
 -11030671.683 9  -8586264.36549  19189336.205    19189336.6584   19189343.1994
       491.981         383.362
  -3355456.665 9  -2598491.79147  21224689.721    21224690.6654   21224698.5764
     -1514.089       -1179.810
 -22208715.526 9 -17280692.99648  18548061.205    18548061.9944   18548068.5594
       759.301         591.663
  -7650696.776 9  -5947403.59546  22973572.636    22973571.7474   22973579.8664
     -1147.908        -894.474
  11208356.679 8   8733322.67046  23386068.394    23386068.8694   23386079.4874
     -2411.624       -1879.188
  13135541.614 8  10091944.746 8  23370564.251    23370565.094    23370576.652
     -2143.283       -1670.091
 96 10 28 18 36 59.9940000  0 10 25 15 23 31 21  3  1  9 17 28      -0.005858259
 -13659548.428 9 -10626855.51847  21674698.465    21674699.0294   21674706.4074
      4522.108        3523.721
  -7505801.500 9  -5834717.78746  22007157.344    22007157.7874   22007166.3034
      4776.564        3721.998
   2771376.831 9   2161540.88447  21609043.701    21609043.7854   21609051.3484
      -811.437        -632.288
 -18953236.859 9 -14736440.58247  21038766.243    21038766.6664   21038773.9954
       228.316         177.909
 -11045330.201 9  -8597686.59549  19186546.716    19186547.2244   19186553.8334
       484.515         377.544
  -3309942.873 9  -2563026.53847  21233351.243    21233351.6974   21233359.5554
     -1520.829       -1185.062
 -22231280.375 9 -17298275.99148  18543767.344    18543768.0894   18543774.5444
       744.514         580.141
  -7616065.717 8  -5920418.37546  22980161.965    22980161.8194   22980170.0544
     -1161.401        -904.988
  11280755.751 8   8789737.35545  23399845.352    23399845.8394   23399856.8344
     -2415.554       -1882.250
  13199764.494 8  10141988.198 8  23382785.775    23382786.588    23382798.604
     -2138.850       -1666.636
 96 10 28 18 37 29.9940000  0  9 25 15 23 31 21  3  1  9 17         -0.005882628
 -13795137.921 9 -10732509.58147  21648896.397    21648897.1244   21648904.4694
      4517.905        3520.445
  -7649029.474 9  -5946324.00446  21979901.542    21979902.4374   21979910.9134
      4772.891        3719.136
   2795798.749 9   2180570.88547  21613691.081    21613691.1834   21613698.8764
      -815.534        -635.481
 -18959825.695 9 -14741574.76047  21037512.385    21037512.8984   21037520.1304
       211.849         165.077
 -11059736.251 9  -8608912.09949  19183805.406    19183805.8544   19183812.4504
       476.856         371.576
  -3264193.874 9  -2527378.00747  21242056.571    21242057.4444   21242065.1904
     -1528.191       -1190.798
 -22253383.589 9 -17315499.27048  18539561.176    18539561.9754   18539568.4104
       729.820         568.691
  -7581003.209 8  -5893096.94045  22986834.152    22986833.9564   22986842.2454
     -1175.176        -915.721
  11353289.980 8   8846257.40845  23413647.572    23413648.1484   23413659.0524
     -2419.299       -1885.168
 96 10 28 18 37 59.9940000  0  8 25 15 23 31 21  3  1  9            -0.005906989
 -13930592.298 9 -10838058.36447  21623120.244    21623120.9304   21623128.3704
      4513.026        3516.644
  -7792152.903 9  -6057848.75246  21952666.608    21952666.9024   21952675.3784
      4769.270        3716.314
   2820321.944 9   2199679.80747  21618357.699    21618357.8524   21618365.5594
      -818.594        -637.865
 -18965924.606 9 -14746327.17647  21036351.923    21036352.3134   21036359.5224
       195.273         152.161
 -11073919.963 9  -8619964.35349  19181106.361    19181106.8104   19181113.3644
       469.280         365.673
  -3218231.203 9  -2491562.98847  21250802.814    21250803.8974   21250811.6354
     -1535.319       -1196.352
 -22275044.100 9 -17332377.58748  18535439.359    18535440.1444   18535446.5544
       714.870         557.042
  -7545537.669 7  -5865461.49155  22993583.126    22993582.4014          0.0005
     -1188.594        -926.177
 96 10 28 18 38 29.9940000  0  8 25 15 23 31 21  3  1  9            -0.005931357
 -14065902.489 9 -10943494.82047  21597371.229    21597372.1004   21597379.6874
      4507.616        3512.428
  -7935168.597 9  -6169289.52446  21925452.206    21925451.9554   21925460.4124
      4764.967        3712.961
   2844916.328 9   2218844.21147  21623037.256    21623038.0594   21623045.7274
      -821.052        -639.781
 -18971527.403 9 -14750693.01547  21035286.080    21035286.1824   21035293.4124
       178.066         138.753
 -11087865.207 9  -8630830.78949  19178452.531    19178453.1364   19178459.5924
       460.259         358.643
  -3172052.572 9  -2455579.68447  21259590.436    21259591.4804   21259599.1154
     -1543.481       -1202.712
 -22296252.602 9 -17348903.69448  18531403.542    18531404.3094   18531410.7314
       698.843         544.553
  -7509671.15117  -5837513.59154  23000408.252    23000409.9775          0.0005
     -1202.762        -937.217
 96 10 28 18 38 59.9940000  0  7 25 15 23 31 21  3  1               -0.005955753
 -14201087.933 9 -11048834.04847  21571646.155    21571647.0434   21571654.7594
      4504.329        3509.867
  -8078082.375 9  -6280650.90446  21898256.611    21898256.3624   21898264.7244
      4762.127        3710.748
   2869537.160 9   2238029.20747  21627723.003    21627723.3094   21627730.9874
      -820.953        -639.704
 -18976642.043 9 -14754678.47047  21034312.611    21034312.9664   21034320.1594
       162.350         126.506
 -11101566.158 9  -8641506.85849  19175845.390    19175845.9774   19175852.3694
       452.779         352.815
  -3125661.297 9  -2419430.67947  21268418.272    21268419.5524   21268427.1374
     -1549.788       -1207.627
 -22317007.944 9 -17365076.68349  18527453.956    18527454.7224   18527461.1554
       684.320         533.236
 96 10 28 18 39 29.9940000  0  7 25 15 23 31 21  3  1               -0.005980181
 -14336154.397 9 -11154080.56947  21545943.781    21545944.7764   21545952.4224
      4500.731        3507.063
  -8220884.827 9  -6391925.51346  21871081.299    21871081.8624   21871090.2474
      4758.547        3707.959
   2894189.030 9   2257238.39347  21632414.783    21632414.4264   21632422.0174
      -822.270        -640.730
 -18981264.567 9 -14758280.45547  21033433.038    21033433.3704   21033440.5844
       146.320         114.016
 -11115026.714 9  -8651995.61249  19173284.100    19173284.5764   19173290.9274
       445.303         346.989
  -3079054.724 9  -2383113.93147  21277287.482    21277288.4304   21277296.1344
     -1556.743       -1213.046
 -22337302.043 9 -17380890.27549  18523592.261    18523592.9424   18523599.3374
       669.148         521.414
 96 10 28 18 39 59.9940000  0  7 25 15 23 31 21  3  1               -0.006004640
 -14471115.829 9 -11259245.25147  21520261.397    21520262.4564   21520269.9064
      4497.307        3504.395
  -8363576.946 9  -6503114.18446  21843927.708    21843928.5074   21843936.7864
      4754.699        3704.960
   2918899.697 9   2276493.38247  21637116.495    21637116.7224   21637124.3154
      -824.800        -642.701
 -18985408.542 9 -14761509.54847  21032644.404    21032644.7334   21032651.9964
       130.404         101.614
 -11128268.548 9  -8662313.93349  19170764.321    19170764.7674   19170771.1384
       437.925         341.240
  -3032244.500 9  -2346638.47747  21286195.523    21286196.0764   21286203.9644
     -1563.426       -1218.254
 -22357133.956 9 -17396343.72049  18519818.320    18519819.0614   18519825.5214
       653.627         509.320
 96 10 28 18 40 29.9930000  0  7 25 15 23 31 21  3  1               -0.006029126
 -14605992.210 9 -11364343.65047  21494595.252    21494596.2504   21494603.6034
      4494.508        3502.214
  -8506161.084 9  -6614218.66346  21816794.721    21816795.6524   21816804.0464
      4750.984        3702.065
   2943682.388 9   2295804.53047  21641832.284    21641832.8154   21641840.3764
      -827.836        -645.067
 -18989092.617 9 -14764380.27747  21031942.955    21031943.6914   21031950.9834
       114.965          89.583
 -11141309.104 9  -8672475.40849  19168282.665    19168283.2204   19168289.6544
       431.369         336.132
  -2985250.197 9  -2310019.57347  21295138.081    21295138.7944   21295146.7324
     -1569.903       -1223.301
 -22376525.738 9 -17411454.19949  18516128.216    18516128.9164   18516135.4194
       639.011         497.931
 96 10 28 18 40 59.9930000  0  7 25 15 23 31 21  3  1               -0.006053622
 -14740785.856 9 -11469377.59547  21468945.166    21468945.8704   21468953.0494
      4491.740        3500.057
  -8648635.105 9  -6725237.35246  21789683.066    21789683.7084   21789692.1704
      4747.327        3699.216
   2968571.382 9   2315198.48247  21646568.555    21646569.0934   21646576.8054
      -831.454        -647.886
 -18992314.732 9 -14766891.03247  21031329.856    21031330.5504   21031337.8064
        99.859          77.812
 -11154161.338 9  -8682490.14248  19165836.892    19165837.5014   19165843.9364
       425.481         331.544
  -2938066.516 9  -2273253.10747  21304117.050    21304117.6874   21304125.5294
     -1575.556       -1227.706
 -22395484.620 9 -17426227.36349  18512520.576    18512521.1814   18512527.6594
       625.095         487.087
 96 10 28 18 41 29.9930000  0  7 25 15 23 31 21  3  1               -0.006078123
 -14875491.351 9 -11574342.83247  21443310.909    21443312.2244   21443319.3064
      4488.500        3497.532
  -8790999.044 9  -6836170.29246  21762592.326    21762592.8854   21762601.2584
      4743.541        3696.266
   2993573.311 9   2334680.43747  21651326.481    21651326.8604   21651334.5954
      -835.364        -650.933
 -18995086.648 9 -14769050.99847  21030802.427    21030803.0604   21030810.3984
        84.761          66.047
 -11166839.205 9  -8692369.00348  19163424.551    19163424.9684   19163431.3904
       419.471         326.861
  -2890708.896 9  -2236351.11847  21313129.378    21313129.5214   21313137.4534
     -1581.816       -1232.584
 -22414027.977 9 -17440676.73748  18508991.885    18508992.4884   18508998.9404
       611.080         476.166
 96 10 28 18 41 59.9930000  0  7 25 15 23 31 21  3  1               -0.006102630
 -15010095.204 9 -11679228.87247  21417696.725    21417697.8524   21417704.9024
      4485.204        3494.964
  -8933248.097 9  -6947013.70446  21735523.057    21735523.8334   21735532.0514
      4739.957        3693.473
   3018681.660 9   2354245.32847  21656104.413    21656104.8654   21656112.6694
      -838.148        -653.102
 -18997405.411 9 -14770857.85947  21030361.179    21030361.7764   21030369.1344
        69.830          54.413
 -11179326.059 9  -8702099.02748  19161048.436    19161048.7954   19161055.2034
       413.018         321.832
  -2843156.902 9  -2199297.66847  21322177.615    21322178.3614   21322186.4174
     -1588.146       -1237.516
 -22432152.739 9 -17454799.93149  18505542.974    18505543.4704   18505549.8984
       597.597         465.660
 96 10 28 18 42 29.9930000  0  7 25 15 23 31 21  3  1               -0.006127129
 -15144580.002 9 -11784022.14247  21392105.363    21392106.2294   21392113.1594
      4481.324        3491.941
  -9075372.565 9  -7057760.02346  21708477.107    21708478.3984   21708486.5784
      4735.858        3690.279
   3043883.574 9   2373883.12647  21660900.419    21660900.5974   21660908.4844
      -841.100        -655.403
 -18999246.699 9 -14772292.65447  21030010.781    21030011.4044   21030018.6714
        53.783          41.909
 -11191592.142 9  -8711657.02148  19158714.266    19158714.6514   19158721.0154
       405.671         316.107
  -2795396.252 9  -2162081.62347  21331266.352    21331266.8744   21331274.9904
     -1595.008       -1242.863
 -22449865.314 9 -17468601.94649  18502172.378    18502172.8904   18502179.2824
       584.053         455.106
 96 10 28 18 42 59.9930000  0  7 25 15 23 31 21  3  1               -0.006151618
 -15278933.168 9 -11888712.83347  21366538.962    21366539.5814   21366546.4524
      4476.598        3488.258
  -9217364.278 9  -7168402.91146  21681457.170    21681458.2454   21681466.3144
      4731.274        3686.707
   3069185.824 9   2393599.09547  21665715.248    21665715.5174   21665723.5064
      -844.525        -658.071
 -19000601.581 9 -14773348.42947  21029752.769    21029753.5784   21029760.8834
        37.555          29.264
 -11203622.768 9  -8721031.54349  19156425.028    19156425.3064   19156431.6944
       397.405         309.666
  -2747430.561 9  -2124705.80947  21340393.775    21340394.4534   21340402.5434
     -1601.620       -1248.015
 -22467156.269 9 -17482075.42449  18498881.937    18498882.5334   18498888.9104
       569.857         444.044
 96 10 28 18 43 29.9930000  0  7 25 15 23 31 21  3  1               -0.006176099
 -15413143.186 9 -11993291.99347  21340999.318    21341000.1964   21341006.9854
      4470.392        3483.422
  -9359222.821 9  -7278942.01046  21654462.773    21654463.4644   21654471.5604
      4725.560        3682.255
   3094580.592 9   2413387.15247  21670547.749    21670547.9614   21670556.0824
      -848.855        -661.445
 -19001472.665 9 -14774027.21848  21029587.303    21029587.8564   21029595.2094
        20.039          15.615
 -11215409.364 9  -8730215.91349  19154182.084    19154182.4424   19154188.8424
       388.011         302.346
  -2699268.208 9  -2087176.74547  21349558.699    21349559.4484   21349567.6224
     -1609.521       -1254.172
 -22484027.995 9 -17495222.22349  18495671.354    18495671.9304   18495678.3304
       554.617         432.169
 96 10 28 18 43 59.9930000  0  7 25 15 23 31 21  3  1               -0.006200549
 -15547177.255 9 -12097734.04847  21315493.079    21315494.2924   21315501.0224
      4465.446        3479.568
  -9500919.312 9  -7389354.85546  21627498.688    21627499.5434   21627507.7044
      4720.867        3678.598
   3120094.014 9   2433267.69147  21675403.081    21675402.9834   21675411.1044
      -852.057        -663.941
 -19001823.076 9 -14774300.30747  21029520.794    21029521.2614   21029528.6234
         3.283           2.558
 -11226929.199 9  -8739192.42749  19151989.940    19151990.3074   19151996.7294
       380.171         296.237
  -2650888.869 9  -2049478.62047  21358764.930    21358765.7914   21358774.0254
     -1615.669       -1258.963
 -22500465.839 9 -17508030.93849  18492543.264    18492543.8974   18492550.3204
       541.300         421.792
 96 10 28 18 44 29.9930000  0  7 25 15 23 31 21  3  1               -0.006224988
 -15681087.989 9 -12202079.98947  21290010.518    21290011.8894   21290018.5844
      4462.240        3477.070
  -9642489.444 9  -7499669.24146  21600558.650    21600559.6154   21600567.7754
      4717.440        3675.927
   3145701.567 9   2453221.56847  21680276.016    21680275.8284   21680284.0864
      -854.794        -666.073
 -19001685.823 9 -14774193.37447  21029546.899    21029547.4584   21029554.6024
       -11.983          -9.337
 -11238241.814 9  -8748007.46548  19149837.403    19149837.6194   19149844.0344
       374.436         291.768
  -2602351.820 9  -2011657.60047  21368001.429    21368002.1544   21368010.4044
     -1619.689       -1262.095
 -22516520.903 9 -17520541.37749  18489488.042    18489488.7684   18489495.1494
       529.296         412.438
 96 10 28 18 44 59.9930000  0  7 25 15 23 31 21  3  1               -0.006249419
 -15814875.569 9 -12306329.96547  21264551.928    21264552.9514   21264559.7304
      4456.665        3472.726
  -9783934.409 9  -7609886.06646  21573643.098    21573643.4954   21573651.6394
      4711.938        3671.640
   3171412.299 9   2473255.83347  21685168.267    21685168.3704   21685176.5494
      -859.412        -669.672
 -19001076.109 9 -14773718.30447  21029662.858    21029663.4574   21029670.5964
       -29.030         -22.621
 -11249369.762 9  -8756678.60948  19147719.947    19147720.0704   19147726.4764
       367.062         286.022
  -2553674.508 9  -1973727.28547  21377264.420    21377265.1714   21377273.3814
     -1625.788       -1266.848
 -22532195.095 9 -17532755.03849  18486505.410    18486506.0164   18486512.4424
       515.457         401.655
 96 10 28 18 45 29.9930000  0  7 25 15 23 31 21  3  1               -0.006273822
 -15948509.726 9 -12410460.38047  21239121.847    21239123.1374   21239130.1074
      4452.620        3469.574
  -9925222.099 9  -7719980.34546  21546757.308    21546757.3344   21546765.4974
      4707.468        3668.157
   3197245.309 9   2493385.40247  21690084.188    21690084.2334   21690092.4144
      -862.567        -672.130
 -18999963.722 9 -14772851.53447  21029874.328    21029875.1034   21029882.3084
       -44.909         -34.994
 -11260287.400 9  -8765185.87249  19145642.274    19145642.5184   19145648.9354
       360.839         281.173
  -2504819.311 9  -1935658.34047  21386561.341    21386562.0354   21386570.2054
     -1630.948       -1270.869
 -22547467.297 9 -17544655.44949  18483599.095    18483599.7754   18483606.2394
       502.914         391.881
 96 10 28 18 45 59.9930000  0  7 25 15 23 31 21  3  1               -0.006298215
 -16082018.814 9 -12514493.35547  21213715.551    21213717.1364   21213724.1574
      4448.148        3466.089
 -10066368.576 9  -7829964.56246  21519898.013    21519898.0444   21519906.2044
      4702.321        3664.146
   3223180.478 9   2513594.57047  21695019.403    21695019.6464   21695027.6564
      -866.274        -675.019
 -18998377.042 9 -14771615.18847  21030176.358    21030177.0574   21030184.2744
       -60.605         -47.225
 -11271001.533 9  -8773534.55749  19143603.372    19143603.6954   19143610.1394
       353.441         275.409
  -2455802.109 9  -1897463.18047  21395888.272    21395889.6484   21395897.7524
     -1636.822       -1275.446
 -22562354.966 9 -17556256.23149  18480766.186    18480766.7664   18480773.2464
       489.396         381.348
 96 10 28 18 46 29.9930000  0  7 25 15 23 31 21  3  1               -0.006322607
 -16215399.343 9 -12618426.17447  21188334.296    21188335.6314   21188342.6234
      4443.110        3462.164
 -10207366.888 9  -7939833.36646  21493067.123    21493067.0204   21493075.1064
      4697.074        3660.058
   3249216.778 9   2533882.53247  21699973.884    21699974.3554   21699982.3274
      -869.824        -677.785
 -18996337.036 9 -14770025.59947  21030564.501    21030565.2074   21030572.5104
       -75.896         -59.140
 -11281492.129 9  -8781709.07049  19141606.988    19141607.4154   19141613.9034
       345.387         269.133
  -2406623.438 9  -1859142.17647  21405246.895    21405248.0334   21405256.0594
     -1642.262       -1279.685
 -22576827.986 9 -17567533.91749  18478011.917    18478012.6904   18478019.1324
       474.849         370.012
 96 10 28 18 46 59.9930000  0  7 25 15 23 31 21  3  1               -0.006347013
 -16348622.292 9 -12722236.18447  21162982.711    21162984.1084   21162991.0384
      4438.362        3458.464
 -10348213.544 9  -8049583.97946  21466265.456    21466264.8784   21466272.8114
      4692.683        3656.636
   3275344.219 9   2554241.51647  21704945.233    21704946.2924   21704954.3584
      -872.026        -679.501
 -18993854.251 9 -14768090.99647  21031037.130    21031037.6634   21031045.0754
       -89.764         -69.946
 -11291743.514 9  -8789697.17849  19139656.387    19139656.6764   19139663.1484
       337.958         263.344
  -2357277.328 9  -1820690.72747  21414637.350    21414638.4144   21414646.2504
     -1647.420       -1283.704
 -22590863.181 9 -17578470.44249  18475341.287    18475341.9074   18475348.3204
       460.780         359.049
 96 10 28 18 47 29.9930000  0  7 25 15 23 31 21  3  1               -0.006371448
 -16481699.223 9 -12825932.43647  21137659.255    21137660.3194   21137667.2034
      4433.357        3454.564
 -10488921.546 9  -8159226.55846  21439489.715    21439489.0624   21439496.9704
      4687.908        3652.915
   3301545.790 9   2574658.25547  21709931.722    21709932.2894   21709940.4264
      -874.642        -681.539
 -18990959.879 9 -14765835.66947  21031588.109    21031588.4724   21031595.9154
      -103.297         -80.491
 -11301764.965 9  -8797506.12149  19137749.447    19137749.6744   19137756.1714
       330.200         257.299
  -2307777.129 9  -1782119.20847  21424057.130    21424058.1184   21424065.9514
     -1652.494       -1287.658
 -22604462.413 9 -17589067.25349  18472753.464    18472754.0764   18472760.4644
       445.884         347.442
 96 10 28 18 47 59.9930000  0  7 25 15 23 31 21  3  1               -0.006395914
 -16614600.501 9 -12929491.79347  21112368.687    21112369.8844   21112376.9364
      4427.274        3449.824
 -10629471.305 9  -8268745.81546  21412743.920    21412743.2234   21412751.1494
      4682.581        3648.764
   3327839.842 9   2595147.07047  21714935.369    21714935.8734   21714944.1304
      -877.794        -683.995
 -18987641.865 9 -14763250.21847  21032219.579    21032219.8914   21032227.3154
      -117.437         -91.509
 -11311540.867 9  -8805123.72848  19135889.206    19135889.4284   19135895.9064
       322.255         251.108
  -2258110.305 9  -1743417.84947  21433508.220    21433509.3974   21433517.3734
     -1658.050       -1291.987
 -22617591.973 9 -17599298.08949  18470255.115    18470255.6124   18470261.9844
       430.017         335.078
 96 10 28 18 48 29.9930000  0  7 25 15 23 31 21  3  1               -0.006420408
 -16747322.050 9 -13032911.12247  21087112.857    21087113.7464   21087120.8404
      4421.093        3445.008
 -10769864.081 9  -8378142.78146  21386027.570    21386027.3574   21386035.1934
      4677.230        3644.595
   3354230.206 9   2615710.90847  21719957.154    21719957.8094   21719966.1904
      -881.223        -686.667
 -18983896.282 9 -14760331.60947  21032932.529    21032932.6204   21032940.0714
      -132.120        -102.951
 -11321093.234 9  -8812567.14848  19134071.413    19134071.6604   19134078.1074
       314.888         245.367
  -2208291.573 9  -1704598.10947  21442988.809    21442989.6174   21442997.6824
     -1662.974       -1295.824
 -22630257.786 9 -17609167.56349  18467844.915    18467845.4124   18467851.7194
       414.951         323.338
 96 10 28 18 48 59.9930000  0  7 25 15 23 31 21  3  1               -0.006444918
 -16879863.393 9 -13136190.01347  21061891.130    21061891.9124   21061899.0664
      4415.100        3440.338
 -10910099.071 9  -8487416.79147  21359341.109    21359341.4954   21359349.2804
      4671.698        3640.284
   3380716.377 9   2636349.43947  21724997.203    21724997.9514   21725006.3984
      -884.634        -689.325
 -18979717.790 9 -14757075.68047  21033727.853    21033727.8454   21033735.2964
      -146.647        -114.270
 -11330429.023 9  -8819841.80948  19132294.863    19132295.1404   19132301.5164
       307.416         239.545
  -2158324.797 9  -1665663.01047  21452497.423    21452497.9574   21452506.0894
     -1668.170       -1299.873
 -22642489.549 9 -17618698.81949  18465517.174    18465517.7374   18465524.0654
       400.625         312.175
 96 10 28 18 49 29.9930000  0  7 25 15 23 31 21  3  1               -0.006469434
 -17012229.255 9 -13239332.19247  21036702.228    21036703.5374   21036710.7114
      4409.228        3435.762
 -11050169.219 9  -8596562.34847  21332686.246    21332686.9694   21332694.8194
      4666.222        3636.017
   3407301.580 9   2657065.10347  21730056.087    21730057.0734   21730065.3834
      -887.646        -691.672
 -18975096.303 9 -14753474.54947  21034606.866    21034607.2794   21034614.8534
      -161.701        -126.001
 -11339537.349 9  -8826939.22748  19130561.636    19130561.8664   19130568.1894
       299.682         233.518
  -2108215.345 9  -1626616.76247  21462032.717    21462033.5134   21462041.7524
     -1672.635       -1303.352
 -22654304.448 9 -17627905.24749  18463268.949    18463269.3684   18463275.7844
       387.087         301.626
 96 10 28 18 49 59.9930000  0  7 25 15 23 31 21  3  1               -0.006493934
 -17144405.705 9 -13342326.77347  21011550.339    21011551.1534   21011558.2974
      4403.481        3431.284
 -11190058.958 9  -8705567.34447  21306065.993    21306066.8454   21306074.7374
      4660.606        3631.641
   3433993.327 9   2677863.79946  21735135.478    21735136.3984   21735144.7244
      -891.060        -694.332
 -18969996.811 9 -14749500.93347  21035577.248    21035577.7384   21035585.1564
      -177.365        -138.206
 -11348397.980 9  -8833843.63748  19128875.419    19128875.7164   19128882.0194
       291.947         227.491
  -2057962.485 9  -1587458.75547  21471595.666    21471596.3324   21471604.6574
     -1676.688       -1306.510
 -22665710.106 9 -17636792.78449  18461098.553    18461098.9444   18461105.4084
       374.149         291.545
 96 10 28 18 50 29.9930000  0  7 25 15 23 31 21  3  1               -0.006518434
 -17276439.802 9 -13445210.44247  20986424.976    20986425.8614   20986432.9884
      4398.438        3427.354
 -11329802.213 9  -8814458.18847  21279474.101    21279474.6884   21279482.5644
      4655.361        3627.554
   3460766.493 9   2698725.93146  21740230.733    21740231.1574   21740239.5094
      -894.050        -696.662
 -18964453.666 9 -14745181.61147  21036632.237    21036632.6084   21036639.8854
      -192.437        -149.951
 -11357047.033 9  -8840583.18048  19127229.460    19127229.8324   19127236.1454
       284.344         221.567
  -2007612.026 9  -1548224.68847  21481176.943    21481177.7684   21481186.1704
     -1680.416       -1309.415
 -22676757.146 9 -17645400.88749  18458996.424    18458996.7914   18459003.2574
       361.998         282.076
 96 10 28 18 50 59.9930000  0  7 25 15 23 31 21  3  1               -0.006542931
 -17408313.801 9 -13547969.34847  20961330.276    20961331.0534   20961338.1224
      4392.863        3423.010
 -11469382.443 9  -8923221.98047  21252913.046    21252913.3984   21252921.3464
      4649.701        3623.144
   3487624.991 9   2719654.56746  21745341.689    21745342.1064   21745350.5794
      -896.872        -698.861
 -18958458.532 9 -14740510.10247  21037773.098    21037773.4244   21037780.8584
      -207.699        -161.843
 -11365462.064 9  -8847140.36748  19125628.109    19125628.5224   19125634.8754
       276.469         215.430
  -1957138.931 9  -1508895.07347  21490781.705    21490782.5794   21490791.0114
     -1684.638       -1312.705
 -22687430.438 9 -17653717.75549  18456965.360    18456965.7914   18456972.1624
       349.323         272.200
 96 10 28 18 51 29.9930000  0  7 25 15 23 31 21  3  1               -0.006567408
 -17540000.771 9 -13650582.52247  20936271.116    20936271.8104   20936278.9834
      4385.541        3417.305
 -11608774.163 9  -9031838.89847  21226387.738    21226387.9634   21226395.9454
      4642.304        3617.380
   3514597.385 9   2740671.95346  21750474.448    21750474.9174   21750483.3284
      -901.903        -702.782
 -18951985.306 9 -14735466.05147  21039004.921    21039005.2354   21039012.7054
      -224.661        -175.061
 -11373630.382 9  -8853505.31148  19124073.946    19124074.1954   19124080.5794
       267.452         208.404
  -1906527.677 9  -1469457.81347  21500413.135    21500413.5944   21500422.1524
     -1690.265       -1317.090
 -22697703.928 9 -17661723.08449  18455010.268    18455010.7744   18455017.1764
       334.711         260.814
 96 10 28 18 51 59.9930000  0  7 25 15 23 31 21  3  1               -0.006591881
 -17671515.014 9 -13753061.10047  20911244.686    20911245.4024   20911252.6624
      4380.775        3413.591
 -11747988.180 9  -9140317.33547  21199896.323    21199896.3784   21199904.3834
      4637.268        3613.456
   3541682.019 9   2761776.80546  21755628.818    21755629.0324   21755637.4704
      -905.045        -705.230
 -18945058.723 9 -14730068.74947  21040323.224    21040323.3774   21040330.7754
      -238.428        -185.788
 -11381582.240 9  -8859701.58448  19122560.875    19122561.0694   19122567.4544
       261.382         203.674
  -1855784.387 9  -1429917.66147  21510069.437    21510069.7674   21510078.3584
     -1694.087       -1320.068
 -22707577.093 9 -17669416.47049  18453131.443    18453131.9924   18453138.3994
       322.103         250.989
